     2              OBSERVATION DATA    GPS                 RINEX VERSION / TYPE
TRRINEXO V2.4.6 UX                                          PGM / RUN BY / DATE
                                                            COMMENT
Original Marker Name: thou                                  COMMENT
Campaign Name: STRC 1995                                    COMMENT
4-Character Station Name: THOU                              COMMENT
6-Character Antenna Code: TRMSST                            COMMENT
Vertical Measurement Point: TGP                             COMMENT
Vertical Offset to Rinex Ref. Point: 0.0629                 COMMENT
Radial Measurement Point: NGP                               COMMENT
Radial Offset to Rinex Ref. Point: 0.2334                   COMMENT
Antenna Height from Field Measurement: 1.5110 m             COMMENT
Original XYZ: -2346139.4258 -4752930.8230 3536481.5740      COMMENT
New XYZ position is based on association with SCEC monument COMMENT
E1D0U4X4+0011. Position of that monument is believed to be  COMMENT
valid to within 1 m horizontally; vertical accuracy         COMMENT
should be no worse than 3-times this value.                 COMMENT
                                                            COMMENT
Revised Rinex header created by UCSD GPS archive for        COMMENT
GSAC on 14-Apr-1999 (1999:104) 02:56:06 GMT                 COMMENT
For assistance contact dagnew@ucsd.edu or hjohnson@ucsd.edu COMMENT
                                                            COMMENT
THOUSAND PALMS                                              MARKER NAME
THOUSAND PALMS NE                                           MARKER NUMBER
NULL UNAVCO                                                 OBSERVER / AGENCY
422 TRIMBLE 4000 SST 4.81                                   REC # / TYPE / VERS
62875 TR 4000SST L1/L2 GEO                                  ANT # / TYPE
 -2346156.0000 -4752979.0000  3536523.0000                  APPROX POSITION XYZ
        1.4300        0.0000        0.0000                  ANTENNA: DELTA H/E/N
     1     2     0                                          WAVELENGTH FACT L1/2
     3    C1    L1    L2                                    # / TYPES OF OBSERV
    30                                                      INTERVAL
  1995     2    12    16     0   30.000000                  TIME OF FIRST OBS
  1995     2    12    23    59   60.000000                  TIME OF LAST OBS
     0                                                      # OF SATELLITES
                                                            END OF HEADER
 95  2 12 16  0 30.0000000  0  7 25  1 14 15 21 22 29
  20921671.641          -0.32817
  23917280.219          -0.27515
  22085107.391          -0.60516
  21232571.734          -0.04416
  24599757.102          -0.53713
  23684022.297          -0.49315
  23648759.391          -0.88615
 95  2 12 16  1  0.0000000  0  7 25  1 14 15 21 22 29
  20916249.305      -28487.555 7        -0.26119
  23918406.078        5911.845 5        -0.12615
  22057509.352     -145048.620 6        -0.28817
  21227849.875      -24844.690 6        -0.20319
  24605990.977       32766.434 3
  23653996.273     -157794.084 5
  23624000.359     -130151.394 5
 95  2 12 16  1 30.0000000  0  6 25  1 14 15 22 29
  20910900.633      -56604.115 7    -21909.277 9
  23919526.953       11783.145 6      4574.855 6
  22029925.242     -289999.369 6   -112948.919 8
  21223211.477      -49179.581 6    -18962.483 9
  23623976.039     -315561.802 5        -0.13114
  23599234.906     -260259.257 5        -0.26415
 95  2 12 16  2  0.0000000  0  6 25  1 14 15 22 29
  20905623.242      -84328.210 7    -43512.472 9
  23920641.172       17639.471 5      9138.181 5
  22002362.680     -434838.826 6   -225810.833 7
  21218688.664      -72989.826 7    -37515.939 9
  23593958.289     -473292.824 5   -122907.404 4
  23574486.125     -390321.282 5   -101347.276 5
 95  2 12 16  2 30.0000000  0  6 25  1 14 15 22 29
  20900427.117     -111644.085 7    -64797.576 9
  23921755.258       23498.926 5     13703.924 5
  21974821.719     -579562.534 6   -338582.544 7
  21214250.938      -96274.652 7    -55659.982 9
  23563950.820     -630975.245 5   -245776.821 4
  23549744.859     -520326.800 5   -202650.258 5
 95  2 12 16  3  0.0000000  0  6 25  1 14 15 22 29
  20895309.188     -138538.797 7    -85754.501 9
  23922873.805       29357.964 5     18269.357 5
  21947304.719     -724173.647 6   -451266.529 8
  21209919.539     -119040.840 7    -73399.893 9
  23533957.539     -788610.999 5   -368609.848 4
  23525014.617     -650279.002 5   -303911.697 5
 95  2 12 16  3 30.0000000  0  6 25  1 14 15 22 29
  20890270.469     -165002.557 7   -106375.625 9
  23923976.844       35187.645 5     22811.931 5
  21919806.219     -868662.816 6   -563855.486 8
  21205690.695     -141296.311 7    -90741.843 8
  23503964.930     -946203.822 5   -491409.424 5
  23500290.531     -780192.981 5   -405143.343 5
 95  2 12 16  4  0.0000000  0  6 25  1 14 15 22 29
  20885318.305     -191025.734 7   -126653.429 9
  23925069.586       40969.503 5     27317.203 5
  21892335.023    -1013021.980 6   -676343.144 8
  21201548.531     -163042.638 7   -107687.059 9
  23473988.023    -1103744.889 5   -614168.660 5
  23475583.156     -910053.783 5   -506333.551 5
 95  2 12 16  4 30.0000000  0  6 25  1 14 15 22 29
  20880452.383     -216609.354 7   -146588.725 9
  23926167.211       46701.269 5     31783.470 5
  21864892.594    -1157247.501 7   -788726.661 8
  21197503.875     -184277.829 6   -124233.978 9
  23444020.062    -1261228.011 5   -736882.746 5
  23450883.328    -1039843.021 5   -607468.004 5
 95  2 12 16  5  0.0000000  0  6 25  1 14 15 22 29
  20875666.773     -241763.520 7   -166189.382 9
  23927249.852       52354.743 5     36188.724 5
  21837473.695    -1301336.124 7   -901003.507 8
  21193558.805     -205008.177 7   -140387.530 9
  23414061.977    -1418664.481 5   -859560.481 5
  23426197.086    -1169562.113 5   -708547.782 5
 95  2 12 16  5 29.9990000  0  6 25  1 14 15 22 29
  20870958.815     -266502.928 7   -185466.852 9
  23928302.425       57933.430 5     40535.688 5
  21810079.651    -1445279.782 7  -1013167.394 8
  21189710.245     -225237.827 7   -156150.912 8
  23384112.878    -1576050.900 5   -982199.218 5
  23401526.026    -1299215.799 5   -809576.600 5
 95  2 12 16  5 59.9990000  0  6 25  1 14 15 22 29
  20866331.370     -290822.223 7   -204416.962 9
  23929362.089       63456.754 5     44839.513 5
  21782714.878    -1589084.557 7  -1125223.054 8
  21185956.058     -244963.523 6   -171521.612 8
  23354175.933    -1733394.038 5  -1104804.232 5
  23376865.479    -1428808.977 5   -910558.258 5
 95  2 12 16  6 29.9990000  0  6 25  1 14 15 22 29
  20861783.503     -314723.823 7   -223041.594 9
  23930398.979       68930.565 5     49104.766 5
  21755381.378    -1732744.581 7  -1237165.920 8
  21182298.042     -264189.524 6   -186502.936 9
  23324236.214    -1890681.992 5  -1227366.242 5
  23352215.159    -1558336.863 5  -1011489.042 5
 95  2 12 16  6 59.9990000  0  6 25  1 14 15 22 29
  20857314.948     -338203.069 7   -241337.120 9
  23931441.081       74366.706 5     53340.655 5
  21728070.479    -1876245.533 7  -1348984.838 8
  21178734.534     -282911.652 6   -201091.623 8
  23294323.792    -2047888.682 5  -1349864.936 5
  23327584.206    -1687798.322 5  -1112368.066 5
 95  2 12 16  7 29.9990000  0  6 25  1 14 15 22 29
  20852925.425     -361268.999 7   -259310.582 9
  23932465.206       79790.437 5     57566.898 5
  21700796.870    -2019584.918 7  -1460677.856 8
  21175268.206     -301131.827 6   -215289.192 8
  23264422.823    -2205002.528 5  -1472291.280 5
  23302964.862    -1817188.390 5  -1213191.465 5
 95  2 12 16  7 59.9990000  0  6 25  1 14 15 22 29
  20848610.769     -383928.980 7   -276967.715 9
  23933497.175       85207.447 5     61787.883 5
  21673546.558    -2162765.184 7  -1572246.888 8
  21171901.855     -318846.973 6   -229093.225 8
  23234545.479    -2362012.903 5  -1594636.986 5
  23278358.261    -1946487.062 5  -1313943.651 5
 95  2 12 16  8 29.9990000  0  6 25  1 14 15 22 29
  20844372.456     -406209.481 7   -294329.153 9
  23934523.019       90604.244 5     65993.131 5
  21646333.503    -2305781.757 7  -1683688.364 8
  21168623.854     -336061.813 6   -242507.409 8
  23204686.065    -2518915.735 5  -1716898.917 5
  23253767.940    -2075702.794 5  -1414631.200 5
 95  2 12 16  8 59.9990000  0  6 25  1 14 15 22 29
  20840206.136     -428112.989 7   -311396.829 9
  23935552.589       95982.421 5     70183.860 5
  21619152.870    -2448621.219 7  -1794991.833 8
  21165440.901     -352772.466 6   -255528.722 8
  23174847.065    -2675717.696 5  -1839082.226 5
  23229186.128    -2204852.721 5  -1515267.466 6
 95  2 12 16  9 29.9990000  0  6 25  1 14 15 22 29
  20836107.034     -449639.497 7   -328170.746 9
  23936562.972      101341.006 5     74359.342 5
  21592005.823    -2591273.622 7  -1906149.552 8
  21162363.370     -368974.958 6   -268154.067 8
  23145028.878    -2832427.909 5  -1961194.039 5
  23204623.448    -2333938.176 5  -1615853.492 5
 95  2 12 16  9 59.9990000  0  6 25  1 14 15 22 29
  20832084.878     -470784.635 7   -344647.486 9
  23937582.667      106668.395 5     78510.495 4
  21564896.339    -2733733.777 7  -2017157.457 8
  21159371.698     -384667.380 6   -280381.957 8
  23115226.026    -2989043.437 5  -2083232.094 5
  23180068.159    -2462980.473 5  -1716405.896 6
 95  2 12 16 10 29.9990000  0  6 25  1 14 15 22 29
  20828136.394     -491531.706 7   -360814.043 9
  23938587.495      111962.209 5     82635.489 5
  21537827.792    -2875979.123 7  -2127997.978 8
  21156485.784     -399853.554 6   -292215.371 8
  23085438.480    -3145566.788 5  -2205198.314 5
  23155516.550    -2591990.909 5  -1816933.473 5
 95  2 12 16 10 59.9990000  0  6 25  1 14 15 22 29
  20824266.440     -511858.074 7   -376652.784 9
  23939595.347      117234.618 5     86743.828 5
  21510801.823    -3018008.981 7  -2238670.591 8
  21153692.612     -414533.621 6   -303654.413 8
  23055672.667    -3302000.291 5  -2327094.520 5
  23130979.573    -2720947.327 5  -1917418.979 6
 95  2 12 16 11 29.9990000  0  6 25  1 14 15 22 29
  20820482.065     -531767.003 7   -392166.245 9
  23940593.269      122488.279 5     90837.527 5
  21483813.979    -3159830.490 7  -2349180.857 8
  21150991.253     -428710.127 7   -314701.075 8
  23025922.042    -3458333.178 5  -2448912.329 5
  23106451.112    -2849835.033 5  -2017850.929 5
 95  2 12 16 11 59.9990000  0  6 25  1 14 15 22 29
  20816771.417     -551255.216 7   -407351.877 9
  23941588.628      127723.893 5     94917.161 5
  21456864.753    -3301452.197 7  -2459535.423 8
  21148389.198     -442385.343 7   -325357.125 8
  22996195.300    -3614556.818 5  -2570645.023 5
  23081942.003    -2978645.752 5  -2118222.897 6
 95  2 12 16 12 29.9990000  0  6 25  1 14 15 22 29
  20813141.253     -570331.159 7   -422216.260 9
  23942577.792      132946.267 5     98986.486 5
  21429953.300    -3442877.008 7  -2569736.571 8
  21145883.823     -455562.394 7   -335624.987 8
  22966491.144    -3770660.933 5  -2692284.557 5
  23057447.745    -3107344.464 5  -2218507.590 6
 95  2 12 16 12 59.9990000  0  6 25  1 14 15 22 29
  20809583.331     -589020.186 7   -436779.153 9
  23943575.401      138149.902 5    103041.205 5
  21403072.487    -3584133.389 7  -2679806.475 8
  21143473.409     -468248.273 7   -345510.118 8
  22936808.823    -3926632.868 5  -2813821.107 5
  23032979.183    -3235938.920 5  -2318711.053 6
 95  2 12 16 13 29.9990000  0  6 25  1 14 15 22 29
  20806096.722     -607346.623 7   -451059.509 9
  23944553.683      143315.222 5    107066.068 5
  21376222.448    -3725241.466 7  -2789760.816 8
  21141149.565     -480458.650 7   -355024.741 8
  22907158.058    -4082471.691 5  -2935253.928 5
  23008526.081    -3364451.256 5  -2418850.524 5
 95  2 12 16 13 59.9990000  0  6 25  1 14 15 22 29
  20802680.519     -625301.908 7   -465050.656 9
  23945532.534      148443.564 5    111062.114 5
  21349395.440    -3866189.403 7  -2899590.381 8
  21138915.339     -492192.164 7   -364167.762 8
  22877526.394    -4238163.515 5  -3056572.213 5
  22984087.409    -3492876.288 5  -2518921.983 6
 95  2 12 16 14 29.9990000  0  6 25  1 14 15 22 29
  20799336.964     -642875.366 7   -478744.280 9
  23946503.769      153549.148 5    115040.431 5
  21322611.792    -4006947.409 7  -3009271.947 8
  21136774.628     -503442.111 7   -372933.988 8
  22847929.573    -4393691.609 5  -3177762.921 5
  22959661.495    -3621221.927 5  -2618931.572 5
 95  2 12 16 14 59.9990000  0  6 25  1 14 15 22 29
  20796069.253     -660060.069 7   -492134.973 9
  23947473.659      158632.754 5    119001.603 4
  21295863.972    -4147511.930 7  -3118802.738 8
  21134721.472     -514212.296 6   -381326.379 8
  22818367.526    -4549061.884 5  -3298830.656 5
  22935254.151    -3749512.461 6  -2718898.222 6
 95  2 12 16 15 29.9990000  0  6 25  1 14 15 22 29
  20792872.722     -676852.340 7   -505219.879 9
  23948435.276      163690.752 5    122942.845 5
  21269156.964    -4287865.187 7  -3228168.911 8
  21132760.198     -524508.006 6   -389349.036 8
  22788820.831    -4704294.223 5  -3419790.897 5
  22910847.128    -3877748.922 5  -2818822.742 6
 95  2 12 16 15 59.9990000  0  6 25  1 14 15 22 29
  20789749.761     -693256.834 7   -518002.617 9
  23949387.605      168732.526 5    126871.429 5
  21242491.714    -4427988.824 7  -3337356.159 9
  21130895.144     -534332.546 6   -397004.555 8
  22759306.464    -4859394.432 5  -3540648.176 5
  22886450.276    -4005943.701 5  -2918714.766 6
 95  2 12 16 16 29.9990000  0  6 25  1 14 15 22 29
  20786701.628     -709271.360 7   -530481.488 9
  23950353.511      173777.482 5    130802.489 5
  21215871.370    -4567871.740 7  -3446355.835 9
  21129116.706     -543681.134 6   -404289.194 8
  22729822.331    -5014358.265 5  -3661399.188 5
  22862065.042    -4134094.436 5  -3018572.487 5
 95  2 12 16 16 59.9980000  0  6 25  1 14 15 22 29
  20783727.545     -724905.051 7   -542663.602 9
  23951309.451      178817.575 5    134729.779 4
  21189298.014    -4707523.453 7  -3555175.352 9
  21127423.256     -552555.327 6   -411204.173 8
  22700364.350    -5169183.664 5  -3782042.319 5
  22837691.561    -4262176.007 6  -3118376.312 6
 95  2 12 16 17 29.9980000  0  6 25  1 14 15 22 29
  20780823.959     -740159.194 7   -554549.968 9
  23952270.514      183851.246 5    138652.073 5
  21162767.146    -4846948.047 7  -3663817.894 9
  21125829.717     -560964.029 6   -417756.440 8
  22670921.326    -5323883.775 5  -3902587.832 5
  22813331.936    -4390196.810 6  -3218132.775 6
 95  2 12 16 17 59.9980000  0  6 25  1 14 15 22 29
  20777994.428     -755038.385 7   -566144.156 9
  23953229.521      188876.155 5    142567.512 4
  21136275.131    -4986149.015 7  -3772286.184 9
  21124310.850     -568915.164 6   -423952.155 8
  22641509.178    -5478446.154 5  -4023026.005 5
  22788980.068    -4518153.905 6  -3317839.600 5
 95  2 12 16 18 29.9980000  0  6 25  1 14 15 22 29
  20775231.357     -769547.901 7   -577450.287 9
  23954177.115      193877.659 5    146464.690 5
  21109826.217    -5125143.054 7  -3880593.229 9
  21122889.420     -576409.006 6   -429791.543 8
  22612126.701    -5632865.049 5  -4143352.377 5
  22764654.271    -4646030.603 6  -3417483.758 5
 95  2 12 16 18 59.9980000  0  6 25  1 14 15 22 29
  20772542.271     -783684.006 7   -588465.447 9
  23955121.053      198835.361 4    150327.762 5
  21083414.506    -5263936.734 7  -3988744.148 9
  21121545.553     -583449.020 6   -435277.305 8
  22582772.904    -5787130.404 6  -4263559.108 5
  22740327.053    -4773823.055 6  -3517062.289 5
 95  2 12 16 19 29.9980000  0  6 25  1 14 15 22 29
  20769922.318     -797456.967 7   -599197.643 9
  23956057.381      203741.195 5    154150.408 4
  21057040.498    -5402534.285 7  -4096742.238 9
  21120290.521     -590048.211 6   -440419.557 8
  22553444.217    -5941238.298 6  -4383643.150 6
  22716029.256    -4901547.303 6  -3616587.646 5
 95  2 12 16 19 59.9980000  0  6 25  1 14 15 22 29
  20767363.615     -810883.752 7   -609660.085 9
  23956974.811      208589.561 5    157928.306 3
  21030699.475    -5540947.825 7  -4204596.954 9
  21119122.678     -596205.612 6   -445217.565 7
  22524153.436    -6095165.194 6  -4503586.148 6
  22691737.092    -5029198.605 6  -3716056.188 5
 95  2 12 16 20 29.9980000  0  6 25  1 14 15 22 29
  20764876.600     -823963.585 7   -619852.182 9
  23957887.514      213360.299 5    161645.685 2
  21004396.264    -5679183.614 7  -4312313.158 9
  21118033.975     -601927.374 6   -449676.120 7
  22494895.037    -6248904.051 6  -4623382.617 6
  22667451.529    -5156785.731 6  -3815474.709 6
 95  2 12 16 20 59.9980000  0  6 25  1 14 15 22 29
  20762456.928     -836687.827 7   -629767.181 9
  23958784.646      218065.600 5    165312.083 3
  20978128.475    -5817217.490 7  -4419872.027 9
  21117024.795     -607212.543 6   -453794.457 7
  22465677.420    -6402448.333 6  -4743027.467 6
  22643188.975    -5284308.867 6  -3914843.370 6
 95  2 12 16 21 29.9980000  0  6 25  1 14 15 22 29
  20760099.475     -849077.917 7   -639421.817 9
  23959659.709      222703.111 5    168925.689 4
  20951900.607    -5955051.139 7  -4527274.870 9
  21116098.967     -612073.711 6   -457582.414 7
  22436489.443    -6555826.950 6  -4862543.218 6
  22618929.232    -5411788.211 6  -4014177.884 6
 95  2 12 16 21 59.9980000  0  6 25  1 14 15 22 29
  20757804.607     -861137.291 7   -648818.744 9
  23960533.928      227274.745 5    172487.897 4
  20925710.545    -6092681.947 7  -4634519.663 9
  21115253.326     -616516.857 6   -461044.638 7
  22407330.264    -6709047.138 6  -4981935.528 6
  22594674.857    -5539241.116 6  -4113491.820 6
 95  2 12 16 22 29.9980000  0  6 25  1 14 15 22 29
  20755574.404     -872858.913 7   -657952.499 9
  23961395.428      231799.552 5    176013.640 4
  20899563.326    -6230090.995 7  -4741591.652 9
  21114488.592     -620539.852 6   -464179.478 7
  22378203.779    -6862112.921 5  -5101207.508 6
  22570426.873    -5666668.792 6  -4212786.089 6
 95  2 12 16 22 59.9980000  0  6 25  1 14 15 22 29
  20753407.904     -884246.884 7   -666826.256 9
  23962244.701      236303.253 5    179522.952 4
  20873458.186    -6367264.245 7  -4848479.903 9
  21113801.943     -624138.658 6   -466983.779 8
  22349107.061    -7015026.335 6  -5220360.779 6
  22546186.061    -5794065.387 6  -4312056.145 6
 95  2 12 16 23 29.9980000  0  6 25  1 14 15 22 29
  20751301.701     -895307.231 7   -675444.728 9
  23963104.217      240793.134 5    183021.479 5
  20847400.123    -6504207.387 7  -4955188.851 9
  21113199.100     -627314.935 6   -469458.836 8
  22320039.412    -7167776.047 5  -5339386.487 5
  22521948.607    -5921433.717 6  -4411304.180 6
 95  2 12 16 23 59.9980000  0  6 25  1 14 15 22 29
  20749259.936     -906036.038 7   -683804.856 9
  23963953.693      245264.033 5    186505.206 4
  20821386.943    -6640910.951 7  -5061711.113 9
  21112674.936     -630069.879 6   -471605.583 8
  22291006.451    -7320332.145 6  -5458261.322 6
  22497720.654    -6048767.052 6  -4510524.926 6
 95  2 12 16 24 29.9980000  0  6 25  1 14 15 22 29
  20747278.865     -916435.430 7   -691908.294 9
  23964803.670      249699.346 5    189961.240 5
  20795416.803    -6777375.485 7  -5168047.117 9
  21112231.967     -632413.242 6   -473431.618 8
  22262012.131    -7472698.517 6  -5576988.345 6
  22473498.068    -6176051.679 6  -4609707.735 6
 95  2 12 16 24 59.9980000  0  6 25  1 14 15 22 29
  20745366.889     -926499.441 7   -699750.402 9
  23965636.662      254087.181 5    193380.272 5
  20769496.334    -6913605.192 7  -5274200.144 9
  21111861.217     -634346.963 6   -474938.451 7
  22233055.131    -7624875.529 5  -5695567.783 6
  22449286.115    -6303269.685 6  -4708838.628 6
 95  2 12 16 25 29.9980000  0  6 25  1 14 15 22 29
  20743513.904     -936236.240 7   -707337.536 9
  23966454.381      258421.375 5    196757.463 4
  20743617.084    -7049599.736 7  -5380169.926 9
  21111569.123     -635880.147 6   -476133.169 8
  22204135.631    -7776854.038 5  -5813992.557 6
  22425089.373    -6430424.243 6  -4807920.079 6
 95  2 12 16 25 59.9980000  0  6 25  1 14 15 22 29
  20741720.990     -945643.905 7   -714668.206 9
  23967276.006      262703.684 5    200094.274 5
  20717782.193    -7185351.812 7  -5485950.768 9
  21111357.811     -637011.650 6   -477014.901 7
  22175253.318    -7928631.399 6  -5932260.578 6
  22400908.084    -6557503.781 6  -4906943.076 6
 95  2 12 16 26 29.9980000  0  6 25  1 14 15 22 29
  20739993.162     -954735.659 7   -721752.715 9
  23968083.545      266938.288 5    203393.872 4
  20691991.123    -7320879.883 7  -5591557.068 9
  21111211.678     -637752.340 6   -477592.096 7
  22146404.865    -8080228.765 6  -6050388.368 6
  22376741.287    -6684508.760 6  -5005907.979 6
 95  2 12 16 26 59.9980000  0  6 25  1 14 15 22 29
  20738318.600     -963536.011 7   -728610.155 9
  23968876.404      271128.483 5    206658.895 5
  20666245.654    -7456189.794 7  -5696993.366 9
  21111152.107     -638108.253 6
  22117593.451    -8231647.700 6  -6168377.118 6
  22352584.670    -6811462.286 6  -5104832.791 6
 95  2 12 16 27 29.9980000  0  6 25  1 14 15 22 29
  20736694.537     -972057.768 7   -735250.514 9
  23969675.646      275283.637 5    209896.584 5
  20640540.193    -7591267.724 7  -5802248.901 9
  21111150.959     -638079.475 6
  22088813.982    -8382876.433 6  -6286217.656 6
  22328425.404    -6938381.487 6  -5203730.849 6
 95  2 12 16 27 59.9980000  0  6 25  1 14 15 22 29
  20735126.193     -980298.688 7   -741672.036 9
  23970447.514      279391.690 5    213097.563 5
  20614877.326    -7726125.038 7  -5907332.530 9
  21111234.396     -637663.306 6
  22060069.436    -8533920.448 6  -6403914.261 6
  22304277.592    -7065271.787 6  -5302606.397 6
 95  2 12 16 28 29.9970000  0  6 25  1 14 15 22 29
  20733615.376     -988236.696 7   -747857.521 9
  23971224.782      283455.019 5    216263.723 3
  20589261.845    -7860747.620 7  -6012233.249 9
  21111387.024     -636852.922 6   -476891.399 7
  22031364.673    -8684764.971 6  -6521455.424 6
  22280141.939    -7192136.204 6  -5401461.760 6
 95  2 12 16 28 59.9970000  0  6 25  1 14 15 22 29
  20732165.782     -995874.396 7   -753809.001 9
  23971981.720      287460.434 4    219384.715 3
  20563683.884    -7995143.364 7  -6116957.211 9
  21111610.720     -635656.118 6   -475958.861 7
  22002697.181    -8835422.133 6  -6638850.586 6
  22255999.821    -7318991.082 6  -5500309.699 6
 95  2 12 16 29 29.9970000  0  6 25  1 14 15 22 29
  20730769.821    -1003198.811 7   -759516.363 9
  23972738.384      291406.128 5    222459.180 5
  20538153.524    -8129314.940 7  -6221506.504 9
  21111910.884     -634079.405 6   -474730.291 7
  21974062.688    -8985892.505 6  -6756100.201 6
  22231861.134    -7445826.135 6  -5599142.193 6
 95  2 12 16 29 59.9970000  0  6 25  1 14 15 22 29
  20729438.806    -1010185.126 7   -764960.279 9
  23973478.696      295293.601 5    225488.262 4
  20512662.157    -8263260.361 7  -6325879.568 9
  21112290.462     -632121.088 6   -473204.380 7
  21945470.243    -9136166.343 6  -6873196.671 6
  22207743.360    -7572628.502 6  -5697949.227 6
 95  2 12 16 30 29.9970000  0  6 25  1 14 15 22 29
  20728176.048    -1016836.870 7   -770143.480 9
  23974207.032      299135.067 5    228481.509 4
  20487224.274    -8396953.532 7  -6430056.079 9
  21112736.368     -629785.028 6   -471384.114 7
  21916911.071    -9286224.300 6  -6990124.912 6
  22183611.126    -7699385.553 6  -5796720.954 6
 95  2 12 16 30 59.9970000  0  6 25  1 14 15 22 29
  20726967.478    -1023169.623 7   -775078.124 9
  23974943.962      302951.596 5    231455.344 5
  20461833.501    -8530376.161 7  -6534021.766 9
  21113250.853     -627068.003 6   -469266.995 7
  21888402.915    -9436036.496 6  -7106861.648 6
  22159509.431    -7826070.037 6  -5895436.124 6
 95  2 12 16 31 29.9970000  0  6 25  1 14 15 22 29
  20725825.454    -1029184.567 7   -779765.121 9
  23975657.587      306749.084 5    234414.298 4
  20436498.149    -8663509.624 7  -6637762.136 9
  21113838.626     -623970.111 6   -466853.100 7
  21859948.595    -9585577.208 6  -7223386.846 6
  22135411.056    -7952685.637 6  -5994097.623 6
 95  2 12 16 31 59.9970000  0  6 25  1 14 15 22 29
  20724740.384    -1034892.358 7   -784212.775 9
  23976379.290      310526.677 5
  20411225.860    -8796325.510 7  -6741255.046 9
  21114500.321     -620487.801 6
  21831547.634    -9734820.508 6  -7339680.283 6
  22111329.899    -8079222.464 6  -6092697.740 6
 95  2 12 16 32 29.9970000  0  6 25  1 14 15 22 29
  20723711.087    -1040306.120 7   -788431.325 9
  23977091.524      314296.951 4    240295.558 3
  20386014.017    -8928808.319 7  -6844488.417 9
  21115236.813     -616619.181 6   -461125.186 7
  21803200.837    -9883766.984 6  -7455742.435 6
  22087273.735    -8205668.691 6  -6191227.262 6
 95  2 12 16 32 59.9970000  0  6 25  1 14 15 22 29
  20722734.134    -1045420.044 7   -792416.232 9
  23977812.399      318057.471 5    243225.704 4
  20360863.915    -9060963.778 7  -6947466.703 9
  21116048.173     -612360.653 6   -457806.901 7
  21774917.978   -10032425.593 6  -7571580.269 6
  22063227.446    -8332028.552 6  -6289689.481 6
 95  2 12 16 33 29.9970000  0  6 25  1 14 15 22 29
  20721820.626    -1050224.398 7   -796159.917 9
  23978523.103      321791.515 5    246135.270 5
  20335778.149    -9192802.070 7  -7050197.844 9
  21116935.423     -607714.674 6   -454186.704 7
  21746678.228   -10180819.778 6  -7687212.063 6
  22039190.353    -8458315.717 6  -6388095.058 6
 95  2 12 16 33 59.9970000  0  6 25  1 14 15 22 29
  20720966.188    -1054721.389 7   -799664.096 9
  23979231.040      325502.082 5    249026.486 5
  20310749.181    -9324334.112 7  -7152690.350 9
  21117890.884     -602682.364 6   -450265.466 7
  21718483.126   -10328966.442 6  -7802650.979 6
  22015180.696    -8584519.945 6  -6486436.011 6
 95  2 12 16 34 29.9970000  0  6 25  1 14 15 22 29
  20720169.212    -1058914.166 7   -802931.225 9
  23979932.618      329190.166 5    251900.212 2
  20285770.407    -9455589.499 7  -7254967.288 9
  21118916.673     -597274.221 6   -446051.379 7
  21690338.063   -10476879.572 6  -7917907.917 6
  21991174.306    -8710656.205 6  -6584723.992 6
 95  2 12 16 34 59.9970000  0  5 25 14 15 22 29
  20719428.188    -1062801.153 7   -805960.082 9
  20260845.235    -9586574.383 7  -7357033.443 9
  21120015.962     -591495.006 6   -441548.137 7
  21662238.298   -10624544.212 6  -8032971.228 6
  21967180.587    -8836733.013 6  -6682965.660 6
 95  2 12 16 35 29.9970000  0  5 25 14 15 22 29
  20718745.657    -1066380.052 7   -808748.864 9
  20235973.610    -9717280.537 7  -7458882.402 9
  21121190.774     -585345.916 6   -436756.691 7
  21634189.017   -10771950.862 6  -8147833.508 6
  21943203.978    -8962737.512 6  -6781150.962 6
 95  2 12 16 35 59.9970000  0  5 25 14 15 22 29
  20718126.306    -1069651.112 7   -811297.772 9
  20211153.962    -9847702.453 7  -7560509.877 9
  21122425.860     -578831.190 6   -431680.324 7
  21606189.563   -10919085.443 6  -8262483.781 6
  21919243.938    -9088667.746 6  -6879278.415 6
 95  2 12 16 36 29.9970000  0  5 25 14 15 22 29
  20717560.728    -1072610.694 7   -813603.980 9
  20186390.063    -9977842.726 7  -7661917.893 9
  21123735.384     -571956.431 6   -426323.418 7
  21578245.696   -11065933.085 6  -8376910.476 6
  21895292.345    -9214532.913 6  -6977355.147 6
 95  2 12 16 36 59.9970000  0  5 25 14 15 22 29
  20717061.220    -1075251.743 7   -815661.975 9
  20161681.978   -10107690.245 7  -7763097.786 9
  21125113.017     -564719.111 6   -420684.000 7
  21550353.189   -11212488.593 6  -8491109.523 6
  21871352.720    -9340323.787 6  -7075374.001 6
 95  2 12 16 37 29.9970000  0  5 25 14 15 22 29
  20716612.946    -1077580.617 7   -817476.717 9
  20137028.337   -10237246.756 7  -7864050.920 9
  21126556.962     -557120.830 6   -414763.309 7
  21522521.110   -11358757.377 6  -8605085.147 6
  21847432.501    -9466042.197 6  -7173336.381 6
 95  2 12 16 37 59.9970000  0  5 25 14 15 22 29
  20716229.595    -1079608.403 7   -819056.844 9
  20112430.767   -10366501.661 7  -7964769.040 9
  21128075.728     -549158.043 6   -408558.572 7
  21494745.384   -11504717.908 6  -8718820.594 6
  21823516.321    -9591695.063 6  -7271247.694 6
 95  2 12 16 38 29.9970000  0  5 25 14 15 22 29
  20715901.079    -1081358.545 7   -820420.624 9
  20087891.985   -10495453.667 7  -8065251.127 9
  21129654.837     -540839.434 6   -402076.594 7
  21467033.907   -11650374.290 6  -8832319.026 6
  21799621.157    -9717282.731 6  -7369108.201 6
 95  2 12 16 38 59.9970000  0  5 25 14 15 22 29
  20715615.454    -1082839.986 7   -821575.027 9
  20063411.415   -10624090.735 7  -8165487.813 9
  21131309.384     -532166.272 6   -395318.334 7
  21439368.024   -11795743.159 6  -8945593.427 6
  21775736.649    -9842805.880 6  -7466918.439 6
 95  2 12 16 39 29.9970000  0  5 25 14 15 22 29
  20715385.306    -1084059.020 7   -822524.959 9
  20038997.321   -10752394.814 7  -8265465.033 9
  21133027.478     -523140.979 6   -388285.684 7
  21411761.712   -11940818.981 6  -9058639.484 6
  21751857.899    -9968270.566 6  -7564683.121 6
 95  2 12 16 39 59.9960000  0  5 25 14 15 22 29
  20715205.145    -1085013.355 7   -823268.632 9
  20014647.965   -10880354.977 7  -8365174.260 9
  21134805.629     -513771.679 6   -380984.982 7
  21384212.473   -12085586.232 6  -9171445.097 6
  21727991.410   -10093674.601 6  -7662400.545 6
 95  2 12 16 40 29.9960000  0  5 25 14 15 22 29
  20715073.801    -1085676.865 7   -823785.684 9
  19990360.277   -11007981.106 7  -8464623.205 9
  21136654.012     -504061.160 6   -373418.396 7
  21356718.090   -12230066.601 6  -9284027.171 6
  21704139.098   -10219022.333 6  -7760074.080 6
 95  2 12 16 40 59.9960000  0  5 25 14 15 22 29
  20715005.887    -1086045.569 7
  19966140.793   -11135260.566 7  -8563802.014 9
  21138570.379     -494017.790 6   -365592.439 7
  21329279.848   -12374254.005 6  -9396380.953 6
  21680294.738   -10344323.350 6  -7857711.233 6
 95  2 12 16 41 29.9960000  0  5 25 14 15 22 29
  20714989.770    -1086126.339 7
  19941986.465   -11262193.477 7  -8662710.785 9
  21140541.316     -483651.179 6   -357514.610 7
  21301900.160   -12518126.397 6  -9508489.269 6
  21656458.363   -10469575.998 6  -7955310.702 6
 95  2 12 16 41 59.9960000  0  5 25 14 15 22 29
  20715029.574    -1085915.159 7
  19917897.441   -11388778.940 7  -8761348.825 9
  21142573.105     -472958.551 6   -349182.748 7
  21274584.613   -12661678.525 6  -9620348.024 6
  21632645.246   -10594763.446 6  -8052859.364 6
 95  2 12 16 42 29.9960000  0  5 25 14 15 22 29
  20715125.746    -1085422.528 7   -823587.629 9
  19893873.676   -11515021.054 7  -8859719.319 9
  21144669.059     -461945.433 6   -340601.150 7
  21247325.113   -12804931.111 6  -9731973.377 6
  21608831.168   -10719882.491 6  -8150354.727 6
 95  2 12 16 42 59.9960000  0  5 25 14 15 22 29
  20715271.082    -1084660.640 7   -822993.989 9
  19869918.918   -11640908.106 7  -8957813.139 9
  21146828.762     -450604.323 6   -331763.978 7
  21220128.012   -12947852.344 6  -9843340.531 6
  21585045.027   -10844914.174 6  -8247782.018 6
 95  2 12 16 43 29.9960000  0  5 25 14 15 22 29
  20715465.426    -1083637.410 7   -822196.705 9
  19846026.270   -11766456.108 7  -9055642.757 9
  21149049.199     -438940.787 6   -322675.559 7
  21192994.730   -13090445.254 6  -9954451.854 6
  21561266.520   -10969852.064 6  -8345136.220 6
 95  2 12 16 43 59.9960000  0  5 25 14 15 22 29
  20715708.285    -1082350.665 7   -821194.076 8
  19822199.816   -11891663.239 7  -9153206.773 9
  21151329.473     -426955.703 6   -313336.592 6
  21165923.738   -13232712.677 6 -10065309.538 6
  21537513.059   -11094694.846 6  -8442416.312 6
 95  2 12 16 44 29.9960000  0  5 25 14 15 22 29
  20716008.309    -1080799.044 7   -819985.058 9
  19798439.465   -12016527.786 7
  21153670.918     -414655.323 6   -303751.941 6
  21138914.488   -13374644.465 6 -10175905.690 6
  21513770.613   -11219463.008 6
 95  2 12 16 44 59.9960000  0  5 25 14 15 22 29
  20716347.598    -1078994.695 7   -818579.107 9
  19774744.145   -12141044.420 7  -9347529.802 9
  21156069.363     -402045.355 6   -293926.055 6
  21111967.684   -13516224.605 6 -10286227.833 6
  21490036.043   -11344174.820 6  -8636816.781 6
 95  2 12 16 45 29.9960000  0  5 25 14 15 22 29
  20716739.887    -1076940.407 7   -816978.402 9
  19751118.520   -12265216.952 7  -9444287.624 9
  21158526.418     -389132.291 6   -283863.994 7
  21085092.926   -13657460.511 6 -10396281.740 6
  21466312.988   -11468841.518 6  -8733959.668 7
 95  2 12 16 45 59.9960000  0  5 25 14 15 22 29
  20717179.145    -1074628.319 7   -815176.817 9
  19727552.332   -12389049.899 7  -9540780.857 9
  21161040.184     -375914.800 6   -273564.710 6
  21058283.824   -13798338.898 6 -10506057.076 6
  21442596.777   -11593469.511 6  -8831072.407 6
 95  2 12 16 46 29.9960000  0  5 25 14 15 22 29
  20717667.582    -1072070.962 7   -813184.099 9
  19704050.371   -12512558.475 7  -9637021.320 9
  21163612.387     -362400.516 6   -263034.155 6
  21031544.715   -13938852.914 6 -10615548.480 6
  21418881.184   -11718059.897 6  -8928155.819 6
 95  2 12 16 46 59.9960000  0  5 25 14 15 22 29
  20718200.043    -1069272.746 7   -811003.723 8
  19680606.996   -12635753.310 7  -9733017.311 9
  21166241.074     -348591.621 6   -252274.045 6
  21004875.231   -14079006.434 6 -10724758.976 7
  21395187.332   -11842584.135 6  -9025187.702 6
 95  2 12 16 47 29.9960000  0  5 25 14 15 22 29
  20718776.660    -1066220.109 7   -808625.077 8
  19657224.332   -12758636.465 7  -9828770.436 9
  21168926.559     -334490.251 6   -241286.029 6
  20978270.777   -14218799.669 6 -10833688.740 7
  21371504.895   -11967026.902 6  -9122156.094 6
 95  2 12 16 47 59.9960000  0  5 25 14 15 22 29
  20719408.223    -1062911.652 7   -806047.100 8
  19633902.379   -12881188.983 7  -9924265.914 9
  21171666.973     -320100.522 6   -230073.321 6
  20951737.371   -14358242.181 6 -10942345.205 7
  21347839.605   -12091398.386 6  -9219068.960 6
 95  2 12 16 48 29.9960000  0  5 25 14 15 22 29
  20720085.488    -1059355.553 7   -803276.151 8
  19610648.684   -13003379.238 7 -10019479.109 9
  21174457.231     -305423.243 6   -218636.547 6
  20925267.574   -14497347.195 6 -11050738.689 7
  21324191.941   -12215695.761 6  -9315924.062 6
 95  2 12 16 48 59.9960000  0  5 25 14 15 22 29
  20720806.691    -1055556.330 7   -800315.754 8
  19587471.465   -13125181.487 7 -10114389.970 9
  21177302.777     -290463.531 6   -206979.696 6
  20898856.277   -14636133.371 6 -11158883.737 6
  21300542.637   -12339932.941 6  -9412732.261 7
 95  2 12 16 49 29.9960000  0  5 25 14 15 22 29
  20721575.785    -1051516.457 7   -797167.833 8
  19564372.941   -13246573.124 7 -10208980.867 9
  21180204.488     -275220.708 6   -195102.240 6
  20872507.582   -14774592.740 6 -11266774.130 7
  21276911.129   -12464124.558 6  -9509504.942 6
 95  2 12 16 49 59.9960000  0  5 25 14 15 22 29
  20722390.785    -1047247.947 7   -793841.764 8
  19541352.246   -13367551.813 7 -10303249.982 9
  21183160.254     -259692.411 6   -183002.338 6
  20846223.441   -14912715.146 6 -11374401.957 6
  21253291.254   -12588266.647 6  -9606239.052 6
 95  2 12 16 50 29.9960000  0  5 25 14 15 22 29
  20723242.270    -1042759.443 7   -790344.256 8
  19518404.980   -13488132.366 7 -10397208.868 9
  21186166.918     -243877.132 6   -170678.813 6
  20820007.809   -15050479.459 6 -11481750.744 7
  21229683.902   -12712327.831 6  -9702910.109 7
 95  2 12 16 50 59.9960000  0  5 25 14 15 22 29
  20724140.699    -1038041.507 7   -786667.979 8
  19495529.715   -13608330.247 7 -10490869.566 9
  21189233.285     -227776.954 6   -158133.289 6
  20793869.621   -15187861.581 6 -11588801.733 7
  21206094.004   -12836300.909 6  -9799512.515 7
 95  2 12 16 51 29.9950000  0  5 25 14 15 22 29
  20725085.577    -1033079.734 7   -782801.692 8
  19472728.249   -13728152.938 7 -10584237.904 9
  21192350.460     -211386.891 6   -145361.886 6
  20767803.280   -15324824.469 6 -11695526.033 7
  21182518.460   -12960174.636 6  -9896037.506 7
 95  2 12 16 51 59.9950000  0  5 25 14 15 22 29
  20726077.687    -1027861.755 7   -778735.777 8
  19449997.038   -13847611.442 7 -10677322.469 9
  21195524.452     -194703.585 6   -132361.976 6
  20741822.147   -15461367.382 6 -11801923.088 7
  21158966.593   -13083949.266 6  -9992485.266 7
 95  2 12 16 52 29.9950000  0  5 25 14 15 22 29
  20727125.733    -1022354.020 7   -774444.070 8
  19427339.007   -13966678.320 7 -10770101.862 9
  21198759.210     -177719.115 6   -119127.401 6
  20715923.093   -15597473.050 6 -11907979.433 7
  21135431.155   -13207610.846 6 -10088844.940 7
 95  2 12 16 52 59.9950000  0  5 25 14 15 22 29
  20728236.296    -1016535.923 7   -769910.525 8
  19404758.812   -14085337.683 7 -10862563.715 9
  21202046.077     -160429.551 6   -105655.082 6
  20690107.210   -15733129.322 6 -12013685.601 7
  21111924.991   -13331169.423 6 -10185124.368 7
 95  2 12 16 53 29.9950000  0  5 25 14 15 22 29
  20729393.343    -1010423.932 7   -765147.972 8
  19382257.819   -14203579.748 7 -10954700.393 9
  21205399.069     -142838.519 6    -91947.859 6
  20664375.804   -15868343.453 6 -12119047.240 7
  21088430.030   -13454620.321 6 -10281319.882 6
 95  2 12 16 53 59.9950000  0  5 25 14 15 22 29
  20730611.374    -1004037.979 7   -760171.949 8
  19359838.624   -14321401.555 7 -11046509.599 9
  21208798.437     -124959.267 6    -78016.059 6
  20638726.062   -16003136.382 6 -12224080.673 7
  21064962.718   -13577960.980 6 -10377429.486 7
 95  2 12 16 54 29.9950000  0  5 25 14 15 22 29
  20731876.077     -997391.611 7   -754993.006 8
  19337501.882   -14438788.718 7 -11137980.124 9
  21212258.140     -106793.382 6    -63860.893 6
  20613155.577   -16137502.593 6 -12328781.604 7
  21041506.194   -13701186.865 6 -10473449.666 7
 95  2 12 16 54 59.9950000  0  5 25 14 15 22 29
  20733189.163     -990504.516 7   -749626.483 8
  19315248.233   -14555729.952 7 -11229103.172 9
  21215766.147      -88335.731 6    -49478.373 6
  20587670.405   -16271432.230 6 -12433142.350 7
  21018082.741   -13824290.561 6 -10569374.634 7
 95  2 12 16 55 29.9950000  0  5 25 14 15 22 29
  20734539.726     -983384.576 7   -744078.530 8
  19293080.343   -14672217.904 7 -11319873.012 9
  21219336.640      -69588.701 6    -34870.378 6
  20562266.022   -16404935.498 6 -12537170.851 7
  20994682.062   -13947262.058 6 -10665196.584 7
 95  2 12 16 55 59.9950000  0  5 25 14 15 22 29
  20735942.882     -976013.103 7   -738334.573 8
  19271003.452   -14788241.324 7 -11410280.881 9
  21222957.327      -50549.596 6    -20034.787 6
  20536940.296   -16538000.829 6 -12640858.123 7
  20971314.624   -14070099.692 6 -10760914.229 7
 95  2 12 16 56 29.9950000  0  5 25 14 15 22 29
  20737393.874     -968385.458 7   -732390.997 8
  19249012.218   -14903800.745 7 -11500327.197 9
  21226636.624      -31221.231 6     -4973.811 6
  20511705.140   -16670622.213 6 -12744199.447 7
  20947961.319   -14192803.419 6 -10856527.531 7
 95  2 12 16 56 59.9950000  0  5 25 14 15 22 29
  20738897.226     -960489.859 7   -726238.632 8
  19227109.116   -15018907.001 7 -11590020.393 9
  21230370.655      -11605.127 6     10311.393 6
  20486551.944   -16802804.680 6 -12847198.759 7
  20924627.983   -14315386.107 6 -10952046.517 7
 95  2 12 16 57 29.9950000  0  5 25 14 15 22 29
  20740457.132     -952316.109 7   -719869.524 8
  19205290.452   -15133558.988 7 -11679359.618 9
  21234158.148        8305.416 6     25826.027 6
  20461483.991   -16934533.133 6 -12949844.293 7
  20901330.358   -14437845.186 6 -11047469.185 7
 95  2 12 16 57 59.9950000  0  5 25 14 15 22 29
  20742061.437     -943885.256 7   -713300.075 8
  19183555.749   -15247770.137 7 -11768355.329 9
  21238002.632       28494.915 6     41558.016 6
  20436508.140   -17065803.203 6 -13052132.653 7
  20878044.210   -14560212.209 6 -11142820.125 7
 95  2 12 16 58 29.9950000  0  5 25 14 15 22 29
  20743709.421     -935202.252 7   -706534.147 8
  19161906.780   -15361542.175 7 -11857008.876 9
  21241896.452       48969.502 6     57512.162 6
  20411616.233   -17196599.105 6 -13154051.529 7
  20854772.976   -14682489.338 6 -11238101.023 7
 95  2 12 16 58 59.9950000  0  5 25 14 15 22 29
  20745408.257     -926281.341 7   -699582.837 8
  19140339.101   -15474875.571 7 -11945320.621 9
  21245843.804       69720.306 6     73681.538 6
  20386820.983   -17326915.618 6 -13255596.849 7
  20831517.812   -14804689.559 6 -11333321.990 7
 95  2 12 16 59 29.9950000  0  5 25 14 15 22 29
  20747150.882     -917123.128 7   -692446.606 8
  19118860.983   -15587742.636 7 -12033268.996 9
  21249847.585       90743.227 6     90062.961 6
  20362116.171   -17456734.733 6 -13356754.599 7
  20808283.733   -14926791.870 6 -11428466.670 7
 95  2 12 16 59 59.9950000  0  5 25 14 15 22 29
  20748942.194     -907724.851 7   -685123.337 8
  19097474.358   -15700137.156 7 -12120849.153 9
  21253898.866      112030.980 6    106650.731 6
  20337503.687   -17586062.068 6 -13457529.133 7
  20785067.632   -15048784.932 6 -11523526.193 7
 95  2 12 17  0 29.9950000  0  5 25 14 15 22 29
  20750774.866     -898079.323 7   -677607.382 8
  19076174.577   -15812052.505 7 -12208055.932 9
  21257997.960      133582.761 6    123444.254 6
  20312987.429   -17714903.497 6 -13557925.045 7
  20761880.585   -15170647.679 6 -11618484.183 7
 95  2 12 17  0 59.9950000  0  5 25 14 15 22 29
  20752660.335     -888176.294 7   -669890.768 8
  19054974.655   -15923476.042 7 -12294879.481 9
  21262148.022      155393.233 6    140439.341 6
  20288558.148   -17843265.013 6 -13657947.002 7
  20738721.765   -15292357.409 6 -11713322.936 7
 95  2 12 17  1 29.9950000  0  6 25 18 14 15 22 29
  20754589.437     -878033.562 7   -661987.386 8
  23162888.194          -0.72113
  19033860.093   -16034432.908 7 -12381339.391 9
  21266346.327      177443.552 6    157621.322 6
  20264221.733   -17971166.623 6 -13757610.584 7
  20715586.874   -15413914.898 6 -11808043.068 7
 95  2 12 17  1 59.9950000  0  6 25 18 14 15 22 29
  20756561.358     -867673.365 7   -653914.540 8
  23134690.929     -148177.163 3
  19012827.593   -16144964.051 7 -12467467.567 9
  21270580.327      199717.438 6    174977.513 6
  20239968.437   -18098623.500 6 -13856927.611 7
  20692481.468   -15535339.207 6 -11902659.415 7
 95  2 12 17  2 29.9940000  0  6 25 18 14 15 22 29
  20758579.479     -857087.355 7   -645665.735 7
  23106495.127     -296318.492 2
  18991876.916   -16255054.934 7 -12553252.685 9
  21274864.408      222223.360 6    192514.515 6
  20215805.846   -18225608.000 7 -13955876.554 7
  20669406.002   -15656619.223 6 -11997163.328 7
 95  2 12 17  2 59.9940000  0  6 25 18 14 15 22 29
  20760633.018     -846269.313 7   -637236.126 7
  23078314.760     -444433.746 3        -0.20011
  18971014.244   -16364694.438 7 -12638686.080 9
  21279194.861      244969.454 6    210238.655 6
  20191729.033   -18352106.152 7 -14054446.540 8
  20646349.299   -15777764.014 6 -12091561.871 7
 95  2 12 17  3 29.9940000  0  6 25 18 14 15 22 29
  20762733.314     -835229.895 7   -628634.013 7
  23050130.205     -592525.101 3   -115396.098 1
  18950237.213   -16473870.354 7 -12723758.237 9
  21283571.361      267955.117 6    228149.474 6
  20167752.783   -18478104.581 7 -14152627.116 8
  20623325.635   -15898791.685 6 -12185869.148 7
 95  2 12 17  3 59.9940000  0  6 25 18 14 15 22 29
  20764875.775     -823964.553 7   -619855.854 7
  23021954.799     -740599.007 3   -230778.309 1
  18929552.283   -16582571.556 7 -12808460.485 9
  21287988.096      291171.866 6    246240.357 6
  20143872.752   -18603603.133 7 -14250418.179 8
  20600309.885   -16019726.131 6 -12280103.785 7
 95  2 12 17  4 29.9940000  0  6 25 18 14 15 22 29
  20767067.947     -812464.017 7   -610894.434 7
  22993787.369     -888635.004 3   -346131.078 1
  18908964.346   -16690766.826 7 -12892768.505 9
  21292447.838      314620.746 6    264512.115 6
  20120081.307   -18728603.815 7 -14347821.288 8
  20577312.838   -16140576.478 6 -12374272.881 7
 95  2 12 17  4 59.9940000  0  6 25 18 14 15 22 29
  20769303.729     -800733.087 7   -601753.482 7
  22965626.486    -1036616.612 3   -461441.427 1
  18888474.604   -16798448.273 7 -12976676.142 9
  21296953.580      338302.591 6    282965.421 6
  20096392.807   -18853105.438 7 -14444835.516 8
  20554333.072   -16261337.277 6 -12468372.207 7
 95  2 12 17  5 29.9940000  0  6 25 18 14 15 22 29
  20771579.822     -788772.786 7   -592433.809 7
  22937477.666    -1184557.170 3   -576719.800 2
  18868078.424   -16905628.071 7 -13060192.881 9
  21301505.604      362207.990 6    301592.919 6
  20072793.650   -18977121.470 7 -14541471.364 8
  20531365.408   -16382003.396 6 -12562397.751 7
 95  2 12 17  5 59.9940000  0  6 25 18 14 15 22 29
  20773894.307     -776594.330 7   -582944.137 7
  22909324.190    -1332454.469 3   -691964.416 2
  18847775.541   -17012316.497 7 -13143326.733 9
  21306096.041      386326.669 6    320386.616 6
  20049285.814   -19100659.816 7 -14637734.992 7
  20508421.713   -16502575.725 7 -12656350.222 7
 95  2 12 17  6 29.9940000  0  6 25 18 14 15 22 29
  20776248.119     -764218.062 7   -573300.327 7
  22881193.143    -1480309.412 3   -807176.083 2
  18827562.229   -17118520.460 7 -13226083.083 9
  21310723.893      410658.173 6    339346.138 6
  20025867.135   -19223719.455 7 -14733625.592 7
  20485500.189   -16623046.678 7 -12750223.697 7
 95  2 12 17  6 59.9940000  0  6 25 18 14 15 22 29
  20778643.072     -751646.859 7   -563504.619 7
  22853061.479    -1628124.444 3   -922356.616 2
  18807443.783   -17224245.905 7 -13308466.554 9
  21315396.533      435208.398 6    358476.084 6
  20002548.010   -19346282.387 7 -14829129.151 7
  20462595.658   -16743392.314 6 -12843999.517 7
 95  2 12 17  7 29.9940000  0  6 25 18 14 15 22 29
  20781072.939     -738869.586 7   -553548.331 7
  22824947.127    -1775896.092 3  -1037503.416 1
  18787416.604   -17329487.346 7 -13390472.885 9
  21320111.666      459979.964 5    377778.512 6
  19979317.705   -19468345.643 6 -14924243.346 7
  20439721.174   -16863617.424 6 -12937681.427 7
 95  2 12 17  7 59.9940000  0  6 25 18 14 15 22 29
  20783541.885     -725896.874 7   -543439.760 7
  22796837.525    -1923614.249 3  -1152608.463 1
  18767481.799   -17434244.477 7 -13472101.833 9
  21324865.596      484968.709 5    397250.163 6
  19956189.354   -19589893.290 7 -15018955.768 8
  20416868.549   -16983727.672 7 -13031273.825 8
 95  2 12 17  8 29.9940000  0  6 25 18 14 15 22 29
  20786051.666     -712719.058 7   -533171.375 7
  22768734.236    -2071292.980 3  -1267682.796 2
  18747642.299   -17538512.163 7 -13553349.394 9
  21329660.643      510170.173 5    416887.571 6
  19933161.346   -19710911.436 7 -15113255.582 7
  20394031.135   -17103705.737 6 -13124763.231 7
 95  2 12 17  8 59.9940000  0  6 25 18 14 15 22 29
  20788595.588     -699339.526 7   -522745.806 7
  22740638.361    -2218942.381 3  -1382734.271 1
  18727896.119   -17642289.140 7 -13634214.590 9
  21334492.916      535567.638 5    436677.697 6
  19910226.768   -19831407.159 7 -15207148.331 7
  20371223.291   -17223557.266 7 -13218154.025 8
 95  2 12 17  9 29.9940000  0  6 25 18 14 15 22 29
  20791175.713     -685759.372 7   -512163.913 7
  22712545.268    -2366568.269 3  -1497767.421 3
  18708242.479   -17745578.347 7 -13714699.697 9
  21339362.643      561152.623 5    456613.953 6
  19887392.893   -19951382.461 7
  20348442.143   -17343288.145 7
 95  2 12 17  9 59.9940000  0  6 25 18 14 15 22 29
  20793801.291     -671978.966 6   -501425.983 7
  22684453.580    -2514180.891 3  -1612790.235 3
  18688677.791   -17848375.445 7 -13794801.346 9
  21344267.877      586923.737 5    476695.247 6
  19864669.549   -20070818.930 7 -15393702.899 8
  20325681.486   -17462892.014 7 -13404648.640 8
 95  2 12 17 10 29.9940000  0  6 25 18 14 15 22 29
  20796461.807     -657996.045 6   -490530.248 7
  22656363.393    -2661779.128 3  -1727801.836 2
  18669211.127   -17950672.198 7 -13874513.129 9
  21349207.900      612877.695 5    496919.006 5
  19842043.939   -20189728.942 7 -15486360.023 8
  20302941.986   -17582373.938 6 -13497751.443 7
 95  2 12 17 10 59.9940000  0  6 25 18 14 15 22 29
  20799162.182     -643814.803 6   -479479.980 7
  22628286.268    -2809349.432 3  -1842791.708 3
  18649836.502   -18052477.901 7 -13953842.258 9
  21354179.994      639012.582 5    517283.749 5
  19819514.525   -20308125.061 7 -15578616.715 8
  20280230.010   -17701750.082 7 -13590771.821 7
 95  2 12 17 11 29.9940000  0  6 25 18 14 15 22 29
  20801892.572     -629439.727 6   -468278.676 7
  22600208.861    -2956909.043 3  -1957773.225 2
  18630558.940   -18153803.590 7 -14032797.359 9
  21359183.900      665317.073 5    537780.660 5
  19797076.557   -20426012.591 7 -15670477.107 8
  20257528.580   -17821033.335 7 -13683719.813 7
 95  2 12 17 11 59.9940000  0  6 25 18 14 15 22 29
  20804670.190     -614868.429 7   -456924.464 7
  22572129.447    -3104442.680 3  -2072734.520 3
  18611373.283   -18254627.479 7 -14111361.447 9
  21364225.143      691793.931 5    558411.867 5
  19774741.940   -20543388.476 7 -15761938.817 8
  20234846.486   -17940216.554 7 -13776589.874 8
 95  2 12 17 12 29.9940000  0  6 25 18 14 15 22 29
  20807478.518     -600118.768 6   -445431.272 7
  22544067.775    -3251935.926 3  -2187664.322 2
  18592279.111   -18354957.735 7 -14189540.895 9
  21369295.705      718437.228 5    579172.773 5
  19752504.408   -20660268.965 7 -15853014.504 8
  20212187.065   -18059294.064 7 -13869377.546 8
 95  2 12 17 12 59.9940000  0  6 25 18 14 15 22 29
  20810317.822     -585205.837 6   -433810.858 7
  22515999.158    -3399396.361 3  -2302568.574 2
  18573276.533   -18454802.945 7 -14267342.386 9
  21374394.369      745240.442 5    600058.280 6
  19730356.541   -20776655.150 7 -15943705.029 8
  20189550.479   -18178262.642 7 -13962080.345 8
 95  2 12 17 13 29.9940000  0  6 25 18 14 15 22 29
  20813182.994     -570133.069 6   -422065.907 7
  22487951.682    -3546815.551 3  -2417440.673 2
  18554375.760   -18554149.033 7 -14344754.929 9
  21379525.158      772204.427 5    621069.063 5
  19708303.252   -20892527.404 7 -16033995.084 8
  20166933.104   -18297116.015 7 -14054693.359 8
 95  2 12 17 13 59.9930000  0  6 25 18 14 15 22 29
  20816078.575     -554909.053 6   -410203.104 7
  22459913.013    -3694172.877 3  -2532264.625 2
  18535565.521   -18652996.868 7 -14421779.240 9
  21384688.849      799325.855 5    642202.523 5
  19686354.458   -21007879.049 7 -16123879.479 8
  20144331.388   -18415859.152 7 -14147220.498 8
 95  2 12 17 14 29.9930000  0  6 25 18 14 15 22 29
  20819003.927     -539538.069 6   -398225.767 7
  22431877.505    -3841486.728 3  -2647054.621 3
  18516845.802   -18751353.443 7 -14498420.753 9
  21389876.052      826603.606 5    663457.788 5
  19664502.411   -21122704.702 7 -16213353.999 8
  20121767.591   -18534501.838 7 -14239669.346 7
 95  2 12 17 14 59.9930000  0  6 25 18 14 15 22 29
  20821961.060     -524005.732 6   -386122.695 7
  22403848.419    -3988775.528 3  -2761825.134 3
  18498225.005   -18849210.955 7 -14574673.382 9
  21395097.817      854030.484 5    684829.276 5
  19642756.349   -21236993.334 7 -16302410.069 8
  20099200.380   -18653054.599 6 -14332048.135 8
 95  2 12 17 15 29.9930000  0  6 25 18 14 15 22 29
  20824949.685     -508307.093 6   -373890.038 7
  22375820.403    -4136050.702 3  -2876584.996 4
  18479698.966   -18946566.596 7 -14650534.947 9
  21400344.380      881601.537 5    706313.102 5
  19621108.661   -21350735.841 7 -16391040.584 8
  20076658.778   -18771520.403 7 -14424359.157 7
 95  2 12 17 15 59.9930000  0  6 25 18 14 15 22 29
  20827964.286     -492451.942 6   -361535.429 7
  22347797.356    -4283324.693 3  -2991343.954 2
  18461264.849   -19043420.611 7 -14726005.612 9
  21405617.419      909310.829 5    727904.633 5
  19599570.474   -21463943.356 7 -16479254.231 8
  20054132.481   -18889889.270 7 -14516594.652 8
 95  2 12 17 16 29.9930000  0  6 25 18 14 15 22 29
  20831015.927     -476443.970 6   -349061.750 7
  22319772.364    -4430602.598 3  -3106105.941 2
  18442934.935   -19139763.873 7 -14801078.325 9
  21410915.341      937155.805 5    749601.892 5
  19578126.817   -21576617.256 7 -16567052.066 8
  20031629.481   -19008150.743 7 -14608746.463 8
 95  2 12 17 16 59.9930000  0  6 25 18 14 15 22 29
  20834088.036     -460286.347 6   -336471.465 7
  22291745.747    -4577879.689 5  -3220867.312 3
  18424695.317   -19235608.467 7 -14875762.453 9
  21416237.333      965126.082 5    771396.792 5
  19556788.786   -21688763.355 7 -16654438.636 8
  20009138.942   -19126312.598 7 -14700820.653 8
 95  2 12 17 17 29.9930000  0  6 25 18 14 15 22 29
  20837188.567     -443983.924 6   -323768.346 7
  22263723.200    -4725130.882 4  -3335608.509 4
  18406553.364   -19330948.029 7 -14950053.043 9
  21421584.981      993223.890 5    793291.075 5
  19535546.810   -21800368.938 7 -16741404.017 8
  19986679.255   -19244357.364 7 -14792803.597 8
 95  2 12 17 17 59.9930000  0  6 25 18 14 15 22 29
  20840314.567     -427532.598 6   -310949.186 7
  22235710.075    -4872337.804 4  -3450315.186 5
  18388506.583   -19425775.732 7 -15023944.786 9
  21426955.474     1021447.036 5    815283.003 5
  19514412.380   -21911431.975 7 -16827946.642 8
  19964236.942   -19362287.909 7 -14884697.546 8
 95  2 12 17 18 29.9930000  0  6 25 18 14 15 22 29
  20843477.778     -410916.026 6   -298001.268 7
  22207710.052    -5019505.227 5  -3564991.087 3
  18370560.638   -19520100.642 7 -15097444.743 9
  21432349.481     1049786.757 5    837365.774 5
  19493383.013   -22021940.886 7 -16914057.476 8
  19941816.856   -19480115.953 7 -14976511.620 8
 95  2 12 17 18 59.9930000  0  6 25 18 14 15 22 29
  20846678.896     -394124.188 6   -284916.788 7
  22179706.411    -5166633.599 5  -3679636.587 2
  18352705.216   -19613914.477 7 -15170546.460 9
  21437763.099     1078243.568 5    859539.776 5
  19472459.560   -22131888.043 7 -16999730.583 8
  19919422.060   -19597833.795 7 -15068239.827 8
 95  2 12 17 19 29.9930000  0  6 25 18 14 15 22 29
  20849902.028     -377162.381 6   -271699.861 7
  22151715.856    -5313731.269 5  -3794258.142 4
  18334955.052   -19707197.384 7 -15243234.464 9
  21443200.317     1106821.263 5    881807.966 5
  19451646.161   -22241280.395 7 -17084971.373 8
  19897040.981   -19715432.747 7 -15159875.385 8
 95  2 12 17 19 59.9930000  0  6 25 18 14 15 22 29
  20853162.896     -360040.397 6   -258358.121 7
  22123730.216    -5460814.402 5  -3908868.348 4
  18317306.161   -19799935.653 7 -15315498.075 9
  21448661.474     1135510.883 5    904163.379 5
  19430932.099   -22350127.822 7 -17169787.548 8
  19874683.849   -19832917.121 7 -15251421.667 8
 95  2 12 17 20 29.9930000  0  6 25 18 14 15 22 29
  20856450.771     -342776.119 6   -244905.517 7
  22095742.177    -5607892.088 5  -4023474.349 4
  18299765.958   -19892126.444 7 -15387335.078 9
  21454142.114     1164305.343 5    926600.481 5
  19410319.153   -22458441.081 7 -17254187.481 8
  19852348.849   -19950283.117 7 -15342875.704 8
 95  2 12 17 20 59.9930000  0  6 25 18 14 15 22 29
  20859756.067     -325402.122 6   -231367.411 7
  22067751.731    -5754970.889 4  -4138081.216 3
  18282323.333   -19983769.795 7 -15458745.508 9
  21459640.403     1193196.909 5    949113.246 5
  19389809.263   -22566231.592 7 -17338180.078 8
  19830038.841   -20067541.117 7 -15434245.579 8
 95  2 12 17 21 29.9930000  0  6 25 18 14 15 22 29
  20863079.606     -307913.523 6   -217740.002 7
  22039767.966    -5902032.826 4  -4252674.928 3
  18264992.396   -20074864.570 7 -15529728.476 9
  21465157.247     1222189.406 5    971704.652 5
  19369399.614   -22673484.885 7 -17421754.069 8
  19807740.153   -20184683.549 7 -15525525.399 8
 95  2 12 17 21 59.9930000  0  6 25 18 14 15 22 29
  20866434.341     -290306.925 6   -204020.644 6
  22011790.239    -6049065.719 5  -4367246.028 3
  18247752.278   -20165433.578 7 -15600301.750 9
  21470692.192     1251281.451 5    994373.616 5
  19349097.903   -22780181.511 7 -17504894.290 8
  19785471.333   -20301716.206 7 -15616719.696 8
 95  2 12 17 22 29.9930000  0  6 25 18 14 15 22 29
  20869805.700     -272591.629 6   -190216.581 6
  21983814.958    -6196074.743 5  -4481798.508 5
  18230616.966   -20255515.424 7 -15670495.423 9
  21476247.583     1280459.896 5   1017109.920 5
  19328895.216   -22886325.690 7 -17587604.049 8
  19763213.802   -20418660.924 7 -15707845.457 8
 95  2 12 17 22 59.9930000  0  6 25 18 14 15 22 29
  20873196.169     -254760.160 6   -176322.005 6
  21955844.935    -6343056.095 4  -4596329.439 4
  18213561.036   -20345121.192 7 -15740318.126 9
  21481814.200     1309723.663 5   1039912.715 5
  19308810.685   -22991905.163 7 -17669873.774 8
  19740979.075   -20535522.887 7 -15798906.740 8
 95  2 12 17 23 29.9930000  0  6 25 18 14 15 22 29
  20876611.294     -236800.960 6   -162327.887 6
  21927879.716    -6490007.319 4  -4710836.866 2
  18196601.106   -20434253.145 7 -15809771.623 9
  21487401.349     1339070.201 5   1062779.980 5
  19288820.114   -23096920.268 7 -17751703.723 8
  19718759.271   -20652299.570 7 -15889901.571 8
 95  2 12 17 23 59.9930000  0  6 25 18 14 15 22 29
  20880058.474     -218720.197 6   -148239.050 6
  21899917.396    -6636937.169 4  -4825327.678 2
  18179733.622   -20522905.704 7 -15878851.566 9
  21492998.536     1368491.622 5   1085705.607 5
  19268941.903   -23201377.218 7 -17833098.752 8
  19696550.747   -20768996.744 7 -15980834.450 8
 95  2 12 17 24 29.9930000  0  6 25 18 14 15 22 29
  20883520.521     -200506.898 6   -134046.945 6
  21871965.638    -6783840.357 4  -4939797.695 2
  18162959.341   -20611050.888 7 -15947536.150 9
  21498609.739     1397989.715 5   1108690.968 5
  19249173.130   -23305281.417 7 -17914063.060 9
  19674362.060   -20885602.556 7 -16071696.131 8
 95  2 12 17 24 59.9930000  0  6 25 18 14 15 22 29
  20887007.396     -182180.865 6   -119766.994 6
  21844014.731    -6930726.839 4  -5054254.692 3
  18146282.630   -20698680.743 7 -16015819.179 9
  21504236.817     1427554.594 5   1131728.384 5
  19229504.763   -23408645.454 7 -17994606.470 9
  19652189.138   -21002116.152 7 -16162485.962 8
 95  2 12 17 25 29.9920000  0  6 25 18 14 15 22 29
  20890515.469     -163745.981 6   -105402.209 6
  21816065.359    -7077588.819 5  -5168692.588 3
  18129708.703   -20785770.585 7 -16083681.421 9
  21509876.813     1457186.544 5   1154818.042 5
  19209938.586   -23511467.477 7 -18074727.512 8
  19630032.883   -21118525.379 7 -16253194.460 8
 95  2 12 17 25 59.9920000  0  6 25 18 14 15 22 29
  20894044.625     -145199.903 6    -90950.802 6
  21788124.469    -7224423.266 5  -5283109.035 2
  18113240.078   -20872318.911 7 -16151121.700 9
  21515527.805     1486888.876 5   1177962.552 5
  19190471.172   -23613743.905 7 -18154423.435 8
  19607908.414   -21234832.236 7 -16343823.190 8
 95  2 12 17 26 29.9920000  0  6 25 18 14 15 22 29
  20897591.086     -126560.422 6    -76426.602 6
  21760188.789    -7371231.170 5  -5397504.816 3
  18096876.453   -20958327.156 7 -16218141.138 9
  21521190.641     1516654.161 5   1201156.102 5
  19171113.906   -23715471.002 7 -18233691.312 8
  19585794.320   -21351033.305 7 -16434369.498 8
 95  2 12 17 26 59.9920000  0  6 25 18 14 15 22 29
  20901159.688     -107823.420 6    -61826.416 6
  21732257.891    -7518014.932 4  -5511881.776 1
  18080611.031   -21043790.292 7 -16284735.811 9
  21526869.484     1546485.038 5   1224400.779 5
  19151863.555   -23816629.533 7 -18312516.151 8
  19563702.867   -21467120.398 7 -16524826.991 8
 95  2 12 17 27 29.9920000  0  6 25 18 14 15 22 29
  20904744.313      -88970.009 6    -47135.520 6
  21704327.406    -7664774.285 4  -5626239.710 2
  18064451.102   -21128707.034 7 -16350904.724 9
  21532560.219     1576378.622 5   1247694.305 5
  19132727.516   -23917206.764 7 -18390888.021 9
  19541632.633   -21583094.405 7 -16615196.353 8
 95  2 12 17 27 59.9920000  0  6 25 18 14 15 22 29
  20908354.258      -69998.549 6    -32352.644 6
  21676409.469    -7811508.789 5  -5740578.303 3
  18048391.523   -21213087.309 7 -16416655.618 9
  21538258.500     1606332.675 5   1271034.948 5
  19113702.399   -24017196.375 7 -18468802.003 9
  19519591.789   -21698941.483 7 -16705466.823 8
 95  2 12 17 28 29.9920000  0  6 25 18 14 15 22 29
  20911984.094      -50909.620 6    -17478.232 6
  21648487.922    -7958228.784 5  -5854905.579 2
  18032439.078   -21296924.130 7 -16481983.032 9
  21543969.563     1636345.317 5   1294421.259 5
  19094784.086   -24116605.683 7 -18546263.811 8
  19497569.438   -21814653.793 7 -16795632.276 8
 95  2 12 17 28 59.9920000  0  6 25 18 14 15 22 29
  20915644.274      -31699.046 6     -2509.041 6
  21620573.906    -8104926.487 5  -5969215.455 2
  18016588.023   -21380227.162 7 -16546894.512 9
  21549691.234     1666412.412 5   1317849.981 5
  19075977.500   -24215428.715 7 -18623268.777 9
  19475573.453   -21930239.245 7 -16885698.877 9
 95  2 12 17 29 29.9920000  0  6 25 18 14 15 22 29
  20919319.313      -12386.319 6     12539.765 6
  21592661.227    -8251600.446 5  -6083506.839 4
  18000837.055   -21462997.355 7 -16611390.796 8
  21555422.969     1696525.358 5   1341314.442 4
  19057278.977   -24313683.353 7 -18699830.832 9
  19453607.484   -22045702.303 7 -16975670.118 8
 95  2 12 17 29 59.9920000  0  6 25 18 14 15 22 29
  20923007.641        7015.140 6     27657.703 6
  21564752.203    -8398256.109 5  -6197783.976 4
  17985189.547   -21545239.216 7 -16675475.391 9
  21561157.875     1726675.346 5   1364807.758 4
  19038687.656   -24411379.365 7 -18775957.604 9
  19431648.891   -22161053.533 7 -17065554.210 8
 95  2 12 17 30 29.9920000  0  6 25 18 14 15 22 29
  20926720.774       26504.947 6     42844.481 6
  21536845.820    -8544897.555 5  -6312050.021 3
  17969639.633   -21626944.856 7 -16739142.151 8
  21566904.820     1756857.687 5   1388326.278 4
  19020204.359   -24508506.552 7 -18851641.133 9
  19409718.805   -22276316.761 7 -17155369.729 9
 95  2 12 17 30 59.9920000  0  6 25 18 14 15 22 29
  20930449.024       46090.124 6     58105.583 6
  21508946.703    -8691521.072 5  -6426302.097 2
  17954197.586   -21708100.739 7 -16802380.527 8
  21572652.578     1787072.826 5   1411870.374 4
  19001831.594   -24605057.946 7 -18926875.994 9
  19387798.094   -22391497.939 7 -17245121.310 9
 95  2 12 17 31 29.9920000  0  6 25 18 14 15 22 29
  20934191.633       65773.456 6     73443.159 6
  21481046.813    -8838143.931 5  -6540553.646 5
  17938858.914   -21788703.591 7 -16865187.972 8
  21578408.164     1817315.560 5   1435435.961 3
  18983566.617   -24701050.514 7 -19001675.403 9
  19365896.313   -22506588.961 7 -17334802.642 8
 95  2 12 17 31 59.9920000  0  6 25 18 14 15 22 29
  20937960.977       85557.096 6     88858.915 6
  21453143.266    -8984757.605 4  -6654798.052 4
  17923626.359   -21868758.660 7 -16927568.577 8
  21584168.984     1847586.924 5   1459023.867 3
  18965409.344   -24796467.119 7 -19076026.016 9
  19344010.313   -22621586.953 7 -17424411.479 9
 95  2 12 17 32 29.9920000  0  6 25 18 14 15 22 29
  20941743.766      105431.183 6    104345.120 6
  21425250.602    -9131355.268 5  -6769029.985 4
  17908497.367   -21948259.369 7 -16989517.210 8
  21589935.188     1877885.356 5   1482632.833 3
  18947361.688   -24891308.072 7 -19149928.071 9
  19322148.625   -22736488.559 7 -17513945.210 9
 95  2 12 17 32 59.9920000  0  6 25 18 14 15 22 29
  20945539.445      125386.317 6    119894.502 6
  21397356.399    -9277934.951 5  -6883247.903 4
  17893470.961   -22027216.216 7 -17051042.059 8
  21595704.414     1908205.323 5   1506258.602 4
  18929423.266   -24985581.242 7 -19223387.696 9
  19300303.328   -22851283.120 7 -17603395.537 9
 95  2 12 17 33 29.9920000  0  6 25 18 14 15 22 29
  20949346.656      145404.924 6    135493.337 6
  21369466.750    -9424492.933 5  -6997448.880 4
  17878542.555   -22105653.436 7 -17112161.995 8
  21601476.008     1938537.622 5   1529893.958 4
  18911595.148   -25079278.334 7 -19296398.420 9
  19278481.766   -22965966.459 7 -17692759.191 8
 95  2 12 17 33 59.9920000  0  6 25 18 14 15 22 29
  20953170.414      165483.027 6    151138.545 6
  21341586.984    -9571004.743 5  -7111613.907 5
  17863719.102   -22183551.283 7 -17172861.642 8
  21607252.695     1968884.550 5   1553540.750 2
  18893878.508   -25172377.021 7 -19368942.854 9
  19256677.922   -23080541.924 7 -17782038.786 9
 95  2 12 17 34 29.9920000  0  6 25 18 14 15 22 29
  20957000.813      185623.238 6    166832.141 6
  21313710.438    -9717494.936 5  -7225762.089 4
  17848999.141   -22260909.141 7 -17233140.520 8
  21613027.484     1999233.848 5   1577189.376 4
  18876274.563   -25264886.950 7 -19441028.526 9
  19234892.828   -23195011.520 7 -17871235.882 9
 95  2 12 17 34 59.9920000  0  6 25 18 14 15 22 29
  20960850.891      205844.645 6    182588.992 6
  21285839.039    -9863947.876 5  -7339881.249 5
  17834386.727   -22337717.411 7 -17292991.149 8
  21618804.859     2029596.535 4   1600848.397 4
  18858781.688   -25356788.260 7 -19512639.942 9
  19213139.891   -23309346.251 7 -17960327.883 9
 95  2 12 17 35 29.9920000  0  6 25 18 14 15 22 29
  20964709.070      226146.251 6    198408.368 6
  21257972.953   -10010363.913 5  -7453971.678 5
  17819875.281   -22413970.288 7 -17352409.007 8
  21624584.453     2059961.923 4   1624509.552 3
  18841404.836   -25448094.528 7 -19583787.684 9
  19191410.984   -23423541.412 7 -18049311.135 9
 95  2 12 17 35 59.9920000  0  6 25 18 14 15 22 29
  20968594.500      246539.219 6    214298.910 6
  21230122.047   -10156749.126 5  -7568038.062 4
  17805469.984   -22489654.876 7 -17411384.036 8
  21630366.172     2090333.965 4   1648175.884 4
  18824144.758   -25538815.286 7 -19654479.192 9
  19169705.070   -23537595.698 7 -18138184.612 9
 95  2 12 17 36 29.9920000  0  7 25 18 14 15 19 22 29
  20972491.664      267018.869 6    230256.999 6
  21202270.289   -10303122.152 5  -7682094.954 5
  17791170.859   -22564795.681 7 -17469935.335 8
  21636142.953     2120704.626 5   1671841.127 4
  22235790.391          -0.18313
  18806992.797   -25628972.728 7 -19724731.756 9
  19148028.984   -23651499.146 7 -18226940.555 9
 95  2 12 17 36 59.9910000  0  7 25 18 14 15 19 22 29
  20976398.776      287571.805 6    246272.204 6
  21174416.308   -10449469.494 5  -7796131.833 5
  17776978.972   -22639402.793 7 -17528070.781 8
  21641918.495     2151065.835 5   1695499.016 3
  22205253.495     -160491.049 3        -0.45111
  18789936.667   -25718576.000 7 -19794552.495 9
  19126381.362   -23765263.509 7 -18315588.115 9
 95  2 12 17 37 29.9910000  0  7 25 18 14 15 19 22 29
  20980320.542      308190.765 6    262338.836 6
  21146570.386   -10595818.055 5  -7910169.671 5
  17762880.909   -22713478.562 7 -17585792.183 8
  21647695.823     2181417.255 5   1719149.264 4
  22174738.605     -320855.545 3   -124959.793 2
  18772989.261   -25807631.576 7 -19863946.454 9
  19104751.964   -23878917.675 7 -18404149.808 9
 95  2 12 17 37 59.9910000  0  7 25 18 14 15 19 22 29
  20984256.323      328861.933 6    278446.155 6
  21118719.245   -10742174.274 5  -8024213.481 5
  17748881.878   -22787028.767 7 -17643104.058 8
  21653467.026     2211752.473 5   1742786.887 5
  22144250.933     -481064.416 3   -249797.907 3
  18756152.487   -25896127.051 7 -19932903.982 9
  19083141.526   -23992481.270 7 -18492640.929 9
 95  2 12 17 38 29.9910000  0  7 25 18 14 15 19 22 29
  20988206.073      349591.076 6    294598.661 6
  21090870.206   -10888520.534 5  -8138249.489 5
  17734991.003   -22860042.661 7 -17699998.044 8
  21659236.534     2242066.923 5   1766408.325 4
  22113794.519     -641101.862 3   -374502.402 2
  18739423.550   -25984033.517 7 -20001402.555 9
  19061546.706   -24105963.122 7 -18581068.361 9
 95  2 12 17 38 59.9910000  0  7 25 18 14 15 19 22 29
  20992157.612      370381.700 5    310799.056 6
  21063027.894   -11034847.845 5  -8252270.773 5
  17721200.855   -22932506.428 7 -17756463.336 8
  21665001.628     2272356.604 5   1790010.467 2
  22083374.628     -800965.449 3   -499071.454 2
  18722808.784   -26071327.722 7 -20069424.012 9
  19039966.339   -24219383.226 7 -18669447.666 9
 95  2 12 17 39 29.9910000  0  7 25 18 14 15 19 22 29
  20996123.831      391227.670 5    327042.579 6
  21035182.675   -11181161.779 5  -8366281.626 5
  17707511.659   -23004423.436 7 -17812502.587 8
  21670759.315     2302606.353 4   1813581.503 3
  22052985.355     -960661.489 3   -623509.945 4
  18706320.901   -26158006.581 7 -20136965.991 9
  19018392.167   -24332746.166 7 -18757782.430 9
 95  2 12 17 39 59.9910000  0  7 25 18 14 15 19 22 29
  21000100.589      412135.992 5    343334.685 6
  21007348.136   -11327437.979 5  -8480263.066 5
  17693937.253   -23075788.351 7 -17868111.642 8
  21676507.401     2332815.335 4   1837120.745 4
  22022626.191    -1120190.811 3   -747818.527 4
  18689938.800   -26244059.314 7 -20204020.078 9
  18996834.003   -24446037.015 7 -18846061.021 9
 95  2 12 17 40 29.9910000  0  7 25 18 14 15 19 22 29
  21004094.886      433109.114 5    359677.285 6
  20979520.120   -11473668.847 5  -8594209.182 5
  17680457.253   -23146600.625 7 -17923290.070 8
  21682248.823     2362982.156 4   1860627.150 4
  21992300.581    -1279566.181 4   -872007.126 4
  18673685.370   -26329489.868 7 -20270589.360 9
  18975292.987   -24559244.124 7 -18934274.361 9
 95  2 12 17 40 59.9910000  0  7 25 18 14 15 19 22 29
  21008090.081      454118.413 5    376048.068 6
  20951698.480   -11619877.187 5  -8708137.744 5
  17667091.292   -23216869.002 7 -17978044.675 8
  21687977.589     2393099.506 3   1884095.008 4
  21961997.894    -1438798.118 3   -996083.970 5
  18657539.198   -26414333.307 7 -20336701.143 9
  18953763.878   -24672359.222 7 -19022416.007 9
 95  2 12 17 41 29.9910000  0  7 25 18 14 15 19 22 29
  21012095.128      475144.465 5    392431.897 6
  20923877.159   -11766073.517 5  -8822056.962 4
  17653816.722   -23286599.164 7 -18032379.903 8
  21693698.847     2423165.013 3   1907522.430 4
  21931724.073    -1597893.038 3  -1120054.016 5
  18641505.003   -26498602.773 7 -20402365.680 9
  18932262.948   -24785375.691 7 -19110480.801 9
 95  2 12 17 41 59.9910000  0  7 25 18 14 15 19 22 29
  21016097.933      496177.364 6    408821.082 6
  20896059.308   -11912269.021 5  -8935975.525 4
  17640652.261   -23355795.517 7 -18086299.170 8
  21699411.698     2453175.291 4   1930906.827 4
  21901470.167    -1756870.635 3  -1243932.657 4
  18625569.253   -26582317.766 7 -20467598.162 9
  18910773.769   -24898294.890 7 -19198469.793 9
 95  2 12 17 42 29.9910000  0  7 25 18 14 15 19 22 29
  21020097.394      517214.136 6    425213.263 6
  20868231.011   -12058480.231 5  -9049906.332 5
  17627584.175   -23424462.630 7 -18139806.038 8
  21705109.269     2483123.548 3   1954242.910 3
  21871240.847    -1915741.139 3  -1367727.869 4
  18609745.089   -26665496.922 7 -20532413.097 9
  18889303.386   -25011111.612 7 -19286378.939 9
 95  2 12 17 42 59.9910000  0  7 25 18 14 15 19 22 29
  21024100.198      538266.252 6    441617.405 6
  20840408.136   -12204708.364 5  -9163850.297 5
  17614619.065   -23492591.638 7 -18192893.610 8
  21710800.737     2513013.740 3   1977533.716 2
  21841026.839    -2074502.075 3  -1491437.695 3
  18594020.706   -26748129.807 7 -20596802.380 9
  18867860.042   -25123809.602 7 -19374195.555 9
 95  2 12 17 43 29.9910000  0  7 25 18 14 15 19 22 29
  21028118.558      559354.099 6    458049.410 6
  20812583.472   -12350940.945 5  -9277797.732 5
  17601759.495   -23560180.495 7 -18245560.276 8
  21716469.378     2542840.203 3   2000774.873 3
  21810836.456    -2233153.019 3  -1615061.810 4
  18578399.315   -26830211.959 7 -20660762.519 9
  18846436.120   -25236385.830 7 -19461917.301 9
 95  2 12 17 43 59.9910000  0  7 25 18 14 15 19 22 29
  21032138.464      580489.092 6    474518.123 6
  20784752.542   -12497173.702 5  -9391745.319 5
  17588997.503   -23627226.657 7 -18297804.068 8
  21722136.175     2572593.529 3   2023959.022 2
  21780668.042    -2391679.913 3  -1738589.237 5
  18562889.284   -26911740.773 7 -20724291.487 9
  18825035.933   -25348834.983 7 -19549540.024 9
 95  2 12 17 44 29.9910000  0  7 25 18 14 15 19 22 29
  21036171.175      601660.663 6    491015.346 6
  20756926.331   -12643413.013 5  -9505698.002 5
  17576345.886   -23693733.671 7 -18349627.744 8
  21727779.855     2602263.803 4   2047078.486 2
  21750529.409    -2550065.446 3  -1862006.533 4
  18547476.456   -26992701.681 7 -20787377.924 9
  18803661.433   -25461168.349 7 -19637072.531 9
 95  2 12 17 44 59.9910000  0  7 25 18 14 15 19 22 29
  21040208.347      622864.275 6    507537.561 6
  20729101.987   -12789647.858 5  -9619647.214 5
  17563791.558   -23759700.257 7 -18401030.303 8
  21733412.917     2631849.910 4   2070132.343 1
  21720421.386    -2708302.199 3  -1985307.891 4
  18532186.417   -27073075.611 7 -20850006.977 9
  18782303.136   -25573403.754 7 -19724528.698 9
 95  2 12 17 45 29.9910000  0  7 25 18 14 15 19 22 29
  21044246.691      644083.485 5    524071.895 6
  20701272.956   -12935871.382 5  -9733587.607 5
  17551336.542   -23825138.573 7 -18452021.233 8
  21739028.495     2661349.375 4   2093118.699 2
  21690336.347    -2866386.036 3  -2108490.104 3
  18517005.722   -27152855.929 7 -20912173.474 9
  18760961.542   -25685561.029 7 -19811923.986 9
 95  2 12 17 45 59.9910000  0  7 25 18 14 15 19 22 29
  21048282.331      665302.167 5    540605.822 5
  20673447.214   -13082089.793 5  -9847524.024 5
  17538985.909   -23890056.079 7 -18502606.327 8
  21744626.644     2690757.320 4   2116033.731 2
  21660279.964    -3024327.831 4  -2231561.637 2
  18501932.964   -27232035.395 7 -20973871.773 9
  18739629.315   -25797657.179 7 -19899271.644 9
 95  2 12 17 46 29.9910000  0  7 25 18 14 15 19 22 29
  21052322.769      686507.716 6    557129.530 5
  20645621.862   -13228300.410 5  -9961454.368 5
  17526731.565   -23954459.462 7 -18552790.810 8
  21750204.167     2720073.613 4   2138877.352 2
  21630250.261    -3182146.847 3  -2354537.539 2
  18486979.722   -27310611.823 7 -21035100.174 9
  18718308.339   -25909695.956 7 -19986574.602 9
 95  2 12 17 46 59.9910000  0  7 25 18 14 15 19 22 29
  21056349.901      707711.129 5    573651.562 5
  20617805.323   -13374490.113 5 -10075368.390 5
  17514577.245   -24018329.793 7 -18602559.933 8
  21755765.870     2749307.948 3   2161657.071 2
  21600243.128    -3339843.409 4  -2477417.979 2
  18472143.261   -27388585.138 7 -21095858.603 9
  18697006.089   -26021650.110 7 -20073811.607 9
 95  2 12 17 47 29.9910000  0  7 25 18 14 15 19 22 29
  21060385.503      728906.956 5    590167.702 5
  20589989.737   -13520666.092 5 -10189271.751 5
  17502521.401   -24081668.702 7 -18651914.941 8
  21761309.214     2778455.075 3   2184368.830 3
  21570259.792    -3497415.298 5  -2600201.289 2
  18457420.167   -27465977.320 7 -21156164.216 9
  18675717.519   -26133508.210 7 -20160973.772 9
 95  2 12 17 47 59.9910000  0  7 25 18 14 15 19 22 29
  21064416.456      750101.550 5    606682.851 5
  20562173.855   -13666822.559 5 -10303159.905 5
  17490572.026   -24144464.886 7 -18700847.064 8
  21766840.753     2807513.513 4   2207011.472 2
  21540298.730    -3654849.441 5  -2722877.272 4
  18442801.870   -27542796.795 7 -21216023.559 9
  18654455.222   -26245247.293 7 -20248043.204 9
 95  2 12 17 48 29.9900000  0  7 25 18 14 15 19 22 29
  21068449.147      771295.927 5    623197.833 5
  20534369.295   -13812956.340 5 -10417030.378 5
  17478725.959   -24206708.585 7 -18749348.678 8
  21772346.936     2836480.169 4   2229582.609 3
  21510367.123    -3812132.233 5  -2845435.297 5
  18428292.514   -27619043.414 7 -21275436.522 9
  18633217.248   -26356862.041 7 -20335015.745 9
 95  2 12 17 48 59.9900000  0  7 25 18 14 15 19 22 29
  21072488.373      792512.921 5    639730.453 5
  20506563.795   -13959072.356 5 -10530887.007 5
  17466987.209   -24268395.420 7 -18797416.369 8
  21777849.115     2865360.477 3   2252086.451 2
  21480469.498    -3969249.321 5  -2967864.225 4
  18413890.897   -27694725.399 7 -21334409.505 9
  18611999.311   -26468360.534 7 -20421897.700 9
 95  2 12 17 49 29.9900000  0  7 25 18 14 15 19 22 29
  21076533.068      813761.947 5    656288.016 5
  20478767.670   -14105151.130 5 -10644714.626 5
  17455357.959   -24329516.707 7 -18845043.373 8
  21783332.686     2894159.145 3   2274526.698 2
  21450606.303    -4126180.130 5  -3090148.007 3
  18399601.193   -27769821.277 7 -21392925.776 9
  18590803.709   -26579742.382 7 -20508688.765 9
 95  2 12 17 49 59.9900000  0  7 25 18 14 15 19 22 29
  21080588.147      835048.698 5    672874.958 5
  20450974.678   -14251189.483 5 -10758510.730 5
  17443838.279   -24390058.308 7 -18892218.677 8
  21788789.022     2922871.221 3   2296899.428 2
  21420777.436    -4282931.237 5  -3212291.771 3
  18385424.279   -27844313.345 7 -21450971.548 9
  18569629.943   -26691008.803 7 -20595389.887 9
 95  2 12 17 50 29.9900000  0  7 25 18 14 15 19 22 29
  21084643.178      856390.041 5    689504.460 5
  20423197.256   -14397181.469 5 -10872270.696 5
  17432428.576   -24450009.905 7 -18938934.235 8
  21794242.748     2951502.880 3   2319209.525 1
  21390981.975    -4439502.876 3  -3334295.676 4
  18371365.865   -27918179.807 7 -21508529.847 9
  18548479.373   -26802151.780 7 -20681994.819 9
 95  2 12 17 50 59.9900000  0  7 25 18 14 15 19 22 29
  21088721.397      877783.366 5    706174.468 5
  20395422.029   -14543129.974 5 -10985996.793 5
  17421131.983   -24509379.608 7 -18985196.370 8
  21799679.740     2980052.197 4   2341455.494 2
  21361218.733    -4595897.859 4  -3456161.944 4
  18357430.170   -27991415.316 7 -21565596.489 9
  18527358.795   -26913144.273 7 -20768482.485 9
 95  2 12 17 51 29.9900000  0  7 25 18 14 15 19 22 29
  21092795.061      899208.126 5    722868.977 5
  20367653.701   -14689045.195 5 -11099696.945 5
  17409945.607   -24568161.286 7 -19031000.299 8
  21805089.772     3008512.243 3   2363631.810 3
  21331492.350    -4752130.275 3  -3577901.498 5
  18343614.873   -28064016.273 7 -21622168.676 9
  18506267.764   -27023979.305 7 -20854847.458 9
 95  2 12 17 51 59.9900000  0  7 25 18 14 15 19 22 29
  21096880.553      920671.320 5    739593.410 5
  20339891.787   -14834938.349 5 -11213379.910 5
  17398870.084   -24626365.525 7 -19076354.287 8
  21810488.139     3036882.214 3   2385737.982 2
  21301794.467    -4908199.032 3  -3699513.531 5
  18329920.943   -28135986.435 7 -21678249.336 9
  18485205.381   -27134656.043 7 -20941089.080 9
 95  2 12 17 52 29.9900000  0  7 25 18 14 15 19 22 29
  21100969.334      942179.042 5    756352.554 5
  20312134.100   -14980806.177 5 -11327043.129 5
  17387899.725   -24684006.901 7 -19121269.664 8
  21815881.318     3065169.979 3   2407780.063 2
  21272129.733    -5064078.090 3  -3820977.768 5
  18316345.006   -28207331.609 7 -21733842.989 9
  18464176.865   -27245168.740 7 -21027202.882 9
 95  2 12 17 52 59.9900000  0  7 25 18 14 15 19 22 29
  21105067.279      963718.037 5    773136.073 5
  20284385.990   -15126643.227 5 -11440682.368 5
  17377040.717   -24741072.750 7 -19165736.592 8
  21821243.076     3093373.333 3   2429756.369 1
  21242506.936    -5219745.783 4  -3942277.302 4
  18302887.373   -28278062.163 7 -21788957.719 9
  18443176.084   -27355524.820 7 -21113194.641 9
 95  2 12 17 53 29.9900000  0  7 25 18 14 15 19 22 29
  21109179.389      985286.210 6    789942.318 5
  20256637.772   -15272432.980 5 -11554284.740 5
  17366294.107   -24797554.975 7 -19209748.741 8
  21826592.678     3121489.968 3   2451665.130 1
  21212929.529    -5375188.733 4  -4063401.720 3
  18289542.912   -28348179.573 7 -21843594.657 9
  18422202.514   -27465753.161 7 -21199086.859 9
 95  2 12 17 53 59.9900000  0  7 25 18 14 15 19 22 29
  21113283.303     1006884.034 5    806771.671 5
  20228907.686   -15418154.562 5 -11667834.008 5
  17355658.529   -24853457.125 7 -19253308.886 8
  21831927.404     3149520.246 3   2473506.578 2
  21183395.381    -5530396.889 4  -4184343.159 3
  18276314.318   -28417674.130 7 -21897746.270 9
  18401252.475   -27575841.652 7 -21284870.104 9
 95  2 12 17 54 29.9900000  0  7 25 18 14 15 19 22 29
  21117397.311     1028491.926 5    823608.866 5
  20201197.123   -15563785.457 5 -11781312.608 5
  17345133.233   -24908765.878 7 -19296406.637 8
  21837247.412     3177461.308 3   2495278.490 2
  21153899.358    -5685380.174 4  -4305109.365 2
  18263210.420   -28486542.204 7 -21951409.712 9
  18380331.865   -27685778.175 7 -21370534.940 9
 95  2 12 17 54 59.9900000  0  7 25 18 14 15 19 22 29
  21121510.850     1050103.789 5    840449.157 5
  20173501.592   -15709318.519 5 -11894714.979 5
  17334723.318   -24963461.441 7 -19339026.584 8
  21842545.631     3205309.951 4   2516978.416 1
  21124448.217    -5840160.399 4  -4425717.342 2
  18250229.326   -28554771.124 7 -22004575.110 9
  18359438.584   -27795566.909 7 -21456084.609 9
 95  2 12 17 55 29.9900000  0  8 25 18 14 15 19 22 29  4
  21125622.342     1071727.394 5    857298.589 6
  20145825.670   -15854762.417 5 -12008047.850 5
  17324425.061   -25017566.317 7 -19381186.250 8
  21847822.053     3233059.106 3   2538600.821 1
  21095025.928    -5994764.895 5  -4546188.396 3
  18237367.631   -28622366.473 7 -22057246.817 9
  18338574.975   -27905208.052 7 -21541519.270 9
  21898982.209          -0.02012
 95  2 12 17 55 59.9900000  0  8 25 18 14 15 19 22 29  4
  21129744.873     1093376.727 5    874168.048 6
  20118164.756   -16000130.679 5 -12121321.812 5
  17314243.904   -25071085.516 7 -19422889.551 8
  21853084.740     3260705.062 3   2560142.781 1
  21065636.983    -6149209.362 4  -4666534.742 3
  18224621.186   -28689334.353 7 -22109429.576 9
  18317742.654   -28014683.547 7 -21626824.859 9
  21881965.131      -89410.001 2        -0.02413
 95  2 12 17 56 29.9900000  0  8 25 18 14 15 19 22 29  4
  21133869.006     1115047.509 5    891054.237 6
  20090508.897   -16145445.385 5 -12234554.039 5
  17304170.193   -25124029.908 7 -19464144.949 8
  21858322.748     3288237.746 3   2581596.494 2
  21036276.217    -6303506.285 5  -4786766.112 3
  18211992.498   -28755693.269 7 -22161137.831 9
  18296936.537   -28124012.771 7 -21712016.469 9
  21865046.881     -178328.907 3    -69287.505 1
 95  2 12 17 56 59.9900000  0  7 25 18 14 19 22 29  4
  21137993.936     1136756.279 5    907970.013 6
  20062868.225   -16290718.764 5 -12347754.073 5
  17294201.553   -25176395.644 7 -19504949.444 8
  21006945.443    -6457640.518 5  -4906870.699 3
  18199483.881   -28821444.374 7 -22212372.455 9
  18276160.975   -28233194.472 7 -21797093.131 9
  21848223.483     -266752.638 3   -138189.118 2
 95  2 12 17 57 29.9900000  0  7 25 18 14 19 22 29  4
  21142137.912     1158505.650 5    924917.418 5
  20035227.678   -16435957.906 5 -12460927.428 5
  17284346.608   -25228187.139 7 -19545306.478 8
  20977646.490    -6611600.188 5  -5026839.242 5
  18187085.756   -28886588.468 7 -22263134.087 9
  18255419.131   -28342208.993 7 -21882039.515 9
  21831489.264     -354689.844 3   -206711.683 1
 95  2 12 17 57 59.9900000  0  7 25 18 14 19 22 29  4
  21146282.904     1180285.092 5    941888.278 5
  20007592.006   -16581168.469 5 -12574078.520 5
  17274604.865   -25279402.531 7 -19585214.605 8
  20948380.522    -6765383.856 5  -5146670.625 4
  18174803.061   -28951123.291 7 -22313420.961 9
  18234703.084   -28451063.517 7 -21966861.227 9
  21814845.412     -442141.752 3   -274856.101 1
 95  2 12 17 58 29.9900000  0  7 25 18 14 19 22 29  4
  21150432.115     1202080.722 5    958871.758 5
  19979966.029   -16726344.630 5 -12687202.801 5
  17264963.897   -25330035.408 7 -19624668.818 8
  20919150.568    -6918977.327 4  -5266353.818 5
  18162644.475   -29015033.582 7 -22363221.193 9
  18214015.295   -28559774.405 7 -22051571.014 9
  21798301.303     -529099.039 3   -342615.056 2
 95  2 12 17 58 59.9900000  0  7 25 18 14 19 22 29  4
  21154583.350     1223893.625 5    975868.698 5
  19952350.889   -16871492.251 5 -12800304.855 5
  17255442.522   -25380088.837 7 -19663671.518 8
  20889962.709    -7072386.237 4  -5385893.143 5
  18150598.443   -29078321.112 7 -22412536.147 9
  18193354.287   -28668349.533 7 -22136175.019 9
  21781848.061     -615560.011 3   -409987.276 2
 95  2 12 17 59 29.9900000  0  7 25 18 14 19 22 29  4
  21158736.404     1245724.563 5    992879.671 5
  19924736.053   -17016609.130 5 -12913382.934 5
  17246024.592   -25429570.713 7 -19702228.853 8
  20860805.693    -7225614.484 5  -5505291.710 5
  18138675.459   -29140977.440 7 -22461359.247 9
  18172718.545   -28776793.339 7 -22220676.693 9
  21765484.459     -701520.905 3   -476969.842 1
 95  2 12 17 59 59.9890000  0  7 25 18 14 19 22 29  4
  21162899.407     1267582.484 5   1009911.671 5
  19897128.275   -17161665.018 5 -13026413.511 5
  17236721.704   -25478470.790 7 -19740332.833 8
  20831682.001    -7378651.877 5  -5624541.562 5
  18126874.985   -29202991.837 7 -22509682.150 9
  18152108.704   -28885101.246 7 -22305072.470 9
  21749230.728     -786959.799 3   -543545.609 1
 95  2 12 18  0 29.9890000  0  7 25 18 14 19 22 29  4
  21167058.892     1289455.447 5   1026955.398 5
  19869539.821   -17306658.326 5 -13139395.306 5
  17227524.868   -25526788.129 7 -19777982.742 8
  20802593.798    -7531514.604 5  -5743655.308 5
  18115195.728   -29264376.279 7 -22557514.178 9
  18131524.157   -28993268.344 7 -22389358.528 9
  21733066.243     -871880.127 3   -609717.366 1
 95  2 12 18  0 59.9890000  0  7 25 18 14 19 22 29  4
  21171222.220     1311353.751 5   1044018.859 5
  19841961.548   -17451567.444 5 -13252311.481 5
  17218445.517   -25574511.946 7 -19815170.155 8
  20773537.946    -7684186.620 5  -5862620.436 5
  18103630.892   -29325136.319 7 -22604859.658 9
  18110974.282   -29101258.677 7 -22473506.850 9
  21717014.556     -956284.063 3   -675486.692 2
 95  2 12 18  1 29.9890000  0  7 25 18 14 19 22 29  4
  21175388.649     1333255.194 5   1061084.772 5
  19814402.110   -17596388.440 5 -13365159.003 5
  17209473.860   -25621642.792 7 -19851895.520 8
  20744522.837    -7836668.476 5  -5981437.386 5
  18092187.728   -29385279.298 7 -22651724.315 9
  18090460.618   -29209067.902 7 -22557514.046 9
  21701036.087    -1040193.582 3   -740870.770 2
 95  2 12 18  1 59.9890000  0  7 25 18 14 19 22 29  4
  21179563.821     1355158.048 5   1078151.785 5
  19786860.579   -17741114.539 5 -13477932.571 6
  17200622.579   -25668176.990 7 -19888155.961 8
  20715545.485    -7988944.014 5  -6100093.562 5
  18080856.470   -29444812.642 7 -22698113.932 9
  18069979.657   -29316687.936 7 -22641373.819 9
  21685167.540    -1123609.335 3   -805870.078 2
 95  2 12 18  2 29.9890000  0  7 25 18 14 19 22 29  4
  21183730.899     1377060.291 5   1095218.291 5
  19759341.478   -17885751.105 5 -13590636.365 5
  17191875.610   -25714118.651 7 -19923954.685 8
  20686609.735    -8140994.514 5  -6218574.379 5
  18069648.665   -29503731.877 7 -22744025.020 9
  18049536.149   -29424123.798 7 -22725090.081 9
  21669383.251    -1206524.582 3   -870479.419 1
 95  2 12 18  2 59.9890000  0  7 25 18 14 19 22 29  4
  21187892.689     1398950.728 5   1112275.630 5
  19731834.478   -18030324.896 5 -13703291.242 6
  17183245.353   -25759491.430 7 -19959310.121 8
  20657720.009    -8292819.889 5  -6336879.766 5
  18058548.384   -29562041.045 7 -22789460.730 9
  18029122.009   -29531393.868 7 -22808677.151 9
  21653702.892    -1288948.474 3   -934705.869 3
 95  2 12 18  3 29.9890000  0  7 25 18 14 19 22 29  4
  21192057.228     1420829.929 4   1129324.222 5
  19704329.595   -18174840.767 5 -13815900.998 5
  17174717.376   -25804301.712 7 -19994227.251 8
  20628872.649    -8444416.291 5  -6455006.739 5
  18047574.251   -29619727.182 7 -22834410.967 9
  18008741.087   -29638502.502 7 -22892138.427 9
  21638114.657    -1370862.504 3   -998534.983 3
 95  2 12 18  3 59.9890000  0  7 25 18 14 19 22 29  4
  21196218.493     1442701.368 5   1146366.763 5
  19676843.446   -18319298.893 5 -13928465.736 5
  17166293.345   -25848559.386 7 -20028713.783 8
  20600068.970    -8595788.510 5  -6572958.994 5
  18036717.923   -29676787.467 7 -22878873.521 9
  17988388.150   -29745463.221 7 -22975484.448 9
  21622633.056    -1452252.728 3  -1061955.978 1
 95  2 12 18  4 29.9890000  0  7 25 18 14 19 22 29  4
  21200377.884     1464542.671 5   1163385.805 5
  19649358.399   -18463707.008 5 -14040991.524 5
  17157979.189   -25892265.779 7 -20062770.737 8
  20571301.939    -8746953.519 5  -6690749.831 5
  18025973.298   -29733222.945 7 -22922849.216 9
  17968059.446   -29852283.563 7 -23058721.081 9
  21607239.642    -1533123.507 3  -1124972.181 2
 95  2 12 18  4 59.9890000  0  7 25 18 14 19 22 29  4
  21204526.939     1486370.461 5   1180394.335 4
  19621885.853   -18608054.581 5 -14153470.117 6
  17149772.829   -25935398.488 7 -20096380.662 8
  20542577.353    -8897913.238 5  -6808380.675 5
  18015355.509   -29789023.783 7 -22966330.387 9
  17947762.009   -29958944.103 7 -23141833.197 9
  21591952.462    -1613481.557 3  -1187588.887 2
 95  2 12 18  5 29.9890000  0  7 25 18 14 19 22 29  4
  21208682.860     1508211.922 5   1197413.525 4
  19594441.501   -18752324.121 5 -14265887.900 6
  17141674.845   -25977938.548 7 -20129528.789 8
  20513890.970    -9048663.624 5  -6925848.385 4
  18004859.899   -29844188.551 7 -23009315.917 9
  17927496.978   -30065440.314 7 -23224817.252 9
  21576754.493    -1693325.684 3  -1249805.086 1
 95  2 12 18  5 59.9890000  0  7 25 18 14 19 22 29  4
  21212844.079     1530069.501 5   1214445.276 4
  19566997.587   -18896514.925 5 -14378244.324 6
  17133692.181   -26019875.191 7 -20162206.721 8
  20485241.431    -9199211.754 5  -7043158.510 5
  17994484.243   -29898723.656 7 -23051810.802 9
  17907263.704   -30171771.148 7 -23307672.451 9
  21561656.392    -1772668.700 4  -1311630.845 1
 95  2 12 18  6 29.9890000  0  7 25 18 14 19 22 29  4
  21217003.657     1551935.513 5   1231483.566 4
  19539572.603   -19040650.761 6 -14490557.956 6
  17125825.837   -26061215.884 7 -20194420.273 8
  20456630.376    -9349566.877 5  -7160318.241 5
  17984222.532   -29952650.568 7 -23093831.769 9
  17887061.157   -30277927.983 7 -23390392.070 9
  21546646.079    -1851543.828 3  -1373092.040 1
 95  2 12 18  6 59.9890000  0  7 25 18 14 19 22 29  4
  21221172.946     1573831.049 5   1248544.881 2
  19512152.399   -19184724.711 5 -14602823.341 6
  17118072.837   -26101970.297 7 -20226176.984 8
  20428056.157    -9499732.734 5  -7277330.510 5
  17974072.196   -30005970.825 7 -23135380.030 9
  17866893.423   -30383913.759 7 -23472978.394 9
  21531725.017    -1929951.721 3  -1434189.180 2
 95  2 12 18  7 29.9890000  0  7 25 18 14 19 22 29  4
  21225346.931     1595751.178 5   1265625.363 2
  19484751.267   -19328727.718 6 -14715033.457 6
  17110427.407   -26142151.915 7 -20257487.362 9
  20399511.228    -9649702.659 5  -7394190.095 5
  17964039.345   -30058695.111 7 -23176463.886 9
  17846760.204   -30489718.781 7 -23555423.873 9
  21516898.228    -2007880.658 3  -1494913.040 1
 95  2 12 18  7 59.9890000  0  7 25 18 14 19 22 29  4
  21229517.321     1617667.133 5   1282702.597 3
  19457364.837   -19472666.685 6 -14827193.683 6
  17102887.314   -26181778.386 7 -20288365.162 8
  20371012.485    -9799481.450 5  -7510900.731 5
  17954119.110   -30110822.858 7 -23217082.908 9
  17826662.712   -30595336.582 7 -23637723.469 9
  21502158.759    -2085333.393 3  -1555265.846 1
 95  2 12 18  8 29.9890000  0  7 25 18 14 19 22 29  4
  21233681.720     1639570.451 5   1299769.979 4
  19429981.860   -19616540.553 6 -14939303.185 6
  17095449.392   -26220864.542 7 -20318821.932 9
  20342548.868    -9949066.680 5  -7627460.538 5
  17944312.298   -30162355.315 7 -23257238.072 9
  17806596.204   -30700779.633 7 -23719886.886 9
  21487512.751    -2162305.786 3  -1615244.396 2
 95  2 12 18  8 59.9890000  0  7 25 18 14 19 22 29  4
  21237847.509     1661443.143 5   1316813.475 4
  19402615.821   -19760342.451 5 -15051356.617 6
  17088113.634   -26259415.139 7 -20348861.387 9
  20314118.845   -10098462.587 5  -7743872.839 5
  17934619.743   -30213288.150 7 -23296925.999 9
  17786561.040   -30806063.848 7 -23801926.543 9
  21472957.907    -2238790.009 3  -1674842.549 4
 95  2 12 18  9 29.9890000  0  7 25 18 14 19 22 29  4
  21242001.321     1683272.097 5   1333822.933 2
  19375264.243   -19904077.100 6 -15163357.634 6
  17080881.790   -26297414.947 7 -20378471.657 9
  20285728.306   -10247652.635 5  -7860124.748 5
  17925044.056   -30263617.396 7 -23336143.599 9
  17766559.399   -30911176.295 7 -23883832.348 9
  21458491.009    -2314779.568 2  -1734055.208 3
 95  2 12 18  9 59.9890000  0  7 25 18 14 19 22 29  4
  21246142.993     1705048.134 5   1350791.141 3
  19347929.423   -20047749.790 6 -15275310.368 6
  17073759.509   -26334844.529 7 -20407637.591 9
  20257376.056   -10396640.658 5  -7976219.224 5
  17915586.337   -30313317.526 7 -23374870.967 9
  17746586.321   -31016132.063 7 -23965616.071 9
  21444133.415    -2390274.726 3  -1792882.663 1
 95  2 12 18 10 29.9890000  0  7 25 18 14 19 22 29  4
  21250278.790     1726763.267 5   1367711.914 4
  19320602.446   -20191357.891 6 -15387212.771 6
  17066746.298   -26371698.393 7 -20436354.913 9
  20229061.939   -10545432.574 5  -8092160.881 5
  17906243.860   -30362402.595 7 -23413119.074 9
  17726642.376   -31120938.770 7 -24047283.643 9
  21429856.149    -2465283.238 2  -1851330.851 4
 95  2 12 18 10 59.9890000  0  7 25 18 14 19 22 29  4
  21254400.681     1748430.760 5   1384595.493 5
  19293281.524   -20334896.153 6 -15499060.771 6
  17059849.564   -26407948.888 7 -20464602.079 9
  20200786.720   -10694015.919 5  -8207940.022 5
  17897023.173   -30410862.530 7 -23450880.063 9
  17706732.657   -31225571.260 7 -24128815.459 9
  21415671.603    -2539794.943 2  -1909391.973 2
 95  2 12 18 11 29.9880000  0  7 25 18 14 19 22 29  4
  21258517.223     1770074.605 5   1401460.672 5
  19265986.012   -20478354.629 6 -15610846.587 6
  17053065.973   -26443591.994 7 -20492375.958 9
  20172555.012   -10842381.386 5  -8323549.406 5
  17887917.731   -30458705.266 7 -23488160.124 9
  17686856.074   -31330019.961 7 -24210204.068 9
  21401596.059    -2613801.045 3  -1967059.133 2
 95  2 12 18 11 59.9880000  0  6 18 14 19 22 29  4
  19238698.160   -20621735.905 6 -15722572.239 6
  17046394.090   -26478643.244 7 -20519688.653 9
  20144358.293   -10990539.132 5  -8438996.934 5
  17878931.567   -30505940.063 7 -23524966.466 9
  17667013.559   -31434290.282 7 -24291453.681 9
  21387596.317    -2687315.668 2  -2024343.283 2
 95  2 12 18 12 29.9880000  0  6 18 14 19 22 29  4
  19211433.973   -20765036.612 6 -15834235.140 6
  17039831.481   -26513123.904 7 -20546556.729 9
  20116208.059   -11138478.060 5  -8554273.946 5
  17870054.551   -30552594.849 7 -23561320.845 9
  17647209.098   -31538368.956 7 -24372553.956 9
  21373704.434    -2760333.833 3  -2081240.659 2
 95  2 12 18 12 59.9880000  0  6 18 14 19 22 29  4
  19184178.059   -20908262.971 6 -15945840.088 6
  17033377.942   -26547037.868 7 -20572983.232 9
  20088096.770   -11286196.871 5  -8669379.430 5
  17861290.207   -30598660.904 7 -23597216.479 9
  17627435.473   -31642261.308 7 -24453509.045 9
  21359904.910    -2832864.863 3  -2137758.348 2
 95  2 12 18 13 29.9880000  0  6 18 14 19 22 29  4
  19156940.645   -21051408.000 6 -16057381.672 6
  17027027.231   -26580406.893 7 -20598985.097 9
  20060028.418   -11433700.561 5  -8784317.298 5
  17852640.309   -30644122.676 7 -23632641.243 9
  17607704.160   -31745968.426 7 -24534319.800 9
  21346199.504    -2904910.636 3  -2193897.987 1
 95  2 12 18 13 59.9880000  0  6 18 14 19 22 29  4
  19129714.301   -21194474.994 6 -16168862.442 6
  17020784.676   -26613221.160 7 -20624554.687 9
  20031997.481   -11580987.544 5  -8899086.310 5
  17844105.074   -30688963.616 7 -23667582.238 9
  17588006.645   -31849479.519 7 -24614977.809 9
  21332581.199    -2976470.988 3  -2249659.343 4
 95  2 12 18 14 29.9880000  0  6 18 14 19 22 29  4
  19102499.895   -21337459.067 6 -16280278.597 6
  17014652.199   -26645464.912 7 -20649679.723 9
  20004011.817   -11728078.040 5  -9013702.211 5
  17835687.887   -30733179.232 7 -23702035.980 9
  17568344.723   -31952792.418 7 -24695481.380 9
  21319055.567    -3047539.244 3  -2305037.239 1
 95  2 12 18 14 59.9880000  0  6 18 14 19 22 29  4
  19075311.027   -21480357.405 6 -16391627.951 6
  17008623.840   -26677131.927 7 -20674355.349 9
  19976055.762   -11874984.855 5  -9128175.009 5
  17827395.496   -30776771.087 7 -23736003.673 9
  17548723.926   -32055905.783 7 -24775829.466 9
  21305625.035    -3118126.772 3  -2360040.586 1
 95  2 12 18 15 29.9880000  0  6 18 14 19 22 29  4
  19048133.277   -21623172.388 6 -16502912.340 6
  17002702.965   -26708232.900 7 -20698589.908 9
  19948134.285   -12021721.498 5  -9242515.199 5
  17819216.410   -30819764.691 7 -23769505.201 9
  17529138.199   -32158825.780 7 -24856026.876 9
  21292286.559    -3188227.177 3  -2414664.342 1
 95  2 12 18 15 59.9880000  0  6 18 14 19 22 29  4
  19020973.293   -21765890.568 6 -16614121.308 6
  16996897.270   -26738751.066 7 -20722370.331 9
  19920242.231   -12168284.001 5  -9356719.683 5
  17811142.551   -30862179.573 7 -23802555.788 9
  17509590.863   -32261549.273 7 -24936071.169 9
  21279034.777    -3257835.450 3  -2468904.611 2
 95  2 12 18 16 29.9880000  0  6 18 14 19 22 29  4
  18993839.902   -21908495.723 6 -16725242.204 6
  16991203.004   -26768683.530 7 -20745694.363 9
  19892386.082   -12314661.115 5  -9470779.721 5
  17803177.926   -30904021.644 7 -23835160.026 9
  17490080.942   -32364074.514 7 -25015960.974 9
  21265888.262    -3326950.710 3  -2522760.717 1
 95  2 12 18 16 59.9880000  0  6 18 14 19 22 29  4
  18966717.231   -22050987.609 6 -16836274.853 6
  16985614.606   -26798035.576 7 -20768566.122 9
  19864575.348   -12460809.770 5  -9584661.737 5
  17795330.082   -30945276.155 7 -23867306.417 9
  17470608.606   -32466400.474 7 -25095695.500 9
  21252835.957    -3395564.079 3  -2576225.729 2
 95  2 12 18 17 29.9880000  0  6 18 14 19 22 29  4
  18939631.816   -22193373.315 6 -16947224.754 6
  16980137.449   -26826821.622 7 -20790996.839 9
  19836810.801   -12606720.387 5  -9698358.266 5
  17787593.824   -30985936.829 7 -23898990.095 9
  17451172.770   -32568536.697 7 -25175282.180 9
  21239869.973    -3463677.129 3  -2629300.865 1
 95  2 12 18 17 59.9880000  0  6 18 14 19 22 29  4
  18912550.348   -22335659.482 6 -17058097.102 6
  16974770.309   -26855040.690 7 -20812985.762 9
  19809092.418   -12752388.950 5  -9811866.181 5
  17779968.145   -31025996.666 7 -23930205.587 9
  17431772.652   -32670485.549 7 -25254722.846 9
  21226998.613    -3531299.939 3  -2681994.019 1
 95  2 12 18 18 29.9880000  0  6 18 14 19 22 29  4
  18885493.731   -22477852.851 6 -17168897.131 6
  16969504.848   -26882699.508 7 -20834538.126 9
  19781417.520   -12897810.811 5  -9925181.856 5
  17772462.004   -31065447.117 7 -23960946.230 9
  17412407.035   -32772252.478 7 -25334021.758 9
  21214224.934    -3598435.908 3  -2734307.855 1
 95  2 12 18 18 59.9880000  0  6 18 14 19 22 29  4
  18858451.504   -22619969.809 6 -17279637.606 6
  16964341.926   -26909822.441 7 -20855672.914 9
  19753790.215   -13043003.607 5 -10038319.043 5
  17765072.035   -31104287.945 7 -23991211.844 9
  17393075.973   -32873846.539 7 -25413185.973 9
  21201536.473    -3665099.025 3  -2786253.153 2
 95  2 12 18 19 29.9880000  0  6 18 14 19 22 29  4
  18831419.848   -22762008.759 6 -17390317.303 6
  16959288.067   -26936403.213 7 -20876385.239 9
  19726195.309   -13188005.286 5 -10151307.303 5
  17757790.012   -31142537.103 7 -24021016.414 9
  17373774.043   -32975273.071 7 -25492219.643 9
  21188945.817    -3731294.669 3  -2837834.263 1
 95  2 12 18 19 59.9880000  0  6 18 14 19 22 29  4
  18804405.246   -22903967.183 6 -17500934.270 6
  16954330.160   -26962429.588 7 -20896665.568 9
  19698638.113   -13332821.658 5 -10264151.180 5
  17750628.582   -31180193.271 7 -24050358.922 9
  17354507.410   -33076519.514 7 -25571112.987 9
  21176436.793    -3797016.297 3  -2889045.996 2
 95  2 12 18 20 29.9880000  0  6 18 14 19 22 29  4
  18777412.731   -23045830.529 6 -17611477.152 6
  16949487.473   -26987898.009 7 -20916511.129 9
  19671119.449   -13477442.345 5 -10376842.568 5
  17743572.223   -31217252.717 7 -24079236.443 9
  17335280.410   -33177560.895 7 -25649846.540 9
  21164021.793    -3862261.812 3  -2939886.713 1
 95  2 12 18 20 59.9880000  0  6 18 14 19 22 29  4
  18750435.926   -23187606.049 6 -17721951.581 6
  16944745.035   -27012808.583 7 -20935922.007 9
  19643637.043   -13621860.994 5 -10489376.507 5
  17736636.301   -31253718.822 7 -24107651.625 9
  17316093.059   -33278389.175 7 -25728414.042 9
  21151696.035    -3927023.328 3  -2990350.352 2
 95  2 12 18 21 29.9880000  0  6 18 14 19 22 29  4
  18723467.606   -23329283.759 6 -17832349.819 6
  16940118.043   -27037146.261 7 -20954886.464 9
  19616195.348   -13766059.966 5 -10601739.261 5
  17729807.762   -31289588.031 7 -24135601.695 9
  17296950.895   -33378983.614 7 -25806799.335 9
  21139469.543    -3991279.815 3  -3040420.363 1
 95  2 12 18 21 59.9880000  0  6 18 14 19 22 29  4
  18696528.238   -23470874.269 6 -17942680.083 6
  16935584.715   -27060940.146 7 -20973427.193 9
  19588798.691   -13910028.329 5 -10713922.340 5
  17723099.129   -31324861.723 7 -24163087.724 9
  17277852.996   -33479348.090 7 -25885005.435 9
  21127331.707    -4055061.933 3  -3090120.806 2
 95  2 12 18 22 29.9880000  0  6 18 14 19 22 29  4
  18669601.598   -23612384.657 6 -18052947.920 6
  16931160.004   -27084207.719 7 -20991557.809 9
  19561451.231   -14053764.679 5 -10825924.621 6
  17716495.590   -31359553.339 7 -24190120.187 9
  17258791.840   -33579510.385 7 -25963053.999 9
  21115281.426    -4118384.594 3  -3139463.189 2
 95  2 12 18 22 59.9870000  0  6 18 14 19 22 29  4
  18642688.710   -23753817.863 6 -18163155.613 6
  16926831.944   -27106947.131 7 -21009276.868 9
  19534140.921   -14197261.598 5 -10937740.345 5
  17710007.343   -31393654.226 7 -24216692.342 9
  17239770.476   -33679476.083 7 -26040949.371 9
  21103323.335    -4181242.531 3  -3188443.501 3
 95  2 12 18 23 29.9870000  0  6 18 14 19 22 29  4
  18615787.702   -23895175.331 6 -18273304.296 6
  16922604.632   -27129159.996 7 -21026585.632 9
  19506876.093   -14340538.677 5 -11049384.749 5
  17703630.390   -31427170.833 7 -24242809.209 9
  17220780.374   -33779261.183 7 -26118704.010 9
  21091444.069    -4243660.130 3  -3237080.672 2
 95  2 12 18 23 59.9870000  0  6 18 14 19 22 29  4
  18588907.858   -24036440.157 6 -18383380.782 6
  16918482.616   -27150834.541 7 -21043474.930 9
  19479651.749   -14483584.401 5 -11160848.899 5
  17697361.202   -31460101.337 7 -24268469.367 9
  17201824.429   -33878874.522 7 -26196324.815 9
  21079649.952    -4305636.870 3  -3285374.266 1
 95  2 12 18 24 29.9870000  0  6 18 14 19 22 29  4
  18562040.679   -24177601.729 6 -18493376.818 6
  16914464.234   -27171946.168 7 -21059925.585 9
  19452478.069   -14626391.920 5 -11272127.426 5
  17691207.507   -31492442.179 7 -24293670.058 9
  17182904.335   -33978300.569 7 -26273799.684 9
  21067949.366    -4367135.646 3  -3333295.485 3
 95  2 12 18 24 59.9870000  0  6 18 14 19 22 29  4
  18535193.702   -24318658.817 6 -18603291.437 6
  16910553.460   -27192485.200 7 -21075930.068 9
  19425346.390   -14768972.163 5 -11383228.861 5
  17685169.124   -31524189.639 7 -24318408.365 9
  17164023.874   -34077519.442 7 -26351113.109 9
  21056326.132    -4428155.740 2  -3380843.724 1
 95  2 12 18 25 29.9870000  0  6 18 14 19 22 29  4
  18508379.226   -24459603.090 6 -18713118.136 6
  16906753.929   -27212458.494 7 -21091493.715 9
  19398255.734   -14911339.137 5 -11494164.093 5
  17679234.718   -31555357.103 7 -24342694.731 9
  17145184.296   -34176536.183 7 -26428269.029 9
  21044814.187    -4488688.538 3  -3428012.221 1
 95  2 12 18 25 59.9870000  0  6 18 14 19 22 29  4
  18481583.523   -24600435.630 6 -18822857.779 6
  16903063.007   -27231872.095 7 -21106621.237 9
  19371202.148   -15053495.863 5 -11604935.503 6
  17673411.640   -31585950.587 7 -24366533.836 9
  17126380.210   -34275334.439 7 -26505254.708 9
  21033394.898    -4548724.257 3  -3474793.326 2
 95  2 12 18 26 29.9870000  0  6 18 14 19 22 29  4
  18454798.319   -24741172.647 6 -18932522.990 6
  16899469.640   -27250744.646 7 -21121327.163 9
  19344189.304   -15195454.992 5 -11715552.943 5
  17667700.273   -31615975.310 7 -24389929.754 9
  17107624.937   -34373902.847 7 -26582061.278 9
  21022061.991    -4608268.581 3  -3521191.589 1
 95  2 12 18 26 59.9870000  0  6 18 14 19 22 29  4
  18428035.382   -24881799.278 6 -19042102.194 6
  16895974.390   -27269095.809 7 -21135626.815 9
  19317211.444   -15337222.823 5 -11826021.324 5
  17662095.358   -31645442.704 7 -24412891.390 9
  17088909.343   -34472249.620 7 -26658695.138 9
  21010822.640    -4667337.477 4  -3567219.394 1
 95  2 12 18 27 29.9870000  0  6 18 14 19 22 29  4
  18401299.288   -25022300.516 6 -19151583.671 6
  16892580.093   -27286939.064 7 -21149530.699 9
  19290273.671   -15478783.463 5 -11936328.252 6
  17656589.812   -31674363.005 7 -24435426.716 9
  17070234.812   -34570379.696 7 -26735160.153 9
  20999670.765    -4725933.972 4  -3612879.067 1
 95  2 12 18 27 59.9870000  0  6 18 14 19 22 29  4
  18374594.093   -25162672.830 6 -19260964.682 6
  16889283.413   -27304271.930 7 -21163036.874 9
  19263375.437   -15620122.688 5 -12046462.661 6
  17651190.327   -31702735.117 7 -24457534.886 9
  17051604.351   -34668292.132 7 -26811455.570 9
  20988607.069    -4784072.493 4  -3658181.872 2
 95  2 12 18 28 29.9870000  0  6 18 14 19 22 29  4
  18347905.702   -25302908.805 6 -19370239.475 6
  16886086.905   -27321090.090 7 -21176141.980 9
  19236526.179   -15761234.296 5 -12156419.674 5
  17645895.101   -31730549.099 7 -24479208.152 9
  17033009.460   -34766005.457 7 -26887595.848 9
  20977628.358    -4841769.415 4  -3703140.575 2
 95  2 12 18 28 59.9870000  0  6 18 14 19 22 29  4
  18321248.702   -25442995.094 6 -19479397.605 7
  16882983.468   -27337382.250 7 -21188837.217 9
  19209718.976   -15902110.617 5 -12266193.357 6
  17640708.413   -31757809.580 7 -24500450.113 8
  17014452.187   -34863528.352 7 -26963587.729 9
  20966729.296    -4899041.068 4  -3747767.927 2
 95  2 12 18 29 29.9870000  0  6 18 14 19 22 29  4
  18294609.632   -25582957.917 6 -19588459.541 6
  16879983.585   -27353139.098 7 -21201115.323 9
  19182954.898   -16042758.546 5 -12375789.064 5
  17635628.788   -31784511.292 7 -24521256.676 9
  16995929.304   -34960865.546 7 -27039434.917 9
  20955911.296    -4955890.274 4  -3792066.062 2
 95  2 12 18 29 59.9870000  0  6 18 14 19 22 29  4
  18267999.991   -25722811.749 6 -19697436.537 6
  16877088.616   -27368349.479 7 -21212967.617 9
  19156226.444   -16183203.530 5 -12485226.644 6
  17630656.976   -31810644.040 7 -24541619.889 9
  16977441.804   -35058012.452 7 -27115133.828 9
  20945171.929    -5012323.364 4  -3836039.997 2
 95  2 12 18 30 29.9870000  0  6 18 14 19 22 29  4
  18241405.991   -25862566.163 6 -19806336.075 6
  16874296.109   -27383021.593 7 -21224400.481 9
  19129535.648   -16323463.176 5 -12594519.799 6
  17625793.234   -31836212.190 7 -24561543.156 8
  16958993.921   -35154960.864 7 -27190678.064 9
  20934515.499    -5068334.934 3  -3879685.444 2
 95  2 12 18 30 59.9870000  0  6 18 14 19 22 29  4
  18214827.148   -26002232.322 6 -19915166.847 6
  16871603.616   -27397174.789 7 -21235428.996 9
  19102877.163   -16463548.021 5 -12703676.758 6
  17621030.460   -31861235.790 7 -24581042.100 8
  16940584.499   -35251699.700 7 -27266058.995 9
  20923941.249    -5123903.629 4  -3922985.769 3
 95  2 12 18 31 29.9870000  0  6 18 14 19 22 29  4
  18188266.515   -26141818.879 6 -20023935.592 6
  16869006.913   -27410811.790 7 -21246055.279 9
  19076256.226   -16603464.284 5 -12812702.358 6
  17616373.538   -31885711.295 7 -24600113.961 8
  16922218.069   -35348210.386 7 -27341262.147 9
  20913452.702    -5179008.093 3  -3965924.402 1
 95  2 12 18 31 59.9870000  0  6 18 14 19 22 29  4
  18161719.984   -26281308.458 6
  16866509.655   -27423931.622 7 -21256278.575 9
  19049664.148   -16743197.245 5
  17611822.194   -31909636.172 7 -24618756.762 8
  16903900.937   -35444473.599 7 -27416272.465 9
  20903057.374    -5233645.447 3  -4008499.028 2
 95  2 12 18 32 29.9870000  0  6 18 14 19 22 29  4
  18135193.483   -26420697.054 6
  16864113.148   -27436537.316 7 -21266101.251 9
  19023114.968   -16882717.970 5
  17607370.882   -31933021.470 7 -24636979.113 8
  16885628.765   -35540492.592 7 -27491092.480 9
  20892749.796    -5287807.694 3  -4050703.486 2
 95  2 12 18 32 59.9870000  0  6 18 14 19 22 29  4
  18108686.968   -26559999.296 6
  16861810.437   -27448633.126 7 -21275526.610 9
  18996605.913   -17022024.063 5
  17603020.069   -31955876.517 7 -24654788.283 8
  16867401.905   -35636282.842 7 -27565734.252 9
  20882530.405    -5341510.070 3  -4092549.552 1
 95  2 12 18 33 29.9870000  0  6 18 14 19 22 29  4
  18082198.476   -26699202.850 6
  16859610.960   -27460198.129 7 -21284538.357 9
  18970135.757   -17161110.979 5
  17598776.405   -31978188.479 7 -24672174.274 8
  16849216.601   -35731842.923 7 -27640196.672 9
  20872394.999    -5394768.279 3  -4134049.547 2
 95  2 12 18 33 59.9870000  0  6 18 14 19 22 29  4
  18055728.319   -26838288.388 6 -20566639.099 6
  16857508.968   -27471233.544 7 -21293137.439 9
  18943714.601   -17299961.930 5 -13355427.562 6
  17594635.944   -31999949.521 7 -24689130.972 8
  16831074.991   -35827178.200 7 -27714483.921 9
  20862343.569    -5447587.149 3  -4175207.173 2
 95  2 12 18 34 29.9860000  0  6 18 14 19 22 29  4
  18029291.229   -26977243.049 6 -20674915.459 7
  16855508.565   -27481754.386 7 -21301335.547 9
  18917338.635   -17438567.554 5 -13463431.915 6
  17590597.072   -32021162.602 7 -24705660.693 8
  16812976.213   -35922289.564 7 -27788596.695 9
  20852379.432    -5499965.873 3  -4216021.827 1
 95  2 12 18 34 59.9860000  0  6 18 14 19 22 29  4
  18002870.440   -27116065.811 6 -20783089.044 7
  16853603.338   -27491774.210 7 -21309143.263 9
  18891004.275   -17576947.065 6 -13571260.062 6
  17586665.830   -32041824.739 7 -24721761.110 8
  16794921.268   -36017168.216 7 -27862528.124 9
  20842490.869    -5551916.786 3  -4256503.173 1
 95  2 12 18 35 29.9860000  0  6 18 14 19 22 29  4
  17976483.502   -27254739.495 6 -20891146.467 7
  16851792.385   -27501300.959 7 -21316566.754 9
  18864719.893   -17715089.955 6 -13678903.858 6
  17582836.729   -32061932.214 7 -24737429.330 9
  16776913.385   -36111801.652 7 -27936268.479 9
  20832679.783    -5603445.157 3  -4296655.225 1
 95  2 12 18 35 59.9860000  0  6 18 14 19 22 29  4
  17950119.447   -27393269.834 6 -20999092.177 7
  16850072.119   -27510344.692 7 -21323613.870 9
  18838478.580   -17852989.031 6 -13786357.649 6
  17579114.666   -32081489.574 7 -24752668.890 9
  16758952.916   -36206179.801 7 -28009809.910 9
  20822963.150    -5654550.067 3  -4336477.298 2
 95  2 12 18 36 29.9860000  0  6 18 14 19 22 29  4
  17923787.885   -27531662.227 6 -21106930.410 7
  16848439.838   -27518908.319 7 -21330286.880 9
  18812279.643   -17990655.639 6 -13893630.306 6
  17575496.463   -32100500.998 7 -24767483.050 9
  16741042.369   -36300303.762 7 -28083153.272 9
  20813318.619    -5705234.079 3  -4375971.373 3
 95  2 12 18 36 59.9860000  0  6 18 14 19 22 29  4
  17897473.924   -27669923.275 6 -21214666.299 7
  16846904.721   -27526965.239 7 -21336565.063 9
  18786126.041   -18128106.622 6 -14000734.923 6
  17571988.541   -32118961.651 7 -24781868.035 9
  16723181.807   -36394167.456 7 -28156293.821 9
  20803751.650    -5755495.379 3  -4415136.136 2
 95  2 12 18 37 29.9860000  0  6 18 14 19 22 29  4
  17871193.150   -27808043.666 6 -21322292.585 7
  16845475.494   -27534488.695 7 -21342427.550 9
  18760006.127   -18265341.357 6 -14107671.051 6
  17568578.721   -32136874.531 7 -24795826.184 8
  16705365.565   -36487784.940 7 -28229242.523 9
  20794268.416    -5805322.591 3  -4453962.630 1
 95  2 12 18 37 59.9860000  0  6 18 14 19 22 29  4
  17844939.783   -27946008.086 6 -21429797.345 7
  16844147.518   -27541470.154 7 -21347867.706 9
  18733933.252   -18402363.754 6 -14214441.717 6
  17565270.260   -32154236.783 7 -24809355.268 8
  16687597.518   -36581165.457 7 -28302006.566 9
  20784876.275    -5854702.989 3  -4492440.936 2
 95  2 12 18 38 29.9860000  0  6 18 14 19 22 29  4
  17818712.221   -28083822.811 6 -21537185.448 7
  16842919.510   -27547920.008 7 -21352893.629 9
  18707899.447   -18539186.796 6 -14321057.037 6
  17562070.690   -32171064.115 7 -24822467.532 8
  16669867.932   -36674330.073 7 -28374602.381 9
  20775561.775    -5903638.184 3  -4530572.340 1
 95  2 12 18 38 59.9860000  0  6 18 14 19 22 29  4
  17792512.955   -28221496.172 6 -21644463.413 7
  16841790.744   -27553838.707 7 -21357505.660 9
  18681901.783   -18675801.869 6 -14427510.307 6
  17558970.315   -32187373.032 7 -24835175.841 8
  16652179.947   -36767281.964 7 -28447032.442 9
  20766334.455    -5952129.082 3  -4568357.542 1
 95  2 12 18 39 29.9860000  0  5 18 14 19 22 29
  17766343.354   -28359022.995 6 -21751627.179 7
  16840763.963   -27559249.786 7 -21361722.146 8
  18655944.236   -18812192.261 6 -14533788.501 6
  17555961.283   -32203170.559 7 -24847485.652 8
  16634529.979   -36860028.696 7 -28519302.632 9
 95  2 12 18 39 59.9860000  0  5 18 14 19 22 29
  17740196.229   -28496427.429 6 -21858695.593 7
  16839828.986   -27564174.064 7 -21365559.305 9
  18630032.588   -18948357.122 6 -14639890.940 6
  17553052.252   -32218454.170 7 -24859395.010 9
  16616923.369   -36952548.420 7 -28591395.934 9
 95  2 12 18 40 29.9860000  0  5 18 14 19 22 29
  17714070.010   -28633725.749 6 -21965681.309 7
  16838978.963   -27568613.567 7 -21369018.720 9
  18604170.947   -19084293.688 6 -14745815.491 6
  17550239.463   -32233234.908 7 -24870912.522 9
  16599364.783   -37044829.165 7 -28663303.024 9
 95  2 12 18 40 59.9860000  0  5 18 14 19 22 29
  17687964.408   -28770910.772 6 -22072578.736 7
  16838227.854   -27572570.065 7 -21372101.760 9
  18578345.502   -19219997.434 6 -14851558.631 6
  17547525.775   -32247508.456 7 -24882034.798 8
  16581850.846   -37136863.407 7 -28735018.025 9
 95  2 12 18 41 29.9860000  0  5 18 14 19 22 29
  17661881.674   -28907965.312 6 -22179374.500 7
  16837566.947   -27576055.634 7 -21374817.850 8
  18552567.643   -19355469.110 6 -14957120.941 6
  17544907.330   -32261265.565 7 -24892754.669 9
  16564385.072   -37228639.742 7 -28806532.071 9
 95  2 12 18 41 59.9860000  0  5 18 14 19 22 29
  17635828.557   -29044884.160 6 -22286064.533 7
  16836990.994   -27579073.201 7 -21377169.262 9
  18526830.783   -19490708.651 6 -15062502.367 6
  17542387.799   -32274508.598 7 -24903073.964 9
  16546969.533   -37320153.712 7 -28877841.669 9
 95  2 12 18 42 29.9860000  0  5 18 14 19 22 29
  17609805.065   -29181645.424 6 -22392631.764 7
  16836504.565   -27581629.585 7 -21379161.311 9
  18501139.994   -19625709.325 6 -15167697.659 6
  17539963.479   -32287245.147 7 -24912998.595 9
  16529605.721   -37411411.767 7 -28948951.860 9
 95  2 12 18 42 59.9860000  0  5 18 14 19 22 29
  17583814.963   -29318233.722 6 -22499064.210 7
  16836107.354   -27583728.899 7 -21380797.204 9
  18475492.658   -19760474.161 6 -15272709.183 6
  17537635.291   -32299473.400 7 -24922527.148 8
  16512290.041   -37502398.600 7 -29019850.707 9
 95  2 12 18 43 29.9860000  0  5 18 14 19 22 29
  17557850.291   -29454652.437 6 -22605364.523 7
  16835791.955   -27585370.018 7 -21382076.064 9
  18449890.143   -19895014.910 6 -15377546.099 6
  17535407.400   -32311189.764 7 -24931656.832 8
  16495030.971   -37593106.638 7 -29090532.311 9
 95  2 12 18 43 59.9860000  0  5 18 14 19 22 29
  17531922.088   -29590917.752 7 -22711545.293 7
  16835571.549   -27586533.763 7 -21382982.946 8
  18424329.533   -20029346.363 6 -15482219.924 6
  17533271.471   -32322399.427 7 -24940391.679 8
  16477822.533   -37683531.670 7 -29160993.396 9
 95  2 12 18 44 29.9860000  0  5 18 14 19 22 29
  17506022.736   -29727030.544 7 -22817607.233 7
  16835442.010   -27587209.012 7 -21383509.177 9
  18398808.010   -20163475.086 6 -15586735.764 6
  17531236.650   -32333095.439 7 -24948726.287 9
  16460670.986   -37773666.032 7 -29231227.985 9
 95  2 12 18 44 59.9860000  0  5 18 14 19 22 29
  17480149.322   -29862994.533 7 -22923553.209 7
  16835412.697   -27587384.243 7
  18373317.580   -20297408.538 6 -15691099.448 6
  17529300.986   -32343271.150 7 -24956655.458 8
  16443571.775   -37863522.358 7 -29301245.926 9
 95  2 12 18 45 29.9860000  0  5 18 14 19 22 29
  17454304.330   -29998813.461 7 -23029386.148 7
  16835470.611   -27587053.072 7
  18347873.932   -20431138.521 6 -15795304.590 6
  17527468.627   -32352920.779 7 -24964174.694 8
  16426520.658   -37953127.570 7 -29371068.189 9
 95  2 12 18 45 59.9850000  0  5 18 14 19 22 29
  17428486.614   -30134481.161 7 -23135101.245 7
  16835636.732   -27586209.835 7 -21382730.787 9
  18322463.263   -20564645.366 6 -15899335.868 6
  17525726.341   -32362056.558 7 -24971293.534 8
  16409516.591   -38042486.996 7 -29440698.930 9
 95  2 12 18 46 29.9850000  0  5 18 14 19 22 29
  17402702.583   -30269993.580 7 -23240695.324 7
  16835888.325   -27584871.460 7 -21381687.975 9
  18297101.044   -20697928.493 6 -16003192.816 6
  17524086.497   -32370684.123 7 -24978016.367 8
  16392552.802   -38131626.640 7 -29510158.415 9
 95  2 12 18 46 59.9850000  0  5 18 14 19 22 29
  17376944.794   -30405341.870 7 -23346161.531 7
  16836236.716   -27583039.255 7 -21380260.351 9
  18271780.575   -20830983.444 6 -16106871.961 6
  17522538.935   -32378811.800 7 -24984349.676 8
  16375632.036   -38220543.189 7 -29579444.058 9
 95  2 12 18 47 29.9850000  0  5 18 14 19 22 29
  17351217.153   -30540539.531 7 -23451510.362 7
  16836673.567   -27580738.843 7 -21378467.892 9
  18246503.653   -20963818.467 6 -16210379.740 6
  17521085.403   -32386451.011 7 -24990302.365 8
  16358759.278   -38309224.613 7 -29648546.490 9
 95  2 12 18 47 59.9850000  0  6 28 18 14 19 22 29
  20521949.497          -0.16613
  17325518.982   -30675577.761 7 -23556734.958 8
  16837198.388   -27577977.591 7 -21376316.342 9
  18221270.630   -21096429.243 6 -16313712.786 6
  17519724.911   -32393603.379 7 -24995875.695 8
  16341932.544   -38397643.246 7 -29717444.140 9
 95  2 12 18 48 29.9850000  0  6 28 18 14 19 22 29
  20495502.552     -138973.998 3
  17299851.888   -30810453.931 7 -23661833.267 8
  16837810.786   -27574775.469 7 -21373821.252 9
  18196078.599   -21228825.596 6 -16416878.744 6
  17518456.224   -32400262.661 7 -25001064.797 8
  16325158.013   -38485795.086 7 -29786133.911 9
 95  2 12 18 48 59.9850000  0  6 28 18 14 19 22 29
  20469070.810     -277868.198 3        -0.36214
  17274217.677   -30945172.434 7 -23766808.714 7
  16838500.474   -27571141.158 7 -21370989.402 8
  18170922.044   -21361011.924 6 -16519881.055 6
  17517284.927   -32406428.293 7 -25005869.239 8
  16308435.271   -38573675.668 7 -29854612.302 9
 95  2 12 18 49 29.9850000  0  6 28 18 14 19 22 29
  20442655.583     -416682.500 3   -108167.224 2
  17248611.380   -31079734.895 7 -23871662.584 8
  16839275.864   -27567072.371 7 -21367818.992 9
  18145810.185   -21492981.470 6 -16622714.440 6
  17516202.716   -32412114.878 7 -25010300.399 8
  16291762.060   -38661292.539 7 -29922885.209 9
 95  2 12 18 49 59.9850000  0  6 28 18 14 19 22 29
  20416254.849     -555405.933 3   -216263.330 4
  17223037.880   -31214108.596 7 -23976369.350 8
  16840140.747   -27562538.390 7 -21364286.105 8
  18120741.114   -21624720.901 6 -16725368.519 6
  17515210.669   -32417324.985 7 -25014360.271 8
  16275140.708   -38748637.803 7 -29990946.477 9
 95  2 12 18 50 29.9850000  0  6 28 18 14 19 22 29
  20389878.396     -694034.495 3   -324285.498 4
  17197505.810   -31348291.867 7 -24080927.736 7
  16841087.380   -27557541.465 7 -21360392.472 8
  18095712.419   -21756237.099 6 -16827848.646 6
  17514310.286   -32422066.946 7 -25018055.360 8
  16258569.989   -38835714.236 7 -30058798.259 9
 95  2 12 18 50 59.9850000  0  6 28 18 14 19 22 29
  20363511.810     -832568.154 3   -432233.710 4
  17172007.013   -31482290.998 7 -24185342.638 8
  16842128.911   -27552082.587 7 -21356138.875 8
  18070727.060   -21887538.368 6 -16930161.304 6
  17513488.521   -32426365.375 7 -25021404.831 8
  16242048.903   -38922521.645 7 -30126440.414 9
 95  2 12 18 51 29.9850000  0  6 28 18 14 19 22 29
  20337173.161     -971003.271 3   -540105.155 4
  17146544.599   -31616105.940 7 -24289614.005 8
  16843254.489   -27546172.667 7 -21351533.824 8
  18045784.419   -22018622.966 6 -17032305.116 6
  17512753.146   -32430235.673 7 -25024420.699 8
  16225585.857   -39009044.593 7 -30193860.914 9
 95  2 12 18 51 59.9850000  0  6 28 18 14 19 22 29
  20310848.497    -1109334.410 3   -647895.569 4
  17121113.161   -31749736.476 7 -24393741.688 8
  16844456.427   -27539839.253 7 -21346598.784 8
  18020881.857   -22149491.175 6 -17134280.325 6
  17512103.107   -32433662.454 7 -25027090.962 8
  16209179.247   -39095267.721 7 -30261047.787 9
 95  2 12 18 52 29.9850000  0  6 28 18 14 19 22 29
  20284547.122    -1247567.172 3   -755609.305 4
  17095712.966   -31883209.196 7 -24497746.393 8
  16845739.232   -27533104.006 7 -21341350.607 8
  17996020.138   -22280142.975 6 -17236086.898 6
  17511535.997   -32436644.640 7 -25029414.793 8
  16192823.919   -39181211.520 7 -30328016.997 9
 95  2 12 18 52 59.9850000  0  6 28 18 14 19 22 29
  20258261.560    -1385693.756 3   -863240.337 5
  17070345.169   -32016525.464 7 -24601629.197 8
  16847099.083   -27525967.581 7 -21335789.832 8
  17971195.146   -22410562.956 6 -17337712.844 6
  17511053.380   -32439171.079 7 -25031383.497 8
  16176523.200   -39266876.245 7 -30394768.759 9
 95  2 12 18 53 29.9850000  0  6 28 18 14 19 22 29
  20231995.903    -1523712.956 4   -970787.728 3
  17045003.825   -32149689.644 7 -24705393.491 8
  16848531.669   -27518428.831 7 -21329915.549 8
  17946428.567   -22540739.823 6 -17439149.316 6
  17510662.278   -32441226.927 7 -25032985.511 8
  16160274.060   -39352268.019 7 -30461307.821 9
 95  2 12 18 53 59.9850000  0  6 28 18 14 19 22 29
  20205753.036    -1661617.815 4  -1078245.986 4
  17019694.060   -32282695.095 7 -24809034.091 8
  16850046.271   -27510463.807 6 -21323709.117 8
  17921701.849   -22670671.826 6 -17540395.004 6
  17510366.661   -32442787.620 7 -25034201.691 8
  16144075.122   -39437395.294 7 -30527640.788 9
 95  2 12 18 54 29.9850000  0  6 28 18 14 19 22 29
  20179529.739    -1799403.794 4  -1185611.625 3
  16994415.966   -32415535.485 7 -24912546.080 8
  16851647.036   -27502051.463 6 -21317154.120 8
  17897019.075   -22800369.031 6 -17641457.733 6
  17510164.864   -32443847.593 6 -25035027.694 8
  16127924.833   -39522258.925 7 -30593768.314 9
 95  2 12 18 54 59.9850000  0  6 28 18 14 19 22 29
  20153333.911    -1937071.593 4  -1292885.174 4
  16969169.755   -32548207.910 7 -25015927.181 8
  16853334.482   -27493195.930 6 -21310253.782 8
  17872384.325   -22929848.952 6 -17742351.150 6
  17510053.161   -32444421.170 7 -25035474.688 8
  16111829.411   -39606844.276 7 -30659679.001 9
 95  2 12 18 55 29.9850000  0  6 28 18 14 19 22 29
  20127165.411    -2074616.972 4  -1400063.345 3
  16943956.302   -32680699.307 7 -25119167.228 8
  16855106.630   -27483886.426 6 -21302999.698 8
  17847784.669   -23059119.629 6 -17843081.520 6
  17510032.239   -32444515.491 6
  16095785.794   -39691143.790 7 -30725366.956 9
 95  2 12 18 55 59.9850000  0  6 28 18 14 19 22 29
  20101013.552    -2212032.340 4  -1507140.168 4
  16918781.177   -32812997.389 7 -25222256.647 8
  16856965.732   -27474123.426 6 -21295392.238 8
  17823225.880   -23188187.565 6 -17943653.923 6
  17510102.864   -32444141.828 6
  16079801.083   -39775154.339 7 -30790829.747 9
 95  2 12 18 56 29.9850000  0  6 28 18 14 19 22 29
  20074889.435    -2349318.805 5  -1614116.577 3
  16893643.138   -32945102.634 7 -25325195.786 8
  16858904.708   -27463934.552 6 -21287452.940 8
  17798701.122   -23317054.116 6 -18044069.388 7
  17510258.630   -32443337.381 6 -25034630.364 8
  16063869.497   -39858870.210 7 -30856062.915 9
 95  2 12 18 56 59.9850000  0  6 28 18 14 19 22 29
  20048787.099    -2486471.302 4  -1720988.588 4
  16868540.474   -33077009.168 7 -25427980.102 8
  16860922.575   -27453328.238 6 -21279188.363 8
  17774219.552   -23445706.709 6 -18144318.153 6
  17510494.099   -32442120.314 7 -25033682.055 8
  16047996.302   -39942288.831 7 -30921064.464 9
 95  2 12 18 57 29.9840000  0  6 28 18 14 19 22 29
  20022712.531    -2623482.123 4  -1827750.211 1
  16843479.563   -33208707.082 7 -25530601.854 8
  16863018.117   -27442310.305 7 -21270603.043 8
  17749777.102   -23574137.208 6 -18244393.854 6
  17510801.852   -32440486.601 6 -25032409.093 8
  16032178.219   -40025415.885 7 -30985838.818 9
 95  2 12 18 57 59.9840000  0  6 28 18 14 19 22 29
  19996671.438    -2760360.692 4  -1934408.797 2
  16818455.813   -33340212.914 7 -25633073.931 8
  16865190.234   -27430890.002 6 -21261704.180 8
  17725374.969   -23702362.792 6 -18344309.881 6
  17511196.133   -32438440.851 6 -25030815.065 8
  16016415.633   -40108252.924 7 -31050387.182 9
 95  2 12 18 58 29.9840000  0  6 28 18 14 19 22 29
  19970644.703    -2897102.430 4  -2040960.721 3
  16793468.649   -33471530.184 7 -25735399.082 8
  16867443.617   -27419056.989 7 -21252483.730 8
  17701015.188   -23830384.120 6 -18444066.744 7
  17511663.422   -32435980.604 7 -25028898.053 8
  16000706.672   -40190791.332 7 -31114702.849 9
 95  2 12 18 58 59.9840000  0  6 28 18 14 19 22 29
  19944654.117    -3033701.324 4  -2147401.358 3
  16768512.453   -33602663.914 7 -25837581.214 8
  16869776.945   -27406789.527 7 -21242924.751 8
  17676693.734   -23958197.957 6 -18543661.942 6
  17512213.008   -32433088.914 6 -25026644.839 8
  15985058.141   -40273032.063 7 -31178786.567 9
 95  2 12 18 59 29.9840000  0  6 28 18 14 19 22 29
  19918687.617    -3170149.829 5  -2253724.785 3
  16743593.633   -33733606.122 7 -25939614.108 9
  16872193.711   -27394077.446 6 -21233019.316 8
  17652415.031   -24085794.911 6 -18643088.141 6
  17512847.563   -32429752.474 6 -25024045.069 8
  15969466.547   -40354968.907 7 -31242633.489 9
 95  2 12 18 59 59.9840000  0  6 28 18 14 19 22 29
  19892751.500    -3306445.870 5  -2359929.426 3
  16718711.766   -33864358.472 7 -26041499.063 9
  16874700.219   -27380925.667 6 -21222771.271 8
  17628176.781   -24213167.720 6 -18742339.677 7
  17513562.836   -32425974.481 6 -25021101.235 8
  15953934.039   -40436593.675 7 -31306237.239 9
 95  2 12 19  0 29.9840000  0  6 28 18 14 19 22 29
  19866844.383    -3442591.241 5  -2466016.667 3
  16693870.234   -33994913.584 7 -26143230.322 9
  16877281.094   -27367359.835 6 -21212200.576 8
  17603979.695   -24340303.989 6 -18841406.905 7
  17514363.899   -32421758.459 6 -25017816.079 8
  15938456.047   -40517926.493 7 -31369613.483 9
 95  2 12 19  0 59.9840000  0  6 28 18 14 19 22 29
  19840964.609    -3578582.486 5  -2571983.783 1
  16669067.828   -34125256.694 7 -26244796.385 9
  16879933.242   -27353418.377 6 -21201337.196 8
  17579832.422   -24467198.117 6 -18940285.438 7
  17515254.445   -32417096.794 6 -25014183.666 8
  15923034.875   -40598975.753 7 -31432768.779 9
 95  2 12 19  1 29.9840000  0  6 28 18 14 19 22 29
  19815114.469    -3714415.580 4  -2677827.662 2
  16644304.750   -34255373.812 7 -26346186.346 9
  16882656.117   -27339120.668 6 -21190196.219 8
  17555731.875   -24593855.945 6 -19038979.852 7
  17516223.852   -32411984.727 6 -25010200.297 8
  15907664.969   -40679736.646 7 -31495699.370 9
 95  2 12 19  1 59.9840000  0  6 28 18 14 19 22 29
  19789297.789    -3850086.932 3  -2783545.526 1
  16619588.024   -34385268.564 7 -26447403.042 8
  16885441.297   -27324476.964 6 -21178785.632 8
  17531674.313   -24720293.585 6 -19137502.699 7
  17517283.899   -32406428.447 6 -25005870.787 8
  15892350.039   -40760209.592 7 -31558405.585 9
 95  2 12 19  2 29.9840000  0  6 28 18 14 19 22 29
  19763513.078    -3985590.615 3  -2889132.787 1
  16594912.524   -34514936.834 7 -26548443.258 8
  16888294.578   -27309473.200 6 -21167094.469 8
  17507650.758   -24846516.957 6 -19235858.568 7
  17518425.969   -32400438.559 6 -25001203.399 8
  15877093.117   -40840388.942 7 -31620883.032 9
 95  2 12 19  2 59.9840000  0  6 28 18 14 19 22 29
  19737758.133    -4120924.456 3  -2994587.670 3
  16570280.180   -34644385.990 7 -26649312.729 8
  16891224.500   -27294085.473 6 -21155104.119 8
  17483671.992   -24972536.963 6 -19334055.971 6
  17519643.149   -32394026.849 6 -24996207.318 8
  15861895.758   -40920254.340 7 -31683115.834 9
 95  2 12 19  3 29.9840000  0  6 28 18 14 19 22 29
  19712033.969    -4256086.617 3  -3099908.780 3
  16545683.953   -34773626.382 7 -26750019.523 8
  16894233.859   -27278287.792 6 -21142794.320 8
  17459734.250   -25098347.427 6 -19432090.098 6
  17520936.070   -32387223.268 6 -24990905.885 8
  15846759.820   -40999795.602 7 -31745096.057 9
 95  2 12 19  3 59.9840000  0  6 28 18 14 19 22 29
  19686348.492    -4391077.470 3  -3205096.391 4
  16521131.594   -34902663.358 7 -26850567.816 9
  16897315.820   -27262080.161 6 -21130165.099 8
  17435832.727   -25223940.818 6 -19529955.070 6
  17522309.586   -32380048.881 7 -24985315.516 8
  15831684.633   -41079018.147 7 -31806827.934 9
 95  2 12 19  4 29.9840000  0  6 28 18 14 19 22 29
  19660702.359    -4525888.651 4  -3310144.009 3
  16496617.461   -35031495.123 7 -26950956.200 9
  16900477.883   -27245463.844 6 -21117217.414 7
  17411976.711   -25349299.144 6 -19627636.879 6
  17523740.617   -32372500.082 6 -24979433.406 8
  15816670.547   -41157916.416 7 -31868307.129 9
 95  2 12 19  4 59.9840000  0  6 28 18 14 19 22 29
  19635083.656    -4660516.756 4  -3415048.996 3
  16472138.445   -35160128.565 7 -27051190.054 8
  16903714.219   -27228457.151 6 -21103965.541 7
  17388164.820   -25474423.191 6 -19725136.130 6
  17525251.813   -32364567.326 6 -24973252.098 7
  15801718.641   -41236496.705 7 -31929538.546 9
 95  2 12 19  5 29.9840000  0  6 28 18 14 19 22 29
  19609497.344    -4794960.229 4  -3519810.084 2
  16447694.399   -35288572.202 7 -27151276.013 8
  16907021.688   -27211076.844 6 -21090422.541 7
  17364401.156   -25599313.917 6 -19822453.574 7
  17526833.594   -32356246.367 6 -24966768.298 7
  15786819.641   -41314773.740 7 -31990533.658 9
 95  2 12 19  5 59.9840000  0  6 28 18 14 19 22 29
  19583948.930    -4929216.487 4  -3624425.335 2
  16423289.977   -35416821.240 7 -27251210.327 9
  16910398.461   -27193331.011 6 -21076594.725 7
  17340678.539   -25723987.374 6 -19919601.709 7
  17528501.586   -32347519.832 7 -24959968.463 7
  15771984.141   -41392743.983 7 -32051289.713 9
 95  2 12 19  6 29.9840000  0  6 28 18 14 19 22 29
  19558435.844    -5063281.268 4  -3728891.396 4
  16398923.992   -35544873.803 7 -27350991.547 9
  16913845.156   -27175207.749 6 -21062472.803 7
  17316988.594   -25848450.901 6 -20016586.253 7
  17530235.820   -32338374.113 6 -24952841.997 7
  15757207.086   -41470399.752 7 -32111800.724 9
 95  2 12 19  6 59.9840000  0  6 28 18 14 19 22 29
  19532962.539    -5197159.655 4  -3833212.196 2
  16374594.461   -35672718.084 7 -27450610.475 9
  16917368.297   -27156707.718 6 -21048057.298 7
  17293345.602   -25972707.517 6 -20113409.575 6
  17532059.203   -32328810.740 6 -24945390.085 7
  15742487.242   -41547748.815 7 -32172072.738 9
 95  2 12 19  7 29.9840000  0  6 28 18 14 19 22 29
  19507522.555    -5330850.287 3  -3937386.701 2
  16350309.133   -35800337.313 7 -27550054.037 8
  16920960.172   -27137834.228 6 -21033350.789 7
  17269740.375   -26096751.089 6 -20210066.889 7
  17533954.164   -32318842.371 6 -24937622.591 7
  15727827.399   -41624789.692 7 -32232104.603 9
 95  2 12 19  7 59.9840000  0  6 28 18 14 19 22 29
  19482118.789    -5464339.399 4  -4041404.159 4
  16326073.531   -35927699.909 7 -27649297.619 9
  16924624.258   -27118578.886 6 -21018346.732 7
  17246176.547   -26220573.144 6 -20306551.596 7
  17535924.875   -32308460.317 6 -24929532.735 7
  15713228.406   -41701505.806 7 -32291883.411 9
 95  2 12 19  8 29.9840000  0  6 28 18 14 19 22 29
  19456755.656    -5597627.491 3  -4145264.978 3
  16301886.735   -36054806.368 7 -27748341.619 9
  16928356.211   -27098953.242 6 -21003054.136 7
  17222660.727   -26344167.160 6 -20402858.620 7
  17537982.984   -32297675.932 6 -24921129.381 7
  15698687.031   -41777916.037 7 -32351423.876 9
 95  2 12 19  8 59.9830000  0  6 28 18 14 19 22 29
  19431431.323    -5730704.604 3  -4248961.371 4
  16277749.730   -36181648.121 7 -27847179.348 9
  16932159.308   -27078974.141 6 -20987486.118 7
  17199187.769   -26467524.822 6 -20498981.465 7
  17540106.519   -32286508.847 6 -24912427.818 7
  15684207.698   -41854010.047 7 -32410717.920 9
 95  2 12 19  9 29.9830000  0  6 28 18 14 19 22 29
  19406146.534    -5863575.741 3  -4352497.249 4
  16253660.409   -36308246.171 7 -27945827.177 8
  16936031.222   -27058638.989 6 -20971640.657 7
  17175752.144   -26590665.420 6 -20594935.166 7
  17542300.612   -32274975.220 6 -24903440.648 7
  15669788.526   -41929786.879 7 -32469764.826 9
 95  2 12 19  9 59.9830000  0  6 28 18 14 19 22 29
  19380899.784    -5996235.980 4  -4455868.827 5
  16229613.183   -36434611.888 7 -28044293.976 9
  16939966.292   -27037945.207 6 -20955515.743 7
  17152357.862   -26713597.337 6 -20690726.267 7
  17544566.659   -32263071.798 6 -24894165.313 7
  15655428.144   -42005247.959 7 -32528565.686 9
 95  2 12 19 10 29.9830000  0  6 28 18 14 19 22 29
  19355700.769    -6128683.666 4  -4559074.755 5
  16205606.847   -36560758.366 7 -28142589.933 9
  16943972.526   -27016893.038 6 -20939111.570 7
  17129004.628   -26836329.458 6 -20786361.671 7
  17546897.628   -32250807.433 6 -24884608.735 7
  15641129.308   -42080390.007 7 -32587117.956 9
 95  2 12 19 10 59.9830000  0  6 28 18 14 19 22 29
  19330536.753    -6260915.067 4  -4662112.158 5
  16181642.120   -36686685.637 7 -28240715.073 9
  16948047.839   -26995490.976 6 -20922434.769 7
  17105687.456   -26958867.075 6 -20881845.534 7
  17549300.651   -32238177.324 6 -24874767.164 7
  15626894.183   -42155198.450 7 -32645410.268 9
 95  2 12 19 11 29.9830000  0  6 28 18 14 19 22 29
  19305415.019    -6392925.226 4  -4764977.144 5
  16157722.597   -36812386.488 7 -28338663.788 9
  16952185.667   -26973735.518 6 -20905482.571 7
  17082407.347   -27081209.403 6 -20977177.208 7
  17551780.026   -32225160.951 6 -24864624.600 7
  15612720.253   -42229683.930 7 -32703450.928 9
 95  2 12 19 11 59.9830000  0  6 28 18 14 19 22 29
  19280333.464    -6524713.958 4  -4867669.591 4
  16133847.558   -36937861.337 7 -28436436.396 9
  16956389.870   -26951641.816 6 -20888266.825 7
  17059162.128   -27203349.161 6 -21072351.045 7
  17554331.284   -32211756.457 6 -24854179.619 8
  15598607.276   -42303849.232 7 -32761242.117 9
 95  2 12 19 12 29.9830000  0  6 28 18 14 19 22 29
  19255299.308    -6656276.948 5  -4970186.146 4
  16110015.183   -37063102.046 7 -28534026.564 9
  16960658.081   -26929220.073 6 -20870795.458 7
  17035959.284   -27325270.831 6 -21167354.947 7
  17556949.245   -32197982.702 6 -24843446.901 7
  15584556.191   -42377686.282 7 -32818777.482 9
 95  2 12 19 12 59.9830000  0  6 28 18 14 19 22 29
  19230298.355    -6787610.449 5  -5072523.886 3
  16086230.620   -37188095.858 7 -28631424.336 9
  16964985.081   -26906477.657 6 -20853074.209 7
  17012803.495   -27446953.399 6 -21262172.523 7
  17559644.862   -32183847.459 6 -24832432.514 7
  15570567.745   -42451197.731 7 -32876059.159 9
 95  2 12 19 13 29.9830000  0  7 28 18 14 31 19 22 29
  19205355.753    -6918711.324 5  -5174680.347 5
  16062490.534   -37312837.235 7 -28728625.410 9
  16969377.362   -26883404.117 6 -20835094.963 7
  19705094.511          -0.08213
  16989695.956   -27568385.268 6 -21356794.762 7
  17562397.870   -32169359.973 6 -24821143.660 7
  15556640.284   -42524379.672 7 -32933084.072 9
 95  2 12 19 13 59.9830000  0  7 28 18 14 31 19 22 29
  19180457.839    -7049571.858 5  -5276649.539 5
  16038802.120   -37437318.582 7 -28825623.865 9
  16973828.683   -26859994.508 6 -20816853.837 7
  19675633.081     -154848.001 3
  16966640.441   -27689562.149 6 -21451218.299 7
  17565219.823   -32154537.211 6 -24809593.548 7
  15542782.753   -42597208.052 7 -32989833.485 9
 95  2 12 19 14 29.9830000  0  7 28 18 14 31 19 22 29
  19155602.042    -7180197.692 5  -5378435.819 5
  16015163.972   -37561537.133 7 -28922417.546 9
  16978349.425   -26836252.578 6 -20798353.763 7
  19646150.480     -309745.946 3        -0.35713
  16943628.964   -27810501.718 6 -21545456.908 7
  17568103.214   -32139389.280 6 -24797790.066 7
  15528990.730   -42669681.712 7 -33046306.493 9
 95  2 12 19 14 59.9830000  0  7 28 18 14 31 19 22 29
  19130791.769    -7310586.920 5  -5480037.755 5
  15991576.362   -37685497.180 7 -29019009.799 9
  16982930.784   -26812176.663 6 -20779593.444 7
  19616661.292     -464693.715 3   -120738.753 2
  16920654.581   -27931218.182 6 -21639521.685 7
  17571053.808   -32123897.300 6 -24785718.491 7
  15515266.753   -42741805.926 7 -33102507.206 9
 95  2 12 19 15 29.9830000  0  7 28 18 14 31 19 22 29
  19106017.526    -7440736.072 5  -5581452.599 4
  15968033.612   -37809214.490 7 -29115412.894 9
  16987577.792   -26787762.011 6 -20760569.174 6
  19587161.331     -619700.672 3   -241523.248 2
  16897721.394   -28051726.438 6 -21733424.215 7
  17574069.073   -32108057.984 6 -24773376.264 7
  15501607.558   -42813580.621 7 -33158435.556 9
 95  2 12 19 15 59.9830000  0  7 28 18 14 31 19 22 29
  19081299.433    -7570644.858 5  -5682680.154 4
  15944538.558   -37932680.771 7 -29211620.402 9
  16992286.316   -26763020.776 6 -20741290.418 6
  19557658.284     -774762.787 3   -362350.716 2
  16874827.245   -28172040.559 6 -21827175.477 7
  17577142.691   -32091871.606 6 -24760763.606 7
  15488013.347   -42885021.971 7 -33214104.165 9
 95  2 12 19 16 29.9830000  0  7 28 18 14 31 19 22 29
  19056629.370    -7700303.726 5  -5783712.977 5
  15921092.191   -38055891.966 7 -29307629.131 9
  16997054.558   -26737955.057 6 -20721758.823 6
  19528141.706     -929880.315 3   -483221.366 2
  16851969.730   -28292153.862 6 -21920770.252 7
  17580297.089   -32075312.760 6 -24747860.711 6
  15474476.878   -42956151.305 7 -33269529.639 9
 95  2 12 19 16 59.9830000  0  7 28 18 14 31 19 22 29
  19032003.675    -7829708.619 5  -5884547.883 5
  15897691.941   -38178853.868 7 -29403443.614 9
  17001884.198   -26712579.258 6 -20701985.612 7
  19498615.675    -1085057.875 3   -604138.789 2
  16829151.316   -28412060.635 6 -22014204.099 7
  17583520.198   -32058381.319 6 -24734667.484 6
  15460999.698   -43026976.318 7 -33324717.984 9
 95  2 12 19 17 29.9830000  0  7 28 18 14 31 19 22 29
  19007424.675    -7958860.555 5  -5985185.694 5
  15874341.675   -38301557.683 7 -29499056.982 9
  17006770.019   -26686897.846 6 -20681974.263 6
  19469074.651    -1240296.676 4   -725103.942 1
  16806374.331   -28531763.157 6 -22107478.787 7
  17586809.308   -32041095.175 6 -24721197.853 6
  15447581.808   -43097491.967 7 -33379665.273 9
 95  2 12 19 17 59.9830000  0  7 28 18 14 31 19 22 29
  18982898.769    -8087757.580 5  -6085624.865 5
  15851042.862   -38424002.160 7 -29594468.278 9
  17011714.378   -26660920.641 6 -20661732.417 7
  19439521.964    -1395588.065 3   -846110.091 2
  16783632.886   -28651267.708 6 -22200599.214 7
  17590162.050   -32023461.672 6 -24707457.552 7
  15434223.464   -43167686.862 7 -33434362.621 9
 95  2 12 19 18 29.9830000  0  7 28 18 14 31 19 22 29
  18958413.792    -8216395.746 5  -6185862.359 5
  15827787.472   -38546206.653 7 -29689692.564 9
  17016713.120   -26634643.943 6 -20641257.205 6
  19409960.636    -1550926.426 4   -967152.836 2
  16760933.347   -28770561.364 6 -22293555.300 7
  17593580.511   -32005492.481 6 -24693455.687 7
  15420930.636   -43237538.510 7 -33488792.505 9
 95  2 12 19 18 59.9830000  0  7 28 18 14 31 19 22 29
  18933983.276    -8344782.929 5  -6285904.259 4
  15804575.503   -38668185.305 7 -29784740.870 9
  17021771.644   -26608073.969 6 -20620553.475 6
  19380389.331    -1706308.692 3  -1088229.766 2
  16738269.323   -28889657.306 6 -22386357.331 7
  17597059.105   -31987216.900 6 -24679215.081 7
  15407707.362   -43307025.880 7 -33542938.538 9
 95  2 12 19 19 29.9830000  0  7 28 18 14 31 19 22 29
  18909609.019    -8472908.527 5  -6385742.374 5
  15781413.245   -38789915.734 7 -29879595.766 9
  17026887.433   -26581194.595 6 -20599608.656 6
  19350820.800    -1861714.892 3  -1209325.367 2
  16715641.542   -29008552.266 6 -22479002.751 7
  17600595.487   -31968632.854 6 -24664734.110 7
  15394555.956   -43376141.191 7 -33596794.653 9
 95  2 12 19 19 59.9830000  0  8 28 18 14 31 19 22 29 27
  18885274.878    -8600764.773 5  -6485370.598 5
  15758297.480   -38911389.203 7 -29974250.421 9
  17032058.011   -26554005.513 6 -20578422.500 6
  19321247.433    -2017121.189 2  -1330421.059 3
  16693056.612   -29127226.786 6 -22571476.406 7
  17604195.456   -31949740.301 6 -24650012.742 7
  15381475.511   -43444881.361 7 -33650358.447 9
  19861122.480          -0.12912
 95  2 12 19 20 29.9820000  0  8 28 18 14 31 19 22 29 27
  18861001.576    -8728343.166 5  -6584782.293 5
  15735235.623   -39032581.142 7 -30068685.711 9
  17037293.131   -26526513.243 6 -20557000.105 6
  19291673.553    -2172518.041 3  -1451509.363 3
  16670524.639   -29245662.903 6 -22663764.285 7
  17607851.561   -31930534.763 6 -24635047.494 7
  15368463.240   -43513253.661 7 -33703635.595 9
  19832995.709     -147825.513 3        -0.03212
 95  2 12 19 20 59.9820000  0  8 28 18 14 31 19 22 29 27
  18836769.772    -8855651.219 5  -6683983.371 5
  15712226.342   -39153479.049 7 -30162891.883 9
  17042581.608   -26498724.747 6 -20535346.881 6
  19262109.569    -2327913.823 3  -1572596.839 4
  16648026.326   -29363890.731 6 -22755889.866 7
  17611560.881   -31911015.532 6 -24619837.816 7
  15355520.428   -43581273.301 7 -33756637.935 9
  19804880.397     -295555.693 3   -115114.404 4
 95  2 12 19 21 29.9820000  0  8 28 18 14 31 19 22 29 27
  18812591.311    -8982682.944 5  -6782969.101 5
  15689279.514   -39274069.668 7 -30256858.610 9
  17047925.959   -26470639.835 6 -20513462.688 6
  19232531.631    -2483297.618 3  -1693674.958 2
  16625568.076   -29481899.179 6 -22847844.496 7
  17615333.443   -31891188.457 6 -24604388.262 7
  15342641.428   -43648956.151 7 -33809377.850 9
  19776786.912     -443193.321 3   -230156.676 2
 95  2 12 19 21 59.9820000  0  8 28 18 14 31 19 22 29 27
  18788475.147    -9109435.714 5  -6881737.487 5
  15666389.545   -39394368.302 7 -30350597.816 9
  17053324.647   -26442264.810 6 -20491352.427 6
  19202969.342    -2638674.616 3  -1814747.827 2
  16603153.248   -29599694.032 6 -22939632.704 7
  17619163.944   -31871058.449 6 -24588702.656 7
  15329825.998   -43716301.573 7 -33861854.835 9
  19748705.373     -590763.643 3   -345146.503 2
 95  2 12 19 22 29.9820000  0  8 28 18 14 31 19 22 29 27
  18764411.318    -9235902.898 5  -6980283.327 5
  15643552.123   -39514373.311 7 -30444108.225 9
  17058779.701   -26413594.937 6 -20469012.420 6
  19173398.131    -2794051.597 3  -1935820.676 1
  16580778.420   -29717298.367 6 -23031272.446 7
  17623055.256   -31850612.105 6 -24572770.548 7
  15317074.404   -43783310.379 7 -33914069.516 9
  19720633.022     -738277.441 3   -460092.299 2
 95  2 12 19 22 59.9820000  0  8 28 18 14 31 19 22 29 27
  18740402.647    -9362082.831 5  -7078605.334 5
  15620770.733   -39634088.965 7 -30537393.161 9
  17064293.490   -26384622.556 6 -20446436.691 6
  19143833.443    -2949428.435 3  -2056893.420 1
  16558430.842   -29834718.865 6 -23122768.938 7
  17627010.428   -31829850.187 6 -24556592.542 7
  15304388.928   -43849976.292 7 -33966017.013 9
  19692571.014     -885736.515 3   -574995.413 4
 95  2 12 19 23 29.9820000  0  8 28 18 14 31 19 22 29 27
  18716446.037    -9487969.796 5  -7176699.062 5
  15598042.998   -39753519.260 7 -30630455.739 9
  17069866.233   -26355349.384 6 -20423626.574 6
  19114266.162    -3104807.111 3  -2177967.593 1
  16536126.162   -29951926.095 6 -23214099.240 7
  17631015.858   -31808769.564 6 -24540166.205 7
  15291767.904   -43916296.614 7 -34017695.218 9
  19664523.748    -1033140.863 3   -689855.889 2
 95  2 12 19 23 59.9820000  0  8 28 18 14 31 19 22 29 27
  18692543.326    -9613561.091 5  -7274562.393 5
  15575371.662   -39872663.467 7 -30723295.386 9
  17075487.865   -26325799.582 6 -20400600.917 6
  19084696.529    -3260205.695 3  -2299057.280 2
  16513861.014   -30068921.670 6 -23305264.629 7
  17635086.365   -31787371.893 6 -24523492.810 7
  15279216.834   -43982259.112 7 -34069094.591 9
  19636482.061    -1180480.821 3   -804666.236 2
 95  2 12 19 24 29.9820000  0  8 28 18 14 31 19 22 29 27
  18668705.826    -9738855.817 5  -7372194.633 5
  15552755.084   -39991521.989 7 -30815912.428 9
  17081158.795   -26295993.956 6 -20377375.911 6
  19055119.787    -3415625.509 3  -2420163.527 2
  16491638.631   -30185686.625 6 -23396250.319 7
  17639222.756   -31765659.116 6 -24506573.866 6
  15266734.061   -44047853.457 7 -34120207.103 9
  19608457.568    -1327745.669 3   -919418.014 1
 95  2 12 19 24 59.9820000  0  8 28 18 14 31 19 22 29 27
  18644915.686    -9863845.991 5  -7469589.582 5
  15530190.045   -40110094.996 7 -30908306.994 9
  17086875.342   -26265947.825 6 -20353963.501 6
  19025539.725    -3571063.576 3  -2541283.990 4
  16469474.217   -30302185.480 6 -23487028.650 7
  17643409.100   -31743643.873 6 -24489419.245 6
  15254325.943   -44113065.704 7 -34171021.875 9
  19580449.912    -1474916.265 3  -1034096.379 3
 95  2 12 19 25 29.9820000  0  8 28 18 14 31 19 22 29 27
  18621190.303    -9988531.434 5  -7566747.067 5
  15507677.764   -40228397.804 7 -31000491.016 9
  17092637.225   -26235674.566 6 -20330374.112 6
  18995956.100    -3726518.235 3  -2662417.401 4
  16447355.826   -30418415.425 6 -23577597.446 7
  17647657.943   -31721341.213 6 -24472040.660 6
  15241987.131   -44177902.181 7 -34221543.842 9
  19552465.662    -1621982.488 3  -1148693.423 2
 95  2 12 19 25 59.9820000  0  8 28 18 14 31 19 22 29 27
  18597532.217   -10112911.211 5  -7663666.360 5
  15485216.264   -40346427.542 7 -31092462.255 9
  17098441.693   -26205180.619 6 -20306612.762 6
  18966375.404    -3881974.180 4  -2783551.810 3
  16425282.139   -30534401.122 6 -23667975.914 7
  17651951.623   -31698752.709 6 -24454439.343 6
  15229718.358   -44242360.884 7 -34271771.435 9
  19524502.436          -0.61213
 95  2 12 19 26 29.9820000  0  8 28 18 14 31 19 22 29 27
  18573913.834   -10236977.396 5  -7760341.297 5
  15462807.264   -40464178.128 7 -31184215.976 9
  17104295.420   -26174434.491 6 -20282654.907 6
  18936797.584    -4037396.121 4  -2904659.746 4
  16403260.725   -30650151.540 6 -23758171.057 8
  17656310.248   -31675863.932 6 -24436604.047 6
  15217527.358   -44306439.599 7 -34321702.934 9
  19496557.084     -146874.474 3        -0.08412
 95  2 12 19 26 59.9820000  0  8 28 18 14 31 19 22 29 27
  18550356.928   -10360732.876 5  -7856774.113 5
  15440456.420   -40581644.135 7 -31275747.930 9
  17110195.631   -26143417.492 6 -20258485.980 6
  18907232.686    -4192782.512 4  -3025739.951 4
  16381275.420   -30765698.942 6 -23848208.000 8
  17660721.053   -31652687.068 6 -24418544.263 6
  15205401.936   -44370157.452 7 -34371353.246 9
  19468621.373     -293667.359 3   -114384.115 3
 95  2 12 19 27 29.9820000  0  8 28 18 14 31 19 22 29 27
  18526877.193   -10484173.912 4  -7952961.922 5
  15418161.342   -40698817.394 7 -31367051.798 9
  17116149.459   -26112118.430 6 -20234097.277 6
  18877669.568    -4348120.369 4  -3146782.352 2
  16359314.139   -30881067.319 6 -23938105.450 8
  17665187.209   -31629223.241 6 -24400260.872 6
  15193344.608   -44433518.119 7 -34420725.233 9
  19440704.858     -440384.615 3   -228709.226 2
 95  2 12 19 27 59.9820000  0  8 28 18 14 31 19 22 29 27
  18503445.826   -10607296.967 5  -8048901.948 5
  15395923.358   -40815681.144 7 -31458114.477 9
  17122158.443   -26080538.613 6 -20209489.796 6
  18848123.397    -4503402.641 3  -3267781.468 2
  16337389.795   -30996271.057 6 -24027874.596 8
  17669706.811   -31605473.622 6 -24381754.792 6
  15181356.686   -44496513.804 7 -34469812.814 9
  19412795.365     -587041.487 3   -342987.298 2
 95  2 12 19 28 29.9820000  0  8 28 18 14 31 19 22 29 27
  18480077.725   -10730104.105 5  -8144595.819 5
  15373742.295   -40932239.849 7 -31548939.455 9
  17128221.186   -26048683.773 6 -20184668.017 6
  18818571.811    -4658648.402 3  -3388752.112 3
  16315502.514   -31111298.768 7 -24117506.601 8
  17674274.748   -31581453.153 6 -24363037.662 6
  15169436.209   -44559151.886 7 -34518621.749 9
  19384896.639     -733639.539 3   -457219.493 2
 95  2 12 19 28 59.9820000  0  8 28 18 14 31 19 22 29 27
  18456759.631   -10852593.362 5  -8240041.985 5
  15351619.740   -41048499.919 7 -31639531.732 9
  17134329.998   -26016580.646 6 -20159652.772 6
  18789043.428    -4813873.555 3  -3509706.713 2
  16293651.865   -31226128.719 7 -24206984.482 8
  17678895.529   -31557182.385 6 -24344125.493 6
  15157584.748   -44621434.871 7 -34567153.987 9
  19357018.694     -880164.199 3   -571394.508 4
 95  2 12 19 29 29.9820000  0  8 28 18 14 31 19 22 29 27
  18433512.951   -10974761.112 5  -8335237.608 5
  15329550.608   -41164456.978 7 -31729887.902 9
  17140484.483   -25984238.756 6 -20134451.483 6
  18759508.022    -4969066.144 3  -3630635.912 4
  16271844.365   -31340742.724 7 -24296294.105 8
  17683559.779   -31532658.288 6 -24325015.934 6
  15145803.279   -44683349.093 7 -34615398.871 9
  19329147.506    -1026618.112 3   -685514.404 2
 95  2 12 19 29 59.9820000  0  8 28 18 14 31 19 22 29 27
  18410330.303   -11096599.892 5  -8430176.894 5
  15307543.389   -41280106.468 7 -31820004.414 9
  17146687.233   -25951651.989 6 -20109059.381 6
  18729976.600    -5124220.968 3  -3751535.710 2
  16250079.467   -31455126.369 7 -24385424.220 8
  17688280.303   -31507877.476 6 -24305706.321 6
  15134091.779   -44744889.418 7 -34663352.411 9
  19301291.076    -1173000.293 3   -799578.372 3
 95  2 12 19 30 29.9820000  0  8 28 18 14 31 19 22 29 27
  18387207.443   -11218106.005 5  -8524856.928 5
  15285594.373   -41395453.713 7 -31909885.404 9
  17152934.686   -25918824.065 6 -20083479.361 6
  18700462.920    -5279344.092 3  -3872410.830 2
  16228357.162   -31569271.150 7 -24474368.208 8
  17693042.858   -31482840.878 6 -24286197.406 6
  15122452.951   -44806058.803 7 -34711016.907 9
  19273447.139    -1319289.906 3   -913570.237 4
 95  2 12 19 30 59.9820000  0  8 28 18 14 31 19 22 29 27
  18364154.233   -11339282.015 5  -8619279.758 5
  15263703.522   -41510505.351 7 -31999536.061 9
  17159225.865   -25885760.311 6 -20057715.586 6
  18670953.842    -5434424.167 3  -3993252.370 3
  16206676.342   -31683195.639 7 -24563140.542 8
  17697859.990   -31457549.147 6 -24266489.688 6
  15110881.967   -44866861.699 7 -34758395.823 9
  19245625.865    -1465486.844 3  -1027489.908 3
 95  2 12 19 31 29.9820000  0  8 28 18 14 31 19 22 29 27
  18341153.920   -11460127.403 5  -8713444.984 5
  15241865.951   -41625247.307 7 -32088945.399 9
  17165565.123   -25852452.994 6 -20031762.022 6
  18641448.436    -5589443.819 3  -4114046.820 2
  16185035.365   -31796921.043 7 -24651757.738 8
  17702715.858   -31431996.756 6 -24246578.854 6
  15099381.795   -44927299.124 7 -34805489.971 9
  19217820.412    -1611605.874 3  -1141348.845 2
 95  2 12 19 31 59.9810000  0  8 28 18 14 31 19 22 29 27
  18318230.587   -11580636.035 5  -8807347.772 5
  15220089.251   -41739676.418 7 -32178110.952 9
  17171948.337   -25818913.103 6 -20005627.227 6
  18611969.126    -5744399.417 4  -4234791.404 2
  16163432.157   -31910450.146 7 -24740221.982 8
  17707629.782   -31406181.424 6 -24226463.136 6
  15087949.884   -44987369.533 7 -34852298.119 9
  19190031.439    -1757639.248 3  -1255141.033 4
 95  2 12 19 32 29.9810000  0  8 28 18 14 31 19 22 29 27
  18295348.900   -11700814.326 5  -8900993.154 5
  15198378.290   -41853784.323 7 -32267026.209 9
  17178372.860   -25785141.967 6 -19979312.245 6
  18582491.509    -5899299.769 4  -4355492.905 2
  16141863.103   -32023787.548 7 -24828536.852 8
  17712591.407   -31380089.092 6 -24206131.576 6
  15076590.228   -45047068.915 7 -34898817.149 9
  19162260.501    -1903594.305 3  -1368872.228 3
 95  2 12 19 32 59.9810000  0  8 28 18 14 31 19 22 29 27
  18272549.079   -11820649.139 5  -8994370.905 5
  15176727.860   -41967547.170 7 -32355672.608 9
  17184846.556   -25751129.873 6 -19952809.507 6
  18553033.001    -6054111.946 5  -4476125.721 3
  16120333.446   -32136921.900 7 -24916693.503 8
  17717618.704   -31353714.924 6 -24185580.398 6
  15065303.087   -45106378.624 7 -34945032.548 9
  19134495.657    -2049479.250 3  -1482548.772 3
 95  2 12 19 33 29.9810000  0  8 28 18 14 31 19 22 29 27
  18249812.868   -11940138.716 5  -9087479.613 5
  15155146.665   -42080952.728 7 -32444040.596 9
  17191361.431   -25716887.559 6 -19926127.382 6
  18523583.876    -6208844.708 5  -4596696.679 3
  16098848.571   -32249848.838 7 -25004688.531 8
  17722689.064   -31327065.287 6 -24164814.555 6
  15054091.923   -45165293.040 7 -34990939.925 9
  19106752.743    -2195293.102 3  -1596169.910 3
 95  2 12 19 33 59.9810000  0  8 28 18 14 31 19 22 29 27
  18227142.118   -12059278.512 5  -9180315.757 5
  15133634.275   -42194004.079 7 -32532132.572 9
  17197920.001   -25682426.917 6 -19899275.123 6
  18494156.564    -6363512.004 4  -4717216.593 3
  16077398.189   -32362563.171 7 -25092517.891 8
  17727811.548   -31300139.170 6 -24143833.290 6
  15042956.970   -45223809.019 7 -35036536.835 9
  19079020.071    -2341021.278 3  -1709724.283 4
 95  2 12 19 34 29.9810000  0  8 28 18 14 31 19 22 29 27
  18204539.650   -12178069.261 5  -9272879.935 5
  15112188.314   -42306714.472 7
  17204517.439   -25647755.473 6 -19872258.618 6
  18464729.384    -6518123.385 5  -4837692.937 4
  16055987.196   -32475074.535 7
  17732982.814   -31272954.838 6 -24122650.816 6
  15031895.860   -45281932.310 7 -35081827.749 9
  19051302.790    -2486666.229 3  -1823213.821 3
 95  2 12 19 34 59.9810000  0  8 28 18 14 31 19 22 29 27
  18181999.603   -12296510.103 5  -9365171.444 5
  15090799.876   -42419111.980 7
  17211150.048   -25612893.293 6 -19845093.484 6
  18435316.798    -6672686.497 5  -4958131.664 3
  16034612.415   -32587395.092 7
  17738201.751   -31245534.091 6 -24101284.138 6
  15020908.032   -45339676.237 7 -35126823.051 9
  19023605.954    -2632230.970 4  -1936640.879 4
 95  2 12 19 35 29.9810000  0  8 28 18 14 31 19 22 29 27
  18159526.400   -12414597.963 5  -9457187.914 5
  15069470.603   -42531201.928 7
  17217823.704   -25577840.932 6 -19817780.159 6
  18405912.767    -6827212.610 5  -5078541.566 3
  16013273.900   -32699526.129 7
  17743462.071   -31217878.284 6 -24079734.280 6
  15009990.267   -45397055.653 7 -35171534.326 9
  18995923.657    -2777705.191 3  -2049997.427 4
 95  2 12 19 35 59.9810000  0  8 28 18 14 31 19 22 29 27
  18137117.353   -12532328.661 5  -9548926.083 5
  15048195.267   -42642999.992 7 -32881999.595 9
  17224528.665   -25542593.618 6 -19790314.919 5
  18376520.439    -6981689.999 5  -5198913.507 3
  15991972.860   -32811468.274 7 -25442314.122 8
  17748768.196   -31190000.507 6 -24058011.469 6
  14999139.814   -45454069.151 7 -35215960.467 9
  18968256.110    -2923101.372 3  -2163293.142 3
 95  2 12 19 36 29.9810000  0  8 28 18 14 31 19 22 29 27
  18114785.509   -12649702.329 5  -9640386.046 5
  15026974.517   -42754508.322 7 -32968889.218 9
  17231274.462   -25507151.031 6 -19762697.510 5
  18347132.892    -7136112.537 5  -5319242.716 4
  15970708.782   -32923219.970 7 -25529393.376 8
  17754111.165   -31161914.282 6 -24036126.198 6
  14988359.126   -45510724.061 7 -35260107.190 9
  18940601.728    -3068422.706 3  -2276530.545 4
 95  2 12 19 36 59.9810000  0  8 28 18 14 31 19 22 29 27
  18092516.157   -12766711.951 5  -9731562.361 5
  15005813.235   -42865707.788 7 -33055538.173 9
  17238056.782   -25471505.366 6 -19734921.869 5
  18317762.993    -7290454.520 5  -5439509.157 4
  15949481.532   -33034775.814 7 -25616320.017 8
  17759498.985   -31133614.485 6 -24014074.519 6
  14977645.189   -45567022.455 7 -35303976.110 9
  18912963.196    -3213662.154 3  -2389704.163 3
 95  2 12 19 37 29.9810000  0  8 28 18 14 31 19 22 29 27
  18070325.251   -12883355.629 5  -9822453.522 5
  14984718.103   -42976580.847 7 -33141932.775 9
  17244881.923   -25435649.629 6 -19706982.534 6
  18288411.485    -7444695.233 4  -5559696.657 4
  15928286.439   -33146127.250 7 -25703087.378 8
  17764924.657   -31105093.778 6 -23991850.710 6
  14967004.353   -45622946.483 7 -35347553.312 9
  18885339.720    -3358828.083 3  -2502820.490 3
 95  2 12 19 37 59.9810000  0  8 28 18 14 31 19 22 29 27
  18048196.142   -12999631.272 5  -9913057.903 6
  14963679.689   -43087127.380 7 -33228072.955 9
  17251744.243   -25399591.971 5 -19678885.883 5
  18259076.337    -7598832.589 4  -5679803.644 4
  15907139.267   -33257274.054 7 -25789695.293 8
  17770391.118   -31076343.310 6 -23969447.853 6
  14956434.876   -45678484.476 7 -35390829.708 9
  18857727.876    -3503933.371 3  -2615889.565 2
 95  2 12 19 38 29.9810000  0  8 28 18 14 31 19 22 29 27
  18026131.071   -13115537.196 5 -10003374.188 6
  14942709.251   -43197333.358 7 -33313947.762 9
  17258640.689   -25363337.966 5 -19650636.214 6
  18229768.040    -7752867.805 4  -5799831.043 5
  15886025.892   -33368210.565 7 -25876139.337 8
  17775918.204   -31047348.269 6 -23946854.435 6
  14945941.556   -45733635.929 7 -35433804.906 9
  18830125.017    -3648972.585 4  -2728907.182 4
 95  2 12 19 38 59.9810000  0  8 28 18 14 31 19 22 29 27
  18004161.954   -13231068.489 5 -10093398.547 6
  14921802.173   -43307189.961 7 -33399550.323 9
  17265577.915   -25326889.145 5 -19622234.754 6
  18200472.485    -7906795.030 4  -5919774.277 4
  15864963.368   -33478928.309 7 -25962412.911 8
  17781477.571   -31018110.426 6 -23924071.813 6
  14935523.048   -45788380.896 7 -35476463.362 9
  18802538.001    -3793956.407 4  -2841881.638 4
 95  2 12 19 39 29.9810000  0  8 28 18 14 31 19 22 29 27
  17982241.743   -13346227.635 5 -10183132.920 6
  14900964.798   -43416707.553 7 -33484888.720 9
  17272550.181   -25290252.649 5 -19593687.055 5
  18171199.064    -8060643.635 5  -6039656.266 5
  15843929.071   -33589424.667 7 -26048513.985 8
  17787079.517   -30988646.809 5 -23901113.256 6
  14925182.923   -45842714.675 7 -35518801.408 9
  18774953.939    -3938894.881 4  -2954820.783 4
 95  2 12 19 39 59.9810000  0  8 28 18 14 31 19 22 29 27
  17960389.493   -13461008.348 5 -10272572.421 6
  14880189.064   -43525880.153 7 -33569958.298 9
  17279556.767   -25253423.727 5 -19564989.413 5
  18141941.282    -8214415.757 5  -6159478.637 3
  15822948.025   -33699701.698 7 -26134444.156 8
  17792732.040   -30958975.680 6 -23877992.992 6
  14914921.985   -45896643.844 7 -35560824.174 9
  18747391.009    -4083768.710 4  -3067709.528 2
 95  2 12 19 40 29.9810000  0  8 28 18 14 31 19 22 29 27
  17938631.017   -13575409.848 5 -10361716.433 6
  14859478.134   -43634699.828 7 -33654752.866 9
  17286601.907   -25216415.397 5 -19536151.970 5
  18112695.064    -8368095.396 5  -6279228.965 4
  15802004.204   -33809766.790 7 -26220209.173 8
  17798410.767   -30929127.954 5 -23854735.126 6
  14904736.259   -45950171.502 7 -35602534.073 9
  18719832.071    -4228561.231 5  -3180534.920 3
 95  2 12 19 40 59.9810000  0  8 28 18 14 31 19 22 29 27
  17916930.509   -13689432.461 5 -10450565.209 6
  14838837.837   -43743173.596 7 -33739277.883 9
  17293676.150   -25179236.375 5 -19507181.518 5
  18083470.853    -8521677.471 5  -6398903.234 4
  15781098.525   -33919630.321 7 -26305817.129 8
  17804124.548   -30899112.004 5 -23831346.187 6
  14894625.439   -46003302.225 7 -35643934.677 9
  18692294.431    -4373279.446 4  -3293302.394 4
 95  2 12 19 41 29.9810000  0  8 28 18 14 31 19 22 29 27
  17895313.939   -13803063.799 5 -10539109.097 6
  14818263.931   -43851288.708 7 -33823523.433 9
  17300788.720   -25141876.621 5 -19478070.252 5
  18054269.204    -8675133.863 5  -6518479.572 4
  15760231.259   -34029293.255 7 -26391268.780 8
  17809877.001   -30868906.196 5 -23807809.300 6
  14884590.071   -46056033.713 7 -35685024.183 9
  18664775.079    -4517895.802 4  -3405990.501 3
 95  2 12 19 41 59.9810000  0  8 28 18 14 31 19 22 29 27
  17873757.251   -13916299.797 5 -10627344.916 6
  14797760.376   -43959033.516 7 -33907480.439 9
  17307926.782   -25104347.437 5 -19448826.966 5
  18025091.704    -8828428.583 5  -6637929.932 5
  15739400.970   -34138754.610 7 -26476563.357 8
  17815661.118   -30838485.983 5 -23784105.338 6
  14874632.345   -46108368.286 7 -35725804.408 9
  18637278.892    -4662400.385 4  -3518591.536 3
 95  2 12 19 42 29.9810000  0  8 28 18 14 31 19 22 29 27
  17852291.306   -14029138.425 5 -10715271.107 6
  14777327.267   -44066414.457 7 -33991153.908 9
  17315098.735   -25066656.781 5 -19419457.855 5
  17995953.470    -8981554.577 5  -6757248.837 4
  15718609.712   -34247997.289 7 -26561687.529 8
  17821488.220   -30807828.326 5 -23760216.373 6
  14864748.150   -46160310.288 7 -35766278.732 9
  18609801.493    -4806788.606 4  -3631101.878 4
 95  2 12 19 42 59.9810000  0  8 28 18 14 31 19 22 29 27
  17830897.017   -14141579.451 5 -10802887.474 6
  14756961.939   -44173447.749 7 -34074556.474 9
  17322302.954   -25028804.963 5 -19389963.168 5
  17966845.267    -9134523.099 5  -6876445.003 3
  15697860.782   -34357016.742 7 -26646637.771 8
  17827373.321   -30776919.074 5 -23736131.347 6
  14854936.282   -46211865.227 7 -35806451.444 9
  18582346.470    -4951066.674 4  -3743526.383 4
 95  2 12 19 43 29.9800000  0  8 28 18 14 31 19 22 29 27
  17809566.895   -14253611.794 5 -10890185.391 6
  14736658.535   -44280121.781 7 -34157679.107 9
  17329534.910   -24990792.729 5 -19360343.485 6
  17937770.231    -9287333.932 5  -6995518.304 3
  15677166.184   -34465799.747 7 -26731403.754 8
  17833301.285   -30745768.682 5 -23711858.421 6
  14845200.395   -46263032.064 7 -35846321.742 9
  18554917.160    -5095221.950 4  -3855855.192 4
 95  2 12 19 43 59.9800000  0  8 28 18 14 31 19 22 29 27
  17788329.699   -14365238.507 5 -10977167.219 6
  14716426.020   -44386458.106 7 -34240538.586 9
  17336799.902   -24952622.888 5 -19330601.003 6
  17908716.184    -9440012.870 5  -7114488.816 4
  15656508.832   -34574345.741 7 -26815985.057 8
  17839274.488   -30714394.527 5 -23687411.137 6
  14835534.301   -46313826.160 7 -35885901.600 9
  18527499.637    -5239275.510 3  -3968104.731 5
 95  2 12 19 44 29.9800000  0  8 28 18 14 31 19 22 29 27
  17767163.801   -14476460.847 5 -11063833.953 6
  14696252.356   -44492466.509 7 -34323142.542 9
  17344094.332   -24914296.763 5 -19300736.746 5
  17879679.770    -9592583.188 5  -7233374.691 3
  15635895.676   -34682673.166 7 -26900396.043 8
  17845280.379   -30682840.471 5 -23662823.680 6
  14825940.559   -46364243.215 7 -35925187.654 9
  18500103.277    -5383245.843 3  -4080289.400 5
 95  2 12 19 44 59.9800000  0  8 28 18 14 31 19 22 29 27
  17746074.692   -14587275.483 5 -11150182.992 6
  14676148.192   -44598127.771 7 -34405475.994 9
  17351417.902   -24875810.050 5 -19270747.320 5
  17850661.895    -9745057.047 5  -7352185.402 4
  15615312.777   -34790808.943 7 -26984657.688 8
  17851315.504   -30651130.418 5 -23638114.655 6
  14816422.340   -46414263.855 7 -35964164.816 9
  18472718.176    -5527157.215 4  -4192428.149 5
 95  2 12 19 45 29.9800000  0  8 28 18 14 31 19 22 29 27
  17725069.067   -14697675.035 5 -11236208.576 6
  14656109.090   -44703414.143 7 -34487517.334 9
  17358775.051   -24837148.058 5 -19240621.333 5
  17821672.317    -9897411.172 5  -7470902.795 4
  15594776.004   -34898751.606 7 -27068768.862 8
  17857377.949   -30619270.495 5 -23613288.864 6
  14806982.387   -46463866.952 7 -36002816.618 9
  18445344.848    -5671011.802 4  -4304522.640 5
 95  2 12 19 45 59.9800000  0  8 28 18 14 31 19 22 29 27
  17704141.160   -14807659.167 5 -11321910.465 6
  14636147.465   -44808314.381 7 -34569257.794 9
  17366167.363   -24798303.767 5 -19210353.294 5
  17792710.902   -10049625.927 5  -7589511.606 4
  15574271.965   -35006509.149 7 -27152735.781 8
  17863468.676   -30587252.602 5 -23588339.967 6
  14797626.543   -46513035.121 7 -36041129.519 9
  18417981.121    -5814811.224 4  -4416574.121 5
 95  2 12 19 46 29.9800000  0  8 28 18 14 31 19 22 29 27
  17683285.613   -14917222.006 5 -11407284.054 6
  14616265.277   -44912803.372 7 -34650677.788 9
  17373595.856   -24759267.481 5 -19179935.674 5
  17763774.731   -10201688.223 5  -7708001.614 5
  15553801.160   -35114083.059 7 -27236559.609 8
  17869594.871   -30555056.142 5 -23563251.924 6
  14788357.262   -46561748.881 7 -36079088.339 9
  18390627.871    -5958548.016 4  -4528576.802 5
 95  2 12 19 46 59.9800000  0  8 28 18 14 31 19 22 29 27
  17662523.598   -15026358.744 5 -11492325.633 6
  14596461.340   -45016876.117 7 -34731773.436 9
  17381061.934   -24720041.353 5 -19149370.110 5
  17734866.621   -10353576.436 5  -7826355.988 4
  15533368.262   -35221462.645 7 -27320232.012 8
  17875762.481   -30522661.052 6 -23538009.109 6
  14779170.559   -46610020.945 7 -36116702.974 9
  18363292.231    -6102211.927 5  -4640522.673 5
 95  2 12 19 47 29.9800000  0  8 28 18 14 31 19 22 29 27
  17641846.262   -15135066.897 5 -11577033.254 6
  14576735.324   -45120545.625 7 -34812554.880 9
  17388559.840   -24680638.705 5 -19118667.008 5
  17706000.738   -10505277.007 5  -7944564.141 4
  15512970.988   -35328629.456 7 -27403738.612 8
  17881963.676   -30490051.376 5 -23512599.064 6
  14770064.090   -46657873.738 7 -36153990.908 9
  18335965.207    -6245784.302 4  -4752397.246 5
 95  2 12 19 47 59.9800000  0  8 28 18 14 31 19 22 29 27
  17621224.418   -15243352.405 5 -11661411.543 5
  14557076.996   -45223840.600 7 -34893044.489 9
  17396085.824   -24641081.370 5 -19087843.383 5
  17677165.621   -10656804.612 5  -8062637.525 5
  15492620.981   -35435588.469 7 -27487083.304 8
  17888214.309   -30457231.375 5 -23487025.154 6
  14761031.957   -46705338.808 7 -36190976.718 9
  18308664.574    -6389266.767 4  -4864201.715 4
 95  2 12 19 48 29.9800000  0  8 28 18 14 31 19 22 29 27
  17600703.645   -15351209.946 5 -11745456.347 5
  14537492.027   -45326767.695 7 -34973247.429 9
  17403638.613   -24601389.868 5 -19056915.194 5
  17648362.895   -10808171.823 5  -8180585.967 3
  15472305.551   -35542332.853 7 -27570260.737 8
  17894497.590   -30424207.632 5 -23461292.467 5
  14752071.606   -46752433.116 7 -36227673.624 9
  18281382.043    -6532659.538 5  -4975936.313 4
 95  2 12 19 48 59.9800000  0  8 28 18 14 31 19 22 29 27
  17580269.762   -15458632.300 5 -11829162.044 5
  14517973.957   -45429324.343 7 -35053161.706 9
  17411213.402   -24561583.184 5 -19025897.262 5
  17619586.840   -10959372.800 5  -8298404.832 4
  15452036.215   -35648854.340 7 -27653264.490 8
  17900814.418   -30390991.951 5 -23435410.240 6
  14743182.254   -46799144.636 7 -36264072.250 9
  18254111.449    -6675952.509 5  -5087593.159 4
 95  2 12 19 49 29.9800000  0  8 28 18 14 31 19 22 29 27
  17559904.246   -15565623.594 5 -11912531.848 6
  14498530.738   -45531516.770 7 -35132792.177 9
  17418807.965   -24521675.989 5 -18994801.023 5
  17590847.434   -11110421.544 5  -8416105.115 4
  15431805.981   -35755149.738 7 -27736092.070 8
  17907169.137   -30357596.672 5 -23409388.053 6
  14734369.613   -46845461.757 7 -36300163.554 9
  18226864.574    -6819145.455 5  -5199172.063 5
 95  2 12 19 49 59.9800000  0  8 28 18 14 31 19 22 29 27
  17539627.957   -15672182.333 5 -11995564.586 6
  14479152.817   -45633337.715 7 -35212133.192 9
  17426420.324   -24481672.260 5 -18963629.563 5
  17562128.793   -11261318.067 5  -8533686.760 3
  15411619.762   -35861232.543 7 -27818753.990 8
  17913556.606   -30324044.651 5 -23383243.737 6
  14725632.027   -46891369.861 7 -36335936.137 9
  18199630.317    -6962246.453 5  -5310679.287 5
 95  2 12 19 50 29.9800000  0  8 28 18 14 31 19 22 29 27
  17519434.973   -15778310.313 5
  14459847.887   -45734779.629 7 -35291178.845 9
  17434051.379   -24441582.041 5 -18932390.698 5
  17533444.223   -11412066.704 5  -8651153.193 5
  15391472.973   -35967113.830 7
  17919966.496   -30290350.179 5 -23356988.425 6
  14716976.481   -46936854.774 7 -36371378.967 9
  18172413.121    -7105261.492 5  -5422119.550 5
 95  2 12 19 50 59.9800000  0  8 28 18 14 31 19 22 29 27
  17499322.160   -15884002.237 5
  14440617.613   -45835833.147 7 -35369921.855 9
  17441697.348   -24401395.203 5 -18901076.568 5
  17504794.699   -11562635.376 5  -8768479.412 4
  15371364.754   -36072786.320 7
  17926406.098   -30256511.378 5 -23330620.642 5
  14708404.551   -46981905.013 7 -36406483.091 9
  18145222.152    -7248187.573 5  -5533490.469 5
 95  2 12 19 51 29.9800000  0  8 28 18 14 31 19 22 29 27
  17479291.520   -15989255.752 5 -12242634.701 6
  14421464.176   -45936493.103 7 -35448358.201 9
  17449367.145   -24361090.394 5 -18869670.518 5
  17476177.996   -11713011.001 5  -8885655.193 5
  15351292.067   -36178255.416 7 -28065784.772 8
  17932873.270   -30222526.163 5 -23304138.769 5
  14699908.770   -47026540.450 7 -36441263.990 9
  18118037.652    -7391039.356 5  -5644803.521 5
 95  2 12 19 51 59.9800000  0  8 28 18 14 31 19 22 29 27
  17459345.793   -16094069.830 5 -12324308.000 6
  14402385.856   -46036756.201 7 -35526485.299 9
  17457059.481   -24320663.144 5 -18838169.062 4
  17447602.363   -11863179.354 5  -9002669.437 5
  15331260.402   -36283529.430 7 -28147816.458 8
  17939366.356   -30188401.639 5 -23277548.333 5
  14691492.246   -47070773.758 7 -36475731.536 9
  18090864.246    -7533820.127 5  -5756061.241 5
 95  2 12 19 52 29.9800000  0  8 28 18 14 31 19 22 29 27
  17439489.442   -16198437.936 5 -12405633.759 6
  14383380.348   -46136617.369 7 -35604299.206 9
  17464780.793   -24280103.422 5 -18806564.366 5
  17419065.965   -12013124.627 5  -9119509.866 5
  15311268.918   -36388597.309 7 -28229687.527 8
  17945892.129   -30154119.890 5 -23250835.390 5
  14683152.090   -47114603.059 7 -36509884.275 9
  18063709.520    -7676513.400 5  -5867250.790 5
 95  2 12 19 52 59.9800000  0  8 28 18 14 31 19 22 29 27
  17419703.613   -16302356.037 5 -12486608.894 6
  14364459.707   -46236065.739 7 -35681791.458 9
  17472524.746   -24239404.146 5 -18774850.937 5
  17390575.824   -12162845.926 5  -9236175.754 5
  15291311.754   -36493449.816 7 -28311390.774 8
  17952449.059   -30119674.509 5 -23223994.950 5
  14674888.238   -47158027.595 7 -36543721.618 9
  18036577.176    -7819114.895 5  -5978368.824 4
 95  2 12 19 53 29.9800000  0  8 28 18 14 31 19 22 29 27
  17400017.324   -16405828.189 5 -12567236.531 6
  14345607.090   -46335113.802 7 -35758971.772 9
  17480295.996   -24198565.790 5 -18743029.152 5
  17362125.918   -12312369.648 5  -9352687.682 5
  15271400.668   -36598103.098 7 -28392938.785 8
  17959031.223   -30085075.034 5 -23197034.430 5
  14666702.567   -47201049.510 7 -36577245.225 9
  18009457.231    -7961613.811 5  -6089406.905 5
 95  2 12 19 53 59.9800000  0  8 28 18 14 31 19 22 29 27
  17380409.817   -16508848.006 5 -12647511.692 6
  14326834.262   -46433770.613 7 -35835847.215 9
  17488091.207   -24157602.541 5 -18711110.037 5
  17333709.106   -12461693.225 5  -9469043.638 5
  15251526.801   -36702550.340 7 -28474326.240 8
  17965645.293   -30050317.042 5 -23169950.403 5
  14658596.535   -47243645.276 7 -36610436.769 9
  17982362.840    -8103996.977 5  -6200354.817 5
 95  2 12 19 54 29.9800000  0  8 28 18 14 31 19 22 29 27
  17360895.910   -16611413.713 5 -12727433.008 6
  14308133.067   -46532039.298 7 -35912420.224 9
  17495907.074   -24116525.912 5 -18679102.591 5
  17305319.988   -12610825.062 5  -9585250.178 5
  15231687.098   -36806795.019 7 -28555555.855 8
  17972293.035   -30015394.904 5 -23142738.455 5
  14650573.879   -47285808.402 7 -36643291.196 9
  17955285.856    -8246279.425 5  -6311224.251 4
 95  2 12 19 54 59.9790000  0  8 28 18 14 31 19 22 29 27
  17341462.882   -16713525.584 5 -12807000.667 6
  14289508.452   -46629918.718 7 -35988689.909 9
  17503745.687   -24075348.738 5 -18647016.799 5
  17276981.569   -12759768.958 5  -9701310.266 5
  15211888.304   -36910839.283 7 -28636629.306 8
  17978966.077   -29980329.439 5 -23115414.823 5
  14642633.148   -47327537.600 7 -36675807.486 9
  17928230.827    -8388478.422 5  -6422028.641 5
 95  2 12 19 55 29.9790000  0  8 28 18 14 31 19 22 29 27
  17322108.077   -16815187.145 5 -12886217.451 6
  14270953.030   -46727426.183 7 -36064669.749 9
  17511600.030   -24034071.284 5 -18614852.872 5
  17248675.757   -12908520.088 5  -9817220.142 5
  15192126.921   -37014698.575 7 -28717558.627 8
  17985662.780   -29945128.813 5 -23087985.883 5
  14634774.398   -47368832.401 7 -36707985.293 9
  17901188.218    -8530602.072 5  -6532774.304 5
 95  2 12 19 55 59.9790000  0  8 28 18 14 31 19 22 29 27
  17302860.523   -16916390.642 5 -12965077.298 6
  14252471.601   -46824542.899 7 -36140345.122 9
  17519472.421   -23992711.471 5 -18582624.774 5
  17220412.015   -13057057.583 5  -9932963.532 5
  15172398.304   -37118362.325 7 -28798335.574 9
  17992384.202   -29909791.668 5 -23060450.544 5
  14626997.046   -47409695.234 7 -36739826.494 9
  17874152.163    -8672661.152 5  -6643469.636 5
 95  2 12 19 56 29.9790000  0  8 28 18 14 31 19 22 29 27
  17283691.484   -17017137.085 5 -13043580.994 6
  14234073.273   -46921248.479 7 -36215700.118 9
  17527355.718   -23951271.156 5 -18550333.944 5
  17192184.491   -13205391.191 5 -10048548.034 5
  15152705.952   -37221831.990 7 -28878961.286 8
  17999134.843   -29874330.123 5 -23032818.262 5
  14619303.952   -47450133.120 7 -36771336.581 9
  17847133.859    -8814655.535 5  -6754114.556 5
 95  2 12 19 56 59.9790000  0  8 28 18 14 31 19 22 29 27
  17264602.616   -17117423.615 5 -13121726.319 6
  14215748.023   -47017531.432 7 -36290725.798 9
  17535256.366   -23909747.098 5 -18517977.884 5
  17164001.124   -13353514.984 5 -10163969.053 5
  15133058.257   -37325105.881 7 -28959434.445 8
  18005908.312   -29838746.197 5 -23005090.636 5
  14611688.015   -47490152.086 7 -36802520.237 9
  17820129.796    -8956565.214 5  -6864693.466 5
 95  2 12 19 57 29.9790000  0  8 28 18 14 31 19 22 29 27
  17245607.976   -17217251.537 5 -13199514.256 6
  14197505.593   -47113397.996 7 -36365427.021 9
  17543176.429   -23868144.574 5 -18485560.666 5
  17135847.210   -13501419.571 5 -10279219.232 5
  15113441.069   -37428181.164 7 -29039752.842 8
  18012705.812   -29803028.832 5 -22977259.025 5
  14604148.226   -47529773.581 7 -36833394.159 9
  17793136.944    -9098394.800 5  -6975209.962 5
 95  2 12 19 57 59.9790000  0  8 28 18 14 31 19 22 29 27
  17226696.898   -17316622.195 5 -13276945.926 6
  14179347.249   -47208841.447 7 -36439798.538 9
  17551103.944   -23826477.619 5 -18453093.261 5
  17107746.210   -13649115.737 5 -10394307.010 5
  15093865.952   -37531043.230 7 -29119905.097 9
  18019530.382   -29767167.982 5 -22949315.597 5
  14596683.015   -47569002.359 7 -36863962.077 9
  17766155.702    -9240157.988 5  -7085674.704 5
 95  2 12 19 58 29.9790000  0  8 28 18 14 31 19 22 29 27
  17207882.101   -17415527.359 5 -13354014.831 6
  14161263.968   -47303862.719 7 -36513841.089 9
  17559048.773   -23784732.703 5 -18420565.087 5
  17079682.116   -13796598.798 5 -10509228.744 5
  15074332.796   -37633686.059 7 -29199886.522 8
  18026378.780   -29731164.375 5 -22921260.937 5
  14589293.796   -47607835.644 7 -36894221.825 9
  17739201.398    -9381838.266 5  -7196074.847 5
 95  2 12 19 58 59.9790000  0  8 28 18 14 31 19 22 29 27
  17189143.499   -17513963.473 5 -13430718.253 6
  14143259.530   -47398479.573 7 -36587568.510 9
  17567007.319   -23742909.738 5 -18387976.130 5
  17051659.913   -13943849.039 5 -10623969.057 5
  15054842.976   -37736109.313 7 -29279696.842 8
  18033256.702   -29695025.579 5 -22893100.943 5
  14581978.851   -47646274.641 7 -36924174.334 9
  17712256.382    -9523436.563 5  -7306411.106 5
 95  2 12 19 59 29.9790000  0  8 28 18 14 31 19 22 29 27
  17170505.601   -17611933.807 5 -13507058.717 6
  14125325.913   -47492701.683 7 -36660988.331 9
  17574982.491   -23701014.445 5 -18355330.781 5
  17023685.452   -14090863.331 5 -10738525.503 5
  15035393.827   -37838318.918 7 -29359340.683 9
  18040152.702   -29658781.200 5 -22864858.675 5
  14574738.327   -47684317.957 7 -36953818.518 9
  17685322.960    -9664960.239 5  -7416689.205 5
 95  2 12 19 59 59.9790000  0  8 28 18 14 31 19 22 29 27
  17151942.523   -17709436.493 5 -13583034.779 5
  14107471.187   -47586522.578 7 -36734095.523 9
  17582966.991   -23659053.358 5 -18322634.198 5
  16995755.944   -14237646.952 5 -10852902.221 5
  15015985.749   -37940333.729 7 -29438832.725 8
  18047067.671   -29622455.510 5 -22836553.058 5
  14567580.515   -47721941.882 7 -36983135.907 9
  17658405.218    -9806399.484 5  -7526901.523 5
 95  2 12 20  0 29.9790000  0  8 28 18 14 31 19 22 29 27
  17133486.390   -17806464.138 5 -13658640.686 6
  14089700.257   -47679934.740 7 -36806884.214 9
  17590966.905   -23617008.823 5 -18289872.565 4
  16967868.991   -14384184.529 5 -10967087.206 5
  14996601.015   -38042173.065 7 -29518188.047 8
  18053995.687   -29586053.637 5 -22808188.074 5
  14560501.171   -47759145.766 7 -37012125.996 9
  17631510.687    -9947740.457 5  -7637037.248 5
 95  2 12 20  0 59.9790000  0  8 28 18 14 31 19 22 29 27
  17115115.062   -17903022.814 5 -13733881.148 5
  14071998.202   -47772943.163 7 -36879358.308 9
  17598981.273   -23574889.421 5 -18257052.598 5
  16940028.554   -14530477.373 5 -11081081.508 5
  14977255.093   -38143848.292 7 -29597415.489 9
  18060938.702   -29549569.147 5 -22779758.713 5
  14553501.429   -47795926.914 7 -37040786.670 9
  17604632.187   -10089003.498 5  -7747112.265 5
 95  2 12 20  1 29.9790000  0  8 28 18 14 31 19 22 29 27
  17096821.343   -17999105.543 5 -13808750.760 6
  14054378.671   -47865530.786 7 -36951504.507 9
  17607010.538   -23532693.151 5 -18224172.753 5
  16912234.140   -14676535.831 5 -11194893.165 5
  14957941.069   -38245358.215 7 -29676514.122 9
  18067893.687   -29512982.108 5 -22751249.452 5
  14546582.202   -47832287.729 7 -37069119.819 9
  17577755.421   -10230185.380 5  -7857124.063 5
 95  2 12 20  1 59.9790000  0  8 28 18 14 31 19 22 29 27
  17078636.046   -18094720.265 5 -13883255.673 5
  14036839.444   -47957702.722 7 -37023326.792 9
  17615052.366   -23490445.893 5 -18191253.171 4
  16884482.515   -14822372.405 5 -11308531.946 5
  14938653.655   -38346713.747 7 -29755492.444 8
  18074879.116   -29476278.450 5 -22722649.322 5
  14539739.944   -47868240.417 7 -37097134.950 9
  17550911.929   -10371305.700 5  -7967087.834 5
 95  2 12 20  2 29.9790000  0  8 28 18 14 31 19 22 29 27
  17060530.218   -18189854.247 5 -13957386.000 6
  14019380.687   -48049444.113 7 -37094813.591 9
  17623101.694   -23448141.840 5 -18158289.337 3
  16856778.405   -14967969.497 5 -11421984.115 5
  14919397.905   -38447884.168 7 -29834326.524 9
  18081892.312   -29439437.080 4 -22693941.875 5
  14532975.429   -47903791.615 7 -37124837.226 9
  17524066.312   -10512358.561 5  -8076999.049 5
 95  2 12 20  2 59.9790000  0  8 28 18 14 31 19 22 29 27
  17042518.257   -18284506.051 5 -14031140.593 6
  14002007.655   -48140752.272 7 -37165962.806 9
  17631158.359   -23405799.847 5 -18125295.932 5
  16829116.843   -15113320.079 5 -11535244.187 5
  14900182.226   -38548853.425 7 -29913003.859 9
  18088927.960   -29402476.584 4 -22665141.633 5
  14526286.140   -47938942.881 7 -37152227.868 9
  17497241.132   -10653346.400 5  -8186859.608 5
 95  2 12 20  3 29.9790000  0  8 28 18 14 31 19 22 29 27
  17024595.109   -18378679.466 5 -14104522.410 6
  13984714.038   -48231623.903 7 -37236771.871 9
  17639220.241   -23363434.845 5 -18092284.611 4
  16801506.780   -15258409.036 5 -11648300.406 5
  14881009.374   -38649624.146 7 -29991526.480 9
  18095976.827   -29365425.766 4 -22636270.978 4
  14519673.046   -47973695.612 7 -37179307.956 9
  17470422.101   -10794265.222 5  -8296666.376 5
 95  2 12 20  3 59.9790000  0  8 28 18 14 31 19 22 29 27
  17006772.687   -18472369.186 5 -14177527.338 6
  13967507.765   -48322053.044 7 -37307236.141 9
  17647289.226   -23321051.283 5 -18059258.817 3
  16773954.851   -15403207.146 5 -11761129.997 5
  14861870.155   -38750183.107 7 -30069884.099 9
  18103045.999   -29328287.367 5 -22607332.094 3
  14513138.609   -48008031.795 7 -37206063.469 9
  17443617.163   -10935112.783 5  -8406417.601 5
 95  2 12 20  4 29.9790000  0  8 28 18 14 31 19 22 29 27
  16989027.140   -18565573.333 5 -14250153.906 6
  13950379.882   -48412045.454 7 -37377360.098 9
  17655358.726   -23278632.915 4 -18026205.924 3
  16746454.132   -15547715.127 5 -11873733.501 5
  14842778.523   -38850528.810 7 -30148075.542 8
  18110128.226   -29291071.378 5 -22578332.712 4
  14506683.468   -48041949.025 7 -37232492.524 9
  17416831.226   -11075877.893 5  -8516104.614 5
 95  2 12 20  4 59.9790000  0  8 28 18 14 31 19 22 29 27
  16971385.937   -18658287.151 5 -14322398.411 6
  13933337.819   -48501608.524 7 -37447149.510 9
  17663437.476   -23236175.252 4 -17993122.428 4
  16719012.429   -15691921.582 5 -11986102.060 5
  14823724.616   -38950670.839 7 -30226108.283 8
  18117224.054   -29253772.857 5 -22549269.035 3
  14500312.710   -48075432.103 7 -37258583.280 9
  17390066.640   -11216550.757 5  -8625719.726 5
 95  2 12 20  5 29.9790000  0  8 28 18 14 31 19 22 29 27
  16953839.187   -18750513.278 5 -14394262.882 6
  13916373.335   -48590750.371 7 -37516610.700 9
  17671525.968   -23193686.618 4 -17960014.806 3
  16691627.530   -15835839.982 5 -12098246.155 5
  14804704.648   -39050611.498 7 -30303984.103 9
  18124342.687   -29216368.152 5 -22520122.627 3
  14494025.890   -48108476.832 7 -37284332.466 9
  17363310.202   -11357140.286 5  -8735269.917 5
 95  2 12 20  5 59.9790000  0  8 28 18 14 31 19 22 29 27
  16936377.546   -18842251.062 5 -14465746.844 6
  13899490.234   -48679474.396 7 -37585746.298 9
  17679613.898   -23151176.155 4 -17926890.158 3
  16664288.960   -15979502.555 5 -12210190.912 5
  14785723.234   -39150354.348 7 -30381705.794 8
  18131485.210   -29178852.090 5 -22490889.440 5
  14487818.116   -48141089.145 7 -37309744.709 9
  17336572.101   -11497657.079 5  -8844763.472 5
 95  2 12 20  6 29.9780000  0  8 28 18 14 31 19 22 29 27
  16919017.182   -18933496.960 5 -14536847.511 6
  13882687.213   -48767788.904 7 -37654562.807 9
  17687709.182   -23108640.872 4 -17893746.172 2
  16636998.729   -16122907.586 5 -12321934.966 5
  14766774.994   -39249910.296 7 -30459281.842 8
  18138637.776   -29141238.004 5 -22461579.885 5
  14481695.041   -48173271.583 7 -37334821.980 9
  17309849.729   -11638096.787 5  -8954196.950 5
 95  2 12 20  6 59.9780000  0  8 28 18 14 31 19 22 29 27
  16901747.963   -19024255.321 5 -14607568.287 6
  13865958.549   -48855685.035 7 -37723053.306 9
  17695805.268   -23066084.506 4 -17860585.783 3
  16609760.604   -16266049.464 5 -12433473.973 5
  14747868.143   -39349287.512 7 -30536718.621 9
  18145815.377   -29103531.364 5 -22432198.214 4
  14475653.697   -48205020.503 7 -37359561.446 9
  17283132.658   -11778480.230 5  -9063586.585 5
 95  2 12 20  7 29.9780000  0  8 28 18 14 31 19 22 29 27
  16884567.947   -19114517.510 5 -14677902.433 6
  13849319.026   -48943146.531 7 -37791205.120 9
  17703907.596   -23023503.727 3 -17827406.354 3
  16582570.619   -16408930.438 5 -12544809.689 5
  14728989.119   -39448478.997 7 -30614010.669 8
  18153006.127   -29065748.272 5 -22402756.969 5
  14469692.877   -48236335.742 7 -37383962.978 9
  17256433.385   -11918804.876 5  -9172930.419 5
 95  2 12 20  7 59.9780000  0  8 28 18 14 31 19 22 29 27
  16867488.244   -19204284.877 6 -14747851.021 6
  13832754.744   -49030183.502 7 -37859026.146 9
  17712021.174   -22980884.055 3 -17794196.660 2
  16555433.908   -16551540.035 5 -12655933.927 5
  14710146.432   -39547506.073 7 -30691174.609 9
  18160203.026   -29027921.461 5 -22373281.636 5
  14463815.932   -48267230.160 7 -37408036.596 9
  17229737.627   -12059058.526 5  -9282218.925 5
 95  2 12 20  8 29.9780000  0  8 28 18 14 31 19 22 29 27
  16850503.479   -19293556.118 6 -14817413.010 6
  13816271.760   -49116799.070 7 -37926518.800 9
  17720141.979   -22938212.357 4 -17760946.413 2
  16528349.729   -16693856.503 5 -12766829.766 6
  14691334.893   -39646367.924 7 -30768209.805 8
  18167409.213   -28990059.455 5 -22343778.894 5
  14458014.018   -48297713.724 7 -37431790.073 9
  17203062.276   -12199231.697 5  -9391444.726 5
 95  2 12 20  8 59.9780000  0  8 28 18 14 31 19 22 29 27
  16833613.494   -19382330.975 6 -14886588.192 6
  13799874.588   -49202973.099 7 -37993667.390 9
  17728274.674   -22895499.575 4 -17727664.168 5
  16501325.588   -16835886.018 5 -12877502.000 5
  14672554.385   -39745049.715 7 -30845104.692 9
  18174618.643   -28952161.486 4 -22314248.125 5
  14452291.651   -48327788.477 7 -37455224.991 9
  17176403.424   -12339318.091 5  -9500602.907 5
 95  2 12 20  9 29.9780000  0  8 28 18 14 31 19 22 29 27
  16816812.580   -19470604.326 6 -14955372.605 6
  13783559.729   -49288708.257 7 -38060474.014 9
  17736407.393   -22852750.845 4 -17694353.897 4
  16474348.924   -16977624.121 5 -12987947.170 5
  14653813.065   -39843535.376 7 -30921846.750 9
  18181842.760   -28914219.107 3 -22284682.750 4
  14446644.440   -48357464.078 7 -37478348.883 9
  17149768.057   -12479304.459 5  -9609683.153 5
 95  2 12 20  9 59.9780000  0  8 28 18 14 31 19 22 29 27
  16800107.057   -19558374.942 6 -15023765.271 6
  13767326.721   -49374000.997 7 -38126935.895 9
  17744544.752   -22809974.415 3 -17661022.046 4
  16447437.127   -17119064.938 5 -13098160.676 5
  14635114.776   -39941813.305 7 -30998426.947 9
  18189073.158   -28876224.908 3 -22255077.020 5
  14441075.002   -48386735.323 7 -37501157.694 9
  17123148.744   -12619187.083 5  -9718682.554 5
 95  2 12 20 10 29.9780000  0  8 28 18 14 31 19 22 29 27
  16783500.299   -19645645.922 6 -15091768.592 6
  13751184.502   -49458835.519 7 -38193040.713 9
  17752685.635   -22767196.608 3 -17627689.121 3
  16420574.151   -17260217.230 5 -13208149.351 6
  14616450.401   -40039866.781 7 -31074832.246 9
  18196316.932   -28838166.644 3 -22225421.351 4
  14435584.041   -48415591.885 7 -37523643.368 9
  17096545.143   -12758985.063 5  -9827616.002 5
 95  2 12 20 10 59.9780000  0  8 28 18 14 31 19 22 29 27
  16766987.151   -19732415.351 6 -15159381.092 6
  13735129.916   -49543209.682 7 -38258786.819 9
  17760827.893   -22724429.727 4 -17594364.735 2
  16393772.276   -17401081.708 5 -13317913.762 5
  14597836.619   -40137696.777 7 -31151063.396 9
  18203573.104   -28800037.756 3 -22195710.652 5
  14430172.307   -48444031.754 7 -37545804.348 9
  17069965.815   -12898699.931 5  -9936484.676 5
 95  2 12 20 11 29.9780000  0  8 28 18 14 31 19 22 29 27
  16750579.526   -19818679.587 6 -15226599.934 6
  13719155.901   -49627144.796 7 -38324190.810 9
  17768960.518   -22681669.725 4 -17561045.710 4
  16367017.955   -17541655.210 5 -13427451.453 5
  14579257.854   -40235321.547 7 -31227134.629 9
  18210841.713   -28761832.976 3 -22165940.854 4
  14424840.658   -48472050.218 7 -37567636.957 9
  17043387.596   -13038332.278 5 -10045289.060 5
 95  2 12 20 11 59.9780000  0  8 28 18 14 31 19 22 29 27
  16734247.729   -19904434.116 5 -15293421.604 6
  13703269.080   -49710637.163 7 -38389249.797 9
  17777097.283   -22638918.223 4 -17527733.305 5
  16340321.174   -17681934.817 5 -13536760.133 5
  14560718.760   -40332751.587 7 -31303054.134 9
  18218124.018   -28723555.758 3 -22136114.524 2
  14419591.455   -48499630.195 7 -37589127.892 9
  17016835.690   -13177884.587 5 -10154031.056 5
 95  2 12 20 12 29.9780000  0  8 28 18 14 31 19 22 29 27
  16718036.049   -19989680.604 6 -15359847.385 6
  13687464.283   -49793691.001 7 -38453967.070 9
  17785226.385   -22596176.875 4 -17494428.813 5
  16313689.533   -17821906.511 5 -13645828.855 5
  14542209.807   -40430001.970 7 -31378833.634 9
  18225425.072   -28685212.375 4 -22106236.677 3
  14414424.010   -48526789.602 7 -37610291.108 9
  16990291.291   -13317365.102 5 -10262717.128 5
 95  2 12 20 12 59.9780000  0  8 28 18 14 31 19 22 29 27
  16701907.713   -20074416.917 6 -15425875.617 6
  13671738.924   -49876313.163 7 -38518347.976 9
  17793364.713   -22553439.185 4 -17461127.200 5
  16287115.315   -17961551.679 6
  14523742.557   -40527084.931 7 -31454482.687 9
  18232727.588   -28646819.067 3 -22076319.923 1
  14409333.822   -48553538.894 7 -37631134.751 9
  16963764.588   -13456769.232 5
 95  2 12 20 13 29.9780000  0  8 28 18 14 31 19 22 29 27
  16685877.541   -20158643.697 6 -15491506.822 6
  13656105.205   -49958489.961 7 -38582381.845 9
  17801493.838   -22510710.842 3 -17427832.847 4
  16260601.846   -18100864.322 6
  14505296.096   -40623997.081 7 -31529998.627 9
  18240037.018   -28608386.380 3 -22046372.441 3
  14404322.361   -48579869.667 7 -37651652.274 9
  16937249.861   -13596104.706 5
 95  2 12 20 13 59.9780000  0  8 28 18 14 31 19 22 29 27
  16669953.776   -20242356.975 6 -15556737.897 6
  13640553.057   -50040199.160 7 -38646051.351 9
  17809626.307   -22467995.408 3 -17394548.566 2
  16234156.705   -18239828.474 5 -13971481.958 6
  14486890.822   -40720721.699 7 -31605368.449 9
  18247360.182   -28569918.226 3 -22016397.414 4
  14399389.541   -48605793.497 7 -37671852.704 9
  16910745.908   -13735379.640 5 -10588442.536 5
 95  2 12 20 14 29.9780000  0  8 28 18 14 31 19 22 29 27
  16654123.315   -20325558.001 6 -15621569.819 6
  13625093.127   -50121438.417 7 -38709354.669 9
  17817750.401   -22425291.378 3 -17361273.157 3
  16207782.721   -18378441.527 6 -14079491.989 5
  14468522.174   -40817260.008 7 -31680593.085 9
  18254684.018   -28531417.464 3 -21986396.970 5
  14394532.018   -48631321.370 7 -37691744.591 9
  16884255.955   -13874590.774 5 -10696918.694 5
 95  2 12 20 14 59.9780000  0  8 28 18 14 31 19 22 29 27
  16638379.916   -20408239.166 5 -15685996.656 6
  13609728.018   -50202199.038 7 -38772285.023 9
  17825876.494   -22382605.814 3 -17328012.165 3
  16181470.604   -18516703.801 6 -14187228.693 6
  14450185.307   -40913600.777 7 -31755663.800 9
  18262025.932   -28492869.299 4 -21956359.577 4
  14389755.072   -48656428.547 7 -37711308.666 9
  16857775.096   -14013722.056 5 -10805332.621 6
 95  2 12 20 15 29.9780000  0  8 28 18 14 31 19 22 29 27
  16622745.057   -20490405.614 5 -15750022.428 6
  13594450.377   -50282490.322 7 -38834849.656 9
  17833990.393   -22339957.306 3 -17294780.042 3
  16155223.479   -18654640.622 6 -14294711.800 6
  14431892.713   -41009749.519 7 -31830584.878 9
  18269368.651   -28454265.467 4 -21926278.770 4
  14385054.979   -48681120.537 7 -37730549.221 9
  16831317.033   -14152778.909 5 -10913688.527 6
 95  2 12 20 15 59.9780000  0  8 28 18 14 31 19 22 29 27
  16607216.643   -20572055.035 5 -15813645.318 6
  13579255.057   -50362317.476 7 -38897052.641 9
  17842089.611   -22297346.367 3 -17261577.193 3
  16129034.299   -18792259.218 5 -14401946.934 5
  14413629.526   -41105720.075 7 -31905367.124 9
  18276727.807   -28415602.053 3 -21896151.535 5
  14380435.994   -48705398.352 7 -37749467.038 9
  16804871.463   -14291756.271 5 -11021982.498 6
 95  2 12 20 16 29.9780000  0  7 28 18 14 31 19 29 27
  16591771.205   -20653179.822 5 -15876859.402 6
  13564156.119   -50441674.273 7 -38958889.111 8
  17850203.486   -22254774.816 3 -17228405.055 3
  16102911.205   -18929548.283 5 -14508925.280 6
  14395398.940   -41201515.216 7 -31980012.674 9
  14375898.065   -48729244.769 7 -37768048.707 9
  16778444.533   -14430633.604 5 -11130198.512 6
 95  2 12 20 16 59.9780000  0  7 28 18 14 31 19 29 27
  16576434.799   -20733786.731 6 -15939669.958 6
  13549142.947   -50520574.899 7 -39020370.127 9
  17858290.799   -22212257.230 3 -17195274.983 2
  16076844.916   -19066514.824 5 -14615652.320 6
  14377199.127   -41297149.568 7 -32054532.928 9
  14371440.268   -48752664.647 7 -37786298.007 9
  16752026.604   -14569431.835 5 -11238352.908 6
 95  2 12 20 17 29.9780000  0  7 28 18 14 31 19 29 27
  16561197.494   -20813869.960 6 -16002072.454 6
  13534216.416   -50599013.439 7 -39081491.072 9
  17866377.486   -22169773.079 3 -17162170.905 1
  16050846.760   -19203149.731 5 -14722120.943 6
  14359033.346   -41392618.172 7 -32128924.027 9
  14367063.205   -48775669.092 7 -37804223.596 9
  16725632.002   -14708161.014 5 -11346453.489 6
 95  2 12 20 17 59.9770000  0  7 28 18 14 31 19 29 27
  16546055.380   -20893426.044 6 -16064064.197 6
  13519375.864   -50676983.437 7 -39142246.922 9
  17874455.232   -22127326.837 3 -17129096.436 1
  16024911.763   -19339425.307 5 -14828309.569 6
  14340900.974   -41487917.943 7 -32203183.583 9
  14362763.497   -48798266.962 7 -37821832.382 9
  16699248.349   -14846813.336 5 -11454494.179 6
 95  2 12 20 18 29.9770000  0  7 28 18 14 31 19 29 27
  16531024.310   -20972460.594 6 -16125649.553 6
  13504625.950   -50754508.480 7 -39202656.060 8
  17882524.638   -22084915.683 3 -17096049.247 1
  15999045.396   -19475337.764 5 -14934215.257 6
  14322797.302   -41583035.484 7 -32277301.136 9
  14358539.364   -48820464.880 7 -37839129.521 9
  16672865.013   -14985406.748 5 -11562488.985 6
 95  2 12 20 18 59.9770000  0  7 28 18 14 31 19 29 27
  16516077.107   -21050970.792 6 -16186826.321 6
  13489956.263   -50831589.107 7 -39262718.892 9
  17890601.200   -22042534.034 3 -17063025.103 1
  15973250.474   -19610892.469 6 -15039842.181 6
  14304737.364   -41677957.534 7 -32351266.363 9
  14354391.560   -48842260.799 7 -37856113.412 9
  16646505.739   -15123952.112 5 -11670446.345 6
 95  2 12 20 19 29.9770000  0  7 28 18 14 31 19 29 27
  16501237.239   -21128952.579 6 -16247591.353 6
  13475377.091   -50908212.656 7 -39322425.566 9
  17898656.857   -22000187.791 3 -17030028.557 1
  15947527.677   -19746084.538 6 -15145186.539 6
  14286712.099   -41772671.696 7 -32425069.603 9
  14350321.060   -48863654.242 7 -37872783.686 9
  16620153.802   -15262425.437 5 -11778347.563 6
 95  2 12 20 19 59.9770000  0  7 28 18 14 31 19 29 27
  16486497.372   -21206410.593 6 -16307948.246 6
  13460881.060   -50984397.362 7 -39381790.285 8
  17906699.161   -21957895.361 3 -16997073.892 1
  15921865.911   -19880925.702 6 -15250257.453 6
  14268724.107   -41867184.415 7 -32498715.879 9
  14346330.599   -48884627.449 7 -37889126.492 9
  16593815.466   -15400820.182 5 -11886187.558 6
 95  2 12 20 20 29.9770000  0  7 28 18 14 31 19 29 27
  16471853.419   -21283338.407 6 -16367892.006 6
  13446470.552   -51060126.517 7 -39440800.028 8
  17914736.966   -21915641.884 3 -16964149.613 2
  15896276.630   -20015407.366 6 -15355048.244 6
  14250782.099   -41961475.884 7 -32572189.751 9
  14342425.739   -48905149.920 7 -37905118.093 9
  16567500.825   -15539128.908 5 -11993960.534 6
 95  2 12 20 20 59.9770000  0  7 28 18 14 31 19 29 27
  16457318.747   -21359735.667 6 -16427422.332 6
  13432145.700   -51135387.009 7 -39499444.578 8
  17922776.325   -21873428.412 3 -16931256.529 2
  15870751.380   -20149545.775 6 -15459571.571 6
  14232878.177   -42055572.544 7 -32645511.826 9
  14338604.396   -48925226.702 7 -37920762.394 9
  16541198.325   -15677351.331 5 -12101666.233 6
 95  2 12 20 21 29.9770000  0  7 28 18 14 31 19 29 27
  16442885.458   -21435599.331 5 -16486536.875 6
  13417915.599   -51210168.690 7 -39557716.030 8
  17930801.911   -21831254.549 3 -16898394.307 1
  15845297.122   -20283323.329 6 -15563813.708 6
  14215008.630   -42149468.115 7 -32718677.215 9
  14334867.536   -48944862.187 7 -37936062.825 9
  16514915.622   -15815474.819 5 -12209294.847 6
 95  2 12 20 21 59.9770000  0  7 28 18 14 31 19 29 27
  16428549.630   -21510931.331 5 -16545237.128 6
  13403775.185   -51284477.317 7 -39615618.869 8
  17938809.528   -21789115.119 3 -16865558.886 2
  15819906.708   -20416738.150 6 -15667773.207 6
  14197182.372   -42243161.967 7 -32791685.403 9
  14331212.747   -48964065.877 7 -37951026.794 9
  16488644.864   -15953521.175 5 -12316863.361 6
 95  2 12 20 22 29.9770000  0  7 28 18 14 31 19 29 27
  16414315.669   -21585730.399 5 -16603522.121 6
  13389730.716   -51358294.832 7 -39673139.026 8
  17946826.661   -21747009.636 3 -16832749.974 2
  15794591.943   -20549778.218 6 -15771440.694 6
  14179386.224   -42336665.052 7 -32864544.964 9
  14327637.763   -48982858.386 7 -37965670.359 9
  16462390.458   -16091494.206 5 -12424374.751 6
 95  2 12 20 22 59.9770000  0  6 28 18 31 19 29 27
  16400183.466   -21660000.492 5 -16661394.914 6
  13375777.943   -51431615.822 7 -39730272.280 8
  15769346.333   -20682436.590 6 -15874810.753 6
  14161627.739   -42429984.250 7 -32937261.232 9
  14324136.247   -49001258.662 7 -37980008.308 9
  16436151.708   -16229383.868 5 -12531821.149 6
 95  2 12 20 23 29.9770000  0  6 28 18 31 19 29 27
  16386151.021   -21733741.089 5 -16718855.116 6
  13361917.591   -51504446.268 7 -39787023.288 8
  15744173.911   -20814705.766 6 -15977877.553 6
  14143908.263   -42523118.253 7 -33009833.186 9
  14320708.630   -49019263.220 7 -37994037.894 9
  16409925.466   -16367193.943 5 -12639205.531 6
 95  2 12 20 23 59.9770000  0  6 28 18 31 19 29 27
  16372220.935   -21806944.164 5 -16775896.472 6
  13348150.974   -51576780.187 7 -39843387.389 8
  15719083.497   -20946579.932 6 -16080636.548 6
  14126216.982   -42616070.521 7 -33082263.529 9
  14317361.622   -49036853.953 7 -38007745.009 9
  16383724.052   -16504914.029 5 -12746519.805 6
 95  2 12 20 24 29.9770000  0  6 28 18 31 19 29 27
  16358390.286   -21879608.698 5 -16832518.189 6
  13334483.482   -51648608.747 7 -39899357.707 8
  15694065.443   -21078056.030 6 -16183085.367 6
  14108564.911   -42708845.190 7 -33154555.478 9
  14314096.107   -49054018.634 7 -38021120.142 9
  16357526.896   -16642538.455 5 -12853759.522 6
 95  2 12 20 24 59.9770000  0  7 28 18  2 31 19 29 27
  16344667.661   -21951737.448 5 -16888722.419 6
  13320909.693   -51719949.980 7 -39954948.289 8
  17961232.544     -162801.743 3
  15669120.208   -21209143.841 6 -16285231.632 6
  14090942.185   -42801435.889 7 -33226704.072 9
  14310908.677   -49070768.190 7 -38034171.789 9
  16331352.653   -16780082.193 5 -12960936.366 6
 95  2 12 20 25 29.9770000  0  7 28 18  2 31 19 29 27
  16331037.232   -22023331.230 5 -16944509.791 6
  13307423.818   -51790821.006 7 -40010172.475 8
  17930276.825     -325456.376 3        -0.28713
  15644242.966   -21339850.292 6 -16387080.733 6
  14073357.318   -42893845.822 7 -33298711.815 9
  14307799.591   -49087108.385 7 -38046904.461 9
  16305193.294   -16917561.140 5 -13068062.739 6
 95  2 12 20 25 59.9770000  0  7 28 18  2 31 19 29 27
  16317522.505   -22094391.067 6 -16999881.119 6
  13294022.833   -51861227.170 7 -40065034.431 8
  17899350.646     -487981.764 3   -126643.295 4
  15619441.216   -21470183.325 6 -16488638.872 6
  14055810.294   -42986073.888 7 -33370577.838 9
  14304767.974   -49103042.906 7 -38059321.013 9
  16279044.872   -17054986.227 5 -13175147.142 6
 95  2 12 20 26 29.9770000  0  7 28 18  2 31 19 29 27
  16304096.200   -22164919.200 6 -17054838.119 6
  13280712.114   -51931178.758 7 -40119542.172 8
  17868450.888     -650379.204 3   -253186.575 2
  15594712.232   -21600138.272 6 -16589902.406 6
  14038292.724   -43078125.602 7 -33442306.447 9
  14301809.982   -49118581.003 7 -38071428.673 9
  16252901.427   -17192362.889 5 -13282193.815 6
 95  2 12 20 26 59.9770000  0  7 28 18  2 31 19 29 27
  16290778.739   -22234908.618 6 -17109375.352 6
  13267488.614   -52000680.442 7 -40173699.351 8
  17837573.208     -812645.537 4   -379627.679 2
  15570062.482   -21729698.738 6 -16690858.541 6
  14020808.818   -43169996.259 7 -33513893.964 9
  14298930.380   -49133716.692 7 -38083222.767 9
  16226771.935   -17329690.939 5 -13389202.613 6
 95  2 12 20 27 29.9770000  0  7 28 18  2 31 19 29 27
  16277571.247   -22304354.900 6 -17163489.358 6
  13254350.130   -52069716.950 7 -40227494.042 8
  17806718.810     -974778.084 4   -505964.479 2
  15545481.575   -21858848.774 6 -16791494.874 6
  14003358.638   -43261689.911 7 -33585343.561 9
  14296131.427   -49148425.574 7 -38094684.284 9
  16200649.896   -17466959.131 5 -13496164.761 6
 95  2 12 20 27 59.9770000  0  7 28 18  2 31 19 29 27
  16264453.935   -22373258.278 6 -17217180.322 6
  13241303.083   -52138279.766 7 -40280919.628 8
  17775893.247    -1136768.823 4   -632190.749 2
  15520987.544   -21987574.895 6 -16891800.875 6
  13985943.849   -43353215.950 7 -33656662.552 9
  14293414.403   -49162701.152 7 -38105808.161 9
  16174541.411   -17604151.938 5 -13603068.168 6
 95  2 12 20 28 29.9770000  0  7 28 18  2 31 19 29 27
  16251443.685   -22441623.541 6 -17270451.972 6
  13228349.271   -52206361.406 7 -40333970.273 8
  17745090.505    -1298619.317 3   -758307.752 3
  15496570.982   -22115872.423 6 -16991772.917 6
  13968558.177   -43444573.608 7 -33727850.340 9
  14290778.411   -49176555.775 7 -38116604.024 9
  16148447.294   -17741267.694 5 -13709911.543 6
 95  2 12 20 28 59.9770000  0  7 28 18  2 31 19 29 27
  16238535.646   -22509444.779 6 -17323299.716 6
  13215487.669   -52273945.561 7 -40386633.266 8
  17714314.677    -1460326.307 3   -884312.878 4
  15472241.560   -22243736.446 6 -17091407.162 6
  13951208.630   -43535751.336 7 -33798897.922 9
  14288221.700   -49189988.283 7 -38127070.961 9
  16122370.802   -17878288.778 5 -13816681.137 6
 95  2 12 20 29 29.9760000  0  7 28 18  2 31 19 29 27
  16225736.883   -22576726.195 6
  13202719.961   -52341033.942 7
  17683578.102    -1621883.799 3  -1010201.504 3
  15447986.086   -22371180.821 6 -17190714.406 6
  13933891.094   -43626752.542 7 -33869807.961 9
  14285744.492   -49203012.002 7 -38137219.362 8
  16096317.500   -18015202.774 5 -13923367.305 6
 95  2 12 20 29 59.9760000  0  7 28 18  2 31 19 29 27
  16213033.930   -22643476.515 6
  13190044.203   -52407641.429 7
  17652855.594    -1783312.668 3  -1135989.898 4
  15423811.547   -22498226.404 6 -17289710.898 6
  13916610.172   -43717573.895 7 -33940577.843 9
  14283337.195   -49215649.116 7 -38147066.516 8
  16070288.274   -18152017.217 5 -14029975.891 6
 95  2 12 20 30 29.9760000  0  7 28 18  2 31 19 29 27
  16200433.438   -22709687.854 6
  13177460.680   -52473766.398 7
  17622167.805    -1944609.166 3  -1261675.124 4
  15399706.992   -22624872.372 6 -17388396.004 6
  13899366.086   -43808197.530 7 -34011193.662 9
  14281006.695   -49227900.924 7 -38156613.443 9
  16044263.891   -18288736.099 5 -14136510.023 6
 95  2 12 20 30 59.9760000  0  7 28 18  2 31 19 29 27
  16187936.922   -22775359.603 5
  13164966.789   -52539421.722 7
  17591494.961    -2105763.752 3  -1387249.763 2
  15375686.266   -22751123.829 6 -17486773.696 6
  13882155.742   -43898632.452 7 -34081662.433 9
  14278750.953   -49239755.012 7 -38165850.443 9
  16018265.789   -18425360.065 5 -14242970.196 6
 95  2 12 20 31 29.9760000  0  7 28 18  2 31 19 29 27
  16175539.688   -22840492.223 5
  13152565.235   -52604602.328 7
  17560858.797    -2266771.118 3  -1512709.691 3
  15351737.750   -22876976.403 6 -17584840.582 6
  13864983.047   -43988874.436 7 -34151980.866 9
  14276571.805   -49251218.411 7 -38174783.012 9
  15992285.883   -18561912.690 5 -14349374.772 6
 95  2 12 20 31 59.9760000  0  7 28 18  2 31 19 29 27
  16163250.430   -22905087.824 6
  13140254.274   -52669304.188 7
  17530249.711    -2427632.471 3  -1638055.855 3
  15327870.961   -23002410.338 6 -17682581.250 6
  13847844.461   -44078927.958 7 -34222152.448 9
  14274463.063   -49262289.730 7 -38183410.073 9
  15966305.844   -18698413.189 5 -14455738.736 6
 95  2 12 20 32 29.9760000  0  7 28 18  2 31 19 29 27
  16151053.227   -22969142.296 5
  13128035.789   -52733510.436 7
  17499667.195    -2588331.526 3  -1763275.550 4
  15304082.313   -23127411.751 6 -17779984.891 6
  13830742.602   -44168805.329 7 -34292186.764 9
  14272434.586   -49272954.510 7 -38191720.342 9
  15940343.961   -18834868.788 5 -14562067.709 6
 95  2 12 20 32 59.9760000  0  7 28 18  2 31 19 29 27
  16138971.367   -23032652.927 5 -17730994.506 6
  13115914.461   -52797203.904 7 -40794367.191 8
  17469118.492    -2748854.888 3  -1888358.373 3
  15280377.313   -23251967.218 6 -17877041.034 6
  13813672.461   -44258502.711 7 -34362080.830 9
  14270483.961   -49283208.017 7 -38199710.145 9
  15914384.180   -18971275.530 5 -14668358.623 6
 95  2 12 20 33 29.9760000  0  7 28 18  2 31 19 29 27
  16126990.070   -23095621.374 5 -17780060.852 6
  13103893.235   -52860380.467 7 -40843595.698 8
  17438605.860    -2909207.270 3  -2013307.980 3
  15256765.938   -23376064.216 6 -17973739.925 6
  13796636.047   -44348028.779 7 -34431841.405 9
  14268606.969   -49293067.963 7 -38207393.282 9
  15888442.688   -19107636.575 6 -14774613.905 6
 95  2 12 20 33 59.9760000  0  7 28 18  2 31 19 29 27
  16115117.133   -23158047.536 5 -17828704.622 6
  13091966.524   -52923055.767 7 -40892433.605 8
  17408122.031    -3069391.688 3  -2138126.694 2
  15233236.328   -23499708.462 6 -18070086.019 6
  13779632.367   -44437391.105 7 -34501474.383 9
  14266806.555   -49302522.431 7 -38214760.462 9
  15862495.758   -19243933.161 5 -14880818.979 6
 95  2 12 20 34 29.9760000  0  7 28 18  2 31 19 29 27
  16103341.313   -23219934.857 5 -17876928.528 6
  13080132.688   -52985232.213 7 -40940882.795 8
  17377669.375    -3229431.191 4  -2262832.545 3
  15209791.610   -23622921.404 6 -18166096.031 6
  13762657.828   -44526589.320 7 -34570979.493 9
  14265082.610   -49311586.383 7 -38221823.341 9
  15836576.266   -19380157.433 5 -14986967.705 6
 95  2 12 20 34 59.9760000  0  7 28 18  2 31 19 29 27
  16091663.625   -23281281.654 5 -17924731.235 6
  13068389.813   -53046937.201 7 -40988964.614 8
  17347239.789    -3389341.608 4  -2387437.780 4
  15186425.195   -23745703.640 6 -18261770.422 6
  13745720.164   -44615604.968 7 -34640342.326 9
  14263430.485   -49320275.692 7 -38228594.297 9
  15810672.617   -19516299.807 5 -15093052.593 6
 95  2 12 20 35 29.9760000  0  7 28 18  2 31 19 29 27
  16080087.289   -23342090.883 5 -17972115.055 6
  13056736.578   -53108179.580 7 -41036685.960 8
  17316828.930    -3549134.056 4  -2511951.104 4
  15163137.953   -23868058.956 6 -18357112.147 6
  13728815.391   -44704436.959 7 -34709562.055 9
  14261849.399   -49328588.191 7 -38235071.630 9
  15784777.094   -19652354.355 6 -15199069.063 6
 95  2 12 20 35 59.9760000  0  7 28 18  2 31 19 29 27
  16068621.008   -23402360.995 5 -18019078.791 6
  13045171.078   -53168953.884 7 -41084042.562 8
  17286447.547    -3708806.807 4  -2636371.176 3
  15139940.485   -23989991.007 6 -18452124.045 6
  13711951.289   -44793068.409 7 -34778625.518 9
  14260341.469   -49336509.567 7 -38241244.201 9
  15758906.922   -19788318.070 6 -15305014.734 6
 95  2 12 20 36 29.9760000  0  7 28 18  2 31 19 29 27
  16057256.617   -23462085.821 5 -18065617.642 6
  13033699.406   -53229247.364 7 -41131024.501 8
  17256087.445    -3868340.101 3  -2760682.584 4
  15116819.977   -24111485.305 6 -18546794.845 7
  13695121.406   -44881493.049 7 -34847527.827 9
  14258908.656   -49344038.853 7 -38247111.245 8
  15733048.969   -19924191.183 6 -15410889.812 6
 95  2 12 20 36 59.9760000  0  7 28 18  2 31 19 29 27
  16045993.000   -23521269.700 6 -18111734.974 6
  13022316.539   -53289066.220 7 -41177636.609 8
  17225762.742    -4027696.258 3  -2884855.983 4
  15093785.750   -24232532.285 6 -18641117.091 6
  13678329.266   -44969731.784 7 -34916285.274 9
  14257553.469   -49351160.593 7 -38252660.720 8
  15707212.274   -20059978.382 6 -15516697.944 6
 95  2 12 20 37 29.9760000  0  7 28 18  2 31 19 29 27
  16034836.008   -23579911.746 6 -18157430.080 6
  13011027.149   -53348382.276 7 -41223856.926 8
  17195475.656    -4186859.157 3  -3008878.776 5
  15070833.242   -24353135.167 6 -18735093.296 6
  13661567.750   -45057810.955 7 -34984918.386 9
  14256276.344   -49357860.541 7 -38257881.523 8
  15681385.367   -20195682.446 6 -15622441.291 6
 95  2 12 20 37 59.9760000  0  7 28 18  2 31 19 29 27
  16023775.578   -23638013.177 6 -18202703.930 6
  12999836.930   -53407196.069 7 -41269685.865 8
  17165221.844    -4345827.947 3  -3132750.319 5
  15047966.649   -24473295.846 6 -18828724.917 6
  13644836.156   -45145750.211 7 -35053442.467 9
  14255081.516   -49364148.280 7 -38262781.125 8
  15655577.742   -20331318.985 6 -15728132.023 6
 95  2 12 20 38 29.9760000  0  7 28 18  2 31 19 29 27
  16012828.102   -23695577.404 6 -18247559.195 6
  12988741.766   -53465505.405 7 -41315121.729 8
  17135007.430    -4504614.735 4  -3256480.035 4
  15025188.195   -24593010.391 6 -18922008.915 6
  13628124.492   -45233557.723 7 -35121863.892 9
  14253959.820   -49370039.418 6 -38267371.684 8
  15629779.305   -20466893.034 6 -15833774.051 6
 95  2 12 20 38 59.9760000  0  7 28 18  2 31 19 29 27
  16001970.289   -23752599.482 6 -18291991.997 6
  12977742.117   -53523299.652 7 -41360156.224 8
  17104823.649    -4663238.911 5  -3380083.044 4
  15002489.875   -24712270.008 6 -19014938.427 6
  13611444.781   -45321229.541 7 -35190179.578 9
  14252915.430   -49375536.028 7 -38271654.817 8
  15603986.610   -20602401.928 5 -15939365.299 6
 95  2 12 20 39 29.9760000  0  7 28 18  2 31 19 29 27
  15991228.203   -23809080.845 6 -18336003.470 6
  12966843.375   -53580579.785 7 -41404790.109 8
  17074660.961    -4821733.443 4  -3503585.015 3
  14979887.680   -24831070.500 6 -19107510.159 6
  13594787.695   -45408739.706 7 -35258369.305 9
  14251940.203   -49380657.317 6 -38275645.495 8
  15578218.524   -20737853.660 6 -16044912.020 6
 95  2 12 20 39 59.9760000  0  7 28 18  2 31 19 29 27
  15980574.860   -23865022.650 6 -18379594.505 6
  12956039.938   -53637357.579 7 -41449032.564 8
  17044524.445    -4980098.931 4  -3626986.426 5
  14957369.930   -24949398.349 6 -19199713.624 6
  13578172.266   -45496063.744 7 -35326413.999 9
  14251034.203   -49385412.385 6 -38279350.806 8
  15552448.125   -20873250.158 6 -16150415.696 6
 95  2 12 20 40 29.9760000  0  7 28 18  2 31 19 29 27
  15970038.547   -23920425.190 6 -18422765.326 6
  12945326.867   -53693645.443 7 -41492893.257 8
  17014412.656    -5138329.941 4  -3750283.024 5
  14934940.352   -25067247.075 6 -19291543.730 6
  13561593.242   -45583196.974 7 -35394310.014 9
  14250198.281   -49389806.971 6 -38282775.225 8
  15526701.867   -21008582.930 6 -16255869.712 6
 95  2 12 20 40 59.9750000  0  7 28 18  2 31 19 29 27
  15959597.589   -23975291.837 5 -18465518.556 6
  12934706.222   -53749461.026 7 -41536385.935 8
  16984332.230    -5296411.958 4  -3873463.518 4
  14912608.480   -25184610.410 6 -19382995.604 6
  13545047.722   -45670138.968 7 -35462057.012 9
  14249433.527   -49393833.159 6 -38285912.559 8
  15500955.769   -21143853.082 6 -16361274.925 6
 95  2 12 20 41 29.9750000  0  7 28 18  2 31 19 29 27
  15949257.831   -24029621.750 5 -18507853.587 6
  12924173.456   -53804804.983 7 -41579511.115 8
  16954278.886    -5454329.310 4  -3996515.694 4
  14890367.175   -25301491.533 6 -19474071.731 6
  13528543.995   -45756879.976 7 -35529647.405 9
  14248737.456   -49397482.925 6 -38288756.598 8
  15475227.417   -21279063.266 6 -16466633.416 6
 95  2 12 20 41 59.9750000  0  7 28 18  2 31 19 29 27
  15939024.402   -24083410.565 5 -18549766.965 6
  12913733.706   -53859673.992 7 -41622266.201 8
  16924266.698    -5612059.497 4  -4119422.038 5
  14868216.862   -25417887.572 6 -19564769.873 6
  13512070.542   -45843431.980 7 -35597090.515 9
  14248115.675   -49400754.822 6 -38291306.186 8
  15449514.347   -21414200.586 6 -16571935.133 6
 95  2 12 20 42 29.9750000  0  7 28 18  2 31 19 29 27
  15928894.605   -24136660.733 5 -18591260.614 6
  12903383.573   -53914058.377 7 -41664643.663 8
  16894289.448    -5769604.992 4  -4242184.460 4
  14846163.370   -25533797.861 6 -19655089.500 6
  13495633.816   -45929804.334 7 -35664393.641 9
  14247565.214   -49403647.279 6 -38293560.101 8
  15423808.058   -21549263.621 6 -16677178.978 6
 95  2 12 20 42 59.9750000  0  7 28 18  2 31 19 29 27
  15918858.902   -24189372.645 5 -18632334.852 6
  12893131.277   -53967933.427 7 -41706624.238 8
  16864339.823    -5926955.975 4  -4364795.303 4
  14824192.097   -25649231.400 6 -19745037.640 6
  13479236.191   -46015985.241 7 -35731547.580 9
  14247089.120   -49406146.969 6 -38295507.970 8
  15398123.128   -21684247.178 6 -16782360.868 6
 95  2 12 20 43 29.9750000  0  7 28 18  2 31 19 29 27
  15908926.050   -24241552.178 5 -18672994.236 6
  12882979.550   -54021291.182 7 -41748201.719 8
  16834434.948    -6084115.102 4  -4487256.657 4
  14802311.925   -25764206.621 6 -19834628.650 6
  13462868.589   -46101987.672 7 -35798562.450 9
  14246684.339   -49408274.798 6 -38297166.076 8
  15372450.894   -21819158.237 6 -16887486.284 6
 95  2 12 20 43 59.9750000  0  7 28 18  2 31 19 29 27
  15899102.495   -24293193.112 6 -18713233.946 6
  12872922.737   -54074125.459 7 -41789371.301 8
  16804565.839    -6241083.679 4  -4609569.544 5
  14780521.394   -25878712.915 6 -19923854.256 6
  13446538.206   -46187816.028 7 -35865441.673 9
  14246350.308   -49410023.551 6 -38298528.795 8
  15346794.198   -21953993.470 6 -16992552.605 6
 95  2 12 20 44 29.9750000  0  7 28 18  2 31 19 29 27
  15889384.175   -24344299.172 6 -18753056.872 6
  12862967.995   -54126443.970 7 -41830138.986 8
  16774726.808    -6397874.896 4  -4731744.223 4
  14758823.581   -25992753.244 6 -20012716.770 6
  13430236.433   -46273471.643 7 -35932186.295 9
  14246091.487   -49411390.015 6 -38299593.630 8
  15321147.823   -22088757.750 6 -17097563.639 6
 95  2 12 20 44 59.9750000  0  7 28 18  2 31 19 29 27
  15879756.675   -24394864.361 6 -18792458.343 6
  12853108.659   -54178263.920 7 -41870518.180 8
  16744925.308    -6554492.309 4  -4853783.483 3
  14737211.128   -26106326.402 6 -20101215.273 7
  13413970.339   -46358947.263 7 -35998790.657 9
  14245905.464   -49412367.217 6 -38300355.142 8
  15295516.292   -22223453.051 6 -17202520.937 6
 95  2 12 20 45 29.9750000  0  7 28 18  2 31 19 29 27
  15870235.753   -24444890.600 6 -18831439.852 6
  12843336.987   -54229611.101 7 -41910528.982 8
  16715153.378    -6710957.456 4  -4975704.078 5
  14715690.808   -26219420.896 6 -20189340.775 6
  13397737.644   -46444251.315 7 -36065261.327 9
  14245791.886   -49412968.153 6 -38300823.474 8
  15269900.269   -22358084.637 6 -17307428.586 6
 95  2 12 20 45 59.9750000  0  7 28 18  2 31 19 29 27
  15860810.784   -24494381.031 6 -18870003.844 6
  12833654.269   -54280496.793 7 -41950180.187 8
  16685405.042    -6867281.496 5  -5097514.753 3
  14694260.987   -26332035.544 6 -20277092.375 7
  13381535.886   -46529394.791 7 -36131606.877 9
  14245751.917   -49413183.884 6
  15244287.870   -22492648.902 6 -17412283.781 6
 95  2 12 20 46 29.9750000  0  7 28 18  2 31 19 29 27
  15851497.808   -24543333.906 6 -18908148.962 6
  12824057.480   -54330916.388 7 -41989468.192 8
  16655684.191    -7023463.667 5  -5219214.870 4
  14672922.675   -26444164.905 6 -20364465.843 7
  13365368.503   -46614374.039 7 -36197824.454 9
  14245784.472   -49413011.392 6
  15218697.034   -22627143.748 6 -17517084.894 6
 95  2 12 20 46 59.9750000  0  7 28 18  2 31 19 29 27
  15842284.753   -24591751.425 6 -18945876.933 6
  12814555.558   -54380858.338 7 -42028384.015 8
  16625991.058    -7179487.652 5  -5340791.734 5
  14651681.433   -26555810.954 6 -20451462.701 7
  13349226.519   -46699183.737 7 -36263909.913 9
  14245890.800   -49412457.177 6 -38300425.521 8
  15193113.198   -22761569.956 6 -17621832.514 6
 95  2 12 20 47 29.9750000  0  7 28 18  2 31 19 29 27
  15833177.964   -24639629.795 5 -18983184.793 6
  12805150.112   -54430292.348 7 -42066904.034 8
  16596335.769    -7335337.391 5  -5462232.811 5
  14630527.175   -26666964.964 6 -20538076.144 7
  13333119.847   -46783827.745 7 -36329866.264 9
  14246065.058   -49411532.010 6 -38299704.684 8
  15167545.456   -22895926.612 6 -17726525.939 6
 95  2 12 20 47 59.9750000  0  7 28 18  2 31 19 29 27
  15824167.214   -24686972.821 6 -19020075.511 6
  12795838.417   -54479216.022 7 -42105026.387 8
  16566710.659    -7491006.739 5  -5583533.352 5
  14609469.339   -26777627.236 6 -20624306.412 7
  13317044.058   -46868299.526 7 -36395688.419 9
  14246309.269   -49410239.417 6 -38298697.548 8
  15141989.058   -23030224.417 6 -17831173.514 6
 95  2 12 20 48 29.9750000  0  8 28 18  2 31 19 16 29 27
  15815261.487   -24733780.359 6 -19056548.948 6
  12786624.706   -54527626.426 7 -42142748.802 8
  16537124.862    -7646483.044 5  -5704683.467 5
  14588505.441   -26887782.789 6 -20710141.855 7
  13301008.519   -46952579.814 7 -36461361.357 9
  17325920.433     -132870.150 3
  14246626.691   -49408588.062 6 -38297410.862 8
  15116445.034   -23164464.096 6 -17935775.796 6
 95  2 12 20 48 59.9750000  0  8 28 18  2 31 19 16 29 27
  15806453.987   -24780050.757 5 -19092603.824 6
  12777510.964   -54575531.962 7 -42180077.804 8
  16507574.597    -7801756.087 5  -5825675.198 5
  14567635.042   -26997442.107 6 -20795590.617 7
  13285004.784   -47036667.702 7 -36526884.364 9
  17300716.566     -265334.494 4        -0.36612
  14247007.183   -49406578.373 6 -38295844.948 8
  15090916.964   -23298641.187 6 -18040329.311 6
 95  2 12 20 49 29.9750000  0  8 28 18  2 31 19 16 29 27
  15797752.292   -24825788.744 5 -19128243.843 6
  12768485.972   -54622949.158 7 -42217026.284 8
  16478067.917    -7956839.727 5  -5946519.344 5
  14546865.370   -27106598.164 6 -20880647.219 7
  13269038.230   -47120579.270 7 -36592270.000 9
  17275585.956     -397396.934 4
  14247462.487   -49404200.525 6 -38293992.158 8
  15065399.144   -23432754.470 6 -18144833.109 6
 95  2 12 20 49 59.9750000  0  8 28 18  2 31 19 16 29 27
  15789154.394   -24870988.498 5 -19163464.457 6
  12759553.534   -54669886.659 7 -42253600.971 8
  16448593.448    -8111721.998 5  -6067206.602 5
  14526189.862   -27215241.948 6 -20965304.662 7
  13253105.292   -47204305.356 7 -36657511.094 9
  17250528.198     -529048.810 3
  14247989.097   -49401430.658 6 -38291833.905 8
  15039886.128   -23566785.363 6 -18249272.697 6
 95  2 12 20 50 29.9750000  0  8 28 18  2 31 19 16 29 27
  15780656.573   -24915653.333 5 -19198268.255 6
  12750713.159   -54716337.471 7 -42289796.421 8
  16419159.714    -8266396.183 5  -6187731.707 5
  14505615.034   -27323378.985 6 -21049567.236 7
  13237203.409   -47287873.871 7 -36722629.407 9
  17225554.456     -660298.346 3        -0.33514
  14248586.769   -49398276.545 6 -38289376.221 8
  15014399.425   -23700732.159 6 -18353646.772 7
 95  2 12 20 50 59.9750000  0  8 28 18  2 31 19 16 29 27
  15772256.870   -24959784.232 5 -19232656.000 6
  12741968.800   -54762300.971 7 -42325612.154 8
  16389764.230    -8420875.710 5  -6308105.135 5
  14485133.316   -27431007.671 6 -21133433.702 7
  13221328.480   -47371294.994 7 -36787632.865 9
  17200656.214     -791150.053 3   -101962.697 2
  14249262.573   -49394742.864 6 -38286622.778 8
  14988929.667   -23834595.779 6 -18457956.031 6
 95  2 12 20 51 29.9750000  0  8 28 18  2 31 19 16 29 27
  15763948.019   -25003389.338 5 -19266634.031 6
  12733315.308   -54807781.608 7 -42361051.621 8
  16360398.128    -8575173.579 5  -6428337.022 5
  14464749.191   -27538119.659 6 -21216897.540 7
  13205480.925   -47454571.183 7 -36852523.395 9
  17175831.698     -921600.315 3   -203612.212 1
  14250000.253   -49390859.521 6 -38283596.866 8
  14963457.831   -23968383.802 6 -18562206.378 7
 95  2 12 20 51 59.9750000  0  8 28 18  2 31 19 16 29 27
  15755757.573   -25046464.801 5 -19300199.364 6
  12724753.534   -54852763.991 7 -42396102.847 8
  16331073.894    -8729284.502 5  -6548423.238 5
  14444461.792   -27644720.558 6 -21299963.125 7
  13189666.206   -47537685.422 7 -36917287.721 9
  17151084.097    -1051636.887 3   -304939.362 3
  14250802.417   -49386646.863 6 -38280314.339 8
  14938026.402   -24102096.106 6 -18666397.728 7
 95  2 12 20 52 29.9740000  0  8 28 18  2 31 19 16 29 27
  15747667.615   -25089001.921 5 -19333345.197 6
  12716289.029   -54897240.956 7 -42430760.236 8
  16301785.358    -8883204.317 5  -6668360.545 5
  14424277.131   -27750796.847 6 -21382619.938 7
  13173885.303   -47620617.532 7 -36981910.132 9
  17126425.108    -1181237.119 3   -405926.499 1
  14251664.404   -49382116.288 6 -38276784.089 8
  14912593.389   -24235721.203 6 -18770521.115 7
 95  2 12 20 52 59.9740000  0  8 28 18  2 31 19 16 29 27
  15739676.303   -25131012.339 5 -19366080.621 6
  12707918.850   -54941230.376 7 -42465037.726 8
  16272523.779    -9036960.837 5  -6788170.616 5
  14404188.779   -27856360.212 6 -21464877.063 7
  13158139.959   -47703355.209 7 -37046381.034 9
  17101848.162    -1310406.292 3   -506577.786 3
  14252585.834   -49377267.697 6 -38273006.032 7
  14887174.623   -24369276.062 6 -18874589.773 7
 95  2 12 20 53 29.9740000  0  8 28 18  2 31 19 16 29 27
  15731773.858   -25172495.960 5 -19398405.544 6
  12699645.240   -54984718.798 7 -42498924.819 8
  16243301.295    -9190533.310 5  -6907837.274 5
  14384205.522   -27961409.660 6 -21546733.724 7
  13142431.131   -47785900.879 7 -37110702.324 9
  17077354.490    -1439126.806 3   -606879.434 1
  14253571.272   -49372085.124 6 -38268967.723 7
  14861779.842   -24502764.426 6 -18978606.607 7
 95  2 12 20 53 59.9740000  0  8 28 18  2 31 19 16 29 27
  15723984.389   -25213451.146 5 -19430318.710 6
  12691464.162   -55027694.654 7 -42532412.511 8
  16214111.334    -9343923.244 5  -7027361.699 5
  14364308.287   -28065936.606 6 -21628183.246 7
  13126758.545   -47868263.979 7 -37174881.344 9
  17052938.998    -1567392.736 3   -706826.922 3
  14254628.623   -49366541.888 6 -38264648.381 7
  14836379.459   -24636186.848 6 -19082572.078 7
 95  2 12 20 54 29.9740000  0  8 28 18  2 31 19 16 29 27
  15716295.639   -25253875.011 5 -19461817.869 6
  12683383.631   -55070166.155 7 -42565507.205 8
  16184956.506    -9497131.788 5  -7146744.784 5
  14344518.819   -28169915.280 6 -21709205.541 7
  13111117.928   -47950459.868 7 -37238930.077 9
  17028618.311    -1695210.170 3   -806424.807 1
  14255753.334   -49360630.634 6 -38260042.279 7
  14811007.115   -24769545.436 6 -19186487.796 7
 95  2 12 20 54 59.9740000  0  8 28 18  2 31 19 16 29 27
  15708696.233   -25293770.670 5 -19492905.433 6
  12675401.904   -55112123.412 7 -42598201.184 8
  16155838.233    -9650160.042 5  -7265987.386 5
  14324838.358   -28273349.515 6 -21789803.601 7
  13095505.022   -48032499.672 7 -37302857.186 9
  17004381.295    -1822591.177 3   -905682.722 3
  14256948.889   -49354334.720 6 -38255136.443 7
  14785646.545   -24902840.157 6 -19290353.754 7
 95  2 12 20 55 29.9740000  0  8 28 18  2 31 19 16 29 27
  15701205.194   -25333138.484 5 -19523581.690 6
  12667510.404   -55153572.273 7 -42630499.019 8
  16126747.186    -9803008.279 5  -7385089.730 5
  14305263.490   -28376245.343 6 -21869982.119 7
  13079922.092   -48114389.610 7 -37366667.516 9
  16980220.740    -1949543.049 2  -1004606.259 1
  14258221.912   -49347653.389 6 -38249930.284 7
  14760289.834   -25036061.215 6 -19394162.311 6
 95  2 12 20 55 59.9740000  0  8 28 18  2 31 19 16 29 27
  15693821.045   -25371977.113 5 -19553845.584 6
  12659719.178   -55194524.644 7 -42662409.973 8
  16097700.326    -9955683.809 5  -7504057.466 5
  14285779.701   -28478603.692 6 -21949741.829 7
  13064372.029   -48196108.091 7 -37430344.240 9
  16956142.873    -2076086.239 3  -1103211.258 4
  14259565.037   -49340601.732 6 -38244435.562 7
  14734954.553   -25169201.191 6 -19497907.676 7
 95  2 12 20 56 29.9740000  0  8 28 18  2 31 19 16 29 27
  15686522.787   -25410290.412 5 -19583700.136 6
  12652018.928   -55234988.362 7 -42693940.154 8
  16068680.740   -10108165.847 5  -7622874.463 5
  14266401.662   -28580441.960 6 -22029096.278 7
  13048857.561   -48277641.538 7 -37493876.782 9
  16932135.842    -2202233.839 3  -1201508.061 3
  14260973.108   -49333195.129 6 -38238664.256 7
  14709636.514   -25302253.584 6 -19601584.812 7
 95  2 12 20 56 59.9740000  0  8 28 18  2 31 19 16 29 27
  15679335.451   -25448081.996 5 -19613148.150 6
  12644413.303   -55274949.645 7 -42725078.837 8
  16039701.561   -10260445.884 5  -7741534.025 5
  14247116.811   -28681780.418 6 -22108061.265 7
  13033382.061   -48358974.289 7 -37557252.944 9
  16908209.397    -2327968.031 3  -1299482.769 1
  14262450.694   -49325433.492 6 -38232616.302 7
  14684336.561   -25435222.547 6 -19705196.926 7
 95  2 12 20 57 29.9740000  0  8 28 18  2 31 19 16 29 27
  15672241.576   -25485351.511 5 -19642189.353 6
  12636902.115   -55314425.951 7 -42755839.607 8
  16010763.670   -10412517.282 5  -7860031.007 5
  14227930.123   -28782609.313 6 -22186629.196 7
  13017941.108   -48440108.641 7 -37620474.510 9
  16884363.326    -2453273.482 3  -1397123.313 2
  14263991.319   -49317342.541 6 -38226311.742 7
  14659044.178   -25568121.006 6 -19808754.092 7
 95  2 12 20 57 59.9740000  0  8 28 18  2 31 19 16 29 27
  15665254.733   -25522101.685 6 -19670825.862 6
  12629481.342   -55353420.471 7 -42786224.961 9
  15981869.076   -10564365.440 5  -7978354.033 5
  14208844.662   -28882917.234 6 -22264791.161 7
  13002535.303   -48521056.000 7 -37683550.362 9
  16860606.069    -2578137.943 3  -1494420.283 3
  14265589.248   -49308946.208 6 -38219769.230 7
  14633764.529   -25700953.731 6 -19912260.037 7
 95  2 12 20 58 29.9740000  0  8 28 18  2 31 19 16 29 27
  15658355.209   -25558325.815 5 -19699052.477 6
  12622154.342   -55391934.534 7 -42816235.939 9
  15953015.662   -10715980.983 5  -8096495.792 5
  14189859.975   -28982683.117 6 -22342530.758 7
  12987165.108   -48601831.987 7 -37746492.671 9
  16836933.779    -2702531.337 3  -1591350.183 1
  14267246.311   -49300230.098 6 -38212977.533 7
  14608504.436   -25833714.155 6 -20015709.635 7
 95  2 12 20 58 59.9740000  0  8 28 18  2 31 19 16 29 27
  15651560.194   -25594026.585 5 -19726871.284 6
  12614915.381   -55429972.703 7 -42845876.088 9
  15924204.092   -10867387.458 5  -8214474.651 5
  14170976.240   -29081892.514 6 -22419836.722 7
  12971823.139   -48682450.845 7 -37809312.551 9
  16813346.944    -2826448.506 3  -1687908.981 2
  14268967.233   -49291186.364 6 -38205930.557 7
  14583254.123   -25966412.077 6 -20119110.536 7
 95  2 12 20 59 29.9740000  0  8 28 18  2 31 19 16 29 27
  15644865.811   -25629204.436 5 -19754282.629 6
  12607765.475   -55467549.303 7 -42875156.559 8
  15895433.084   -11018586.213 5  -8332291.649 5
  14152208.092   -29180536.396 6 -22496702.032 7
  12956512.459   -48762910.024 7 -37872008.001 9
  16789854.451    -2949910.276 3  -1784112.948 4
  14270753.420   -49281808.667 6 -38198623.344 7
  14558014.467   -26099039.028 6 -20222456.129 7
 95  2 12 20 59 59.9740000  0  8 28 18  2 31 19 16 29 27
  15638274.912   -25663861.415 5 -19781288.089 6
  12600704.615   -55504646.303 7 -42904063.331 8
  15866697.881   -11169582.461 5  -8449950.855 5
  14133540.279   -29278618.970 6 -22573129.970 7
  12941236.014   -48843196.274 7 -37934568.707 9
  16766449.537    -3072936.275 4  -1879977.354 2
  14272601.154   -49272081.103 6 -38191043.509 7
  14532794.045   -26231596.153 6 -20325747.316 7
 95  2 12 21  0 29.9740000  0  8 28 18  2 31 19 16 29 27
  15631775.076   -25698000.512 5 -19807890.011 6
  12593743.154   -55541235.384 7 -42932574.319 8
  15838001.537   -11320392.513 5  -8567464.959 5
  14114984.498   -29376147.145 6 -22649125.922 7
  12925991.209   -48923298.515 7 -37996986.024 9
  16743118.459    -3195521.002 3  -1975497.834 2
  14274523.326   -49261990.940 6 -38183181.129 7
  14507579.248   -26364090.432 6 -20428989.524 7
 95  2 12 21  0 59.9740000  0  8 28 18  2 31 19 16 29 27
  15625378.639   -25731625.365 5 -19834091.203 6
  12586877.498   -55577310.768 7 -42960685.016 8
  15809336.928   -11471013.783 5  -8684831.987 5
  14096527.108   -29473136.866 6 -22724702.299 7
  12910787.654   -49003195.543 7 -38059243.434 9
  16719872.920    -3317664.811 3  -2070674.889 3
  14276510.256   -49251552.001 6 -38175046.982 7
  14482372.772   -26496521.292 6 -20532182.329 7
 95  2 12 21  1 29.9740000  0  8 28 18  2 31 19 16 29 27
  15619077.779   -25764735.707 5 -19859891.472 6
  12580112.819   -55612867.162 7 -42988391.317 9
  15780713.654   -11621438.480 5  -8802045.832 5
  14078174.545   -29569599.217 6 -22799867.738 7
  12895623.959   -49082881.463 7 -38121336.343 9
  16696713.904    -3439358.520 3  -2165501.039 3
  14278560.264   -49240784.937 6 -38166657.145 7
  14457187.358   -26628886.143 6 -20635323.684 7
 95  2 12 21  1 59.9740000  0  8 28 18  2 31 19 16 29 27
  15612870.764   -25797327.818 5 -19885287.933 6
  12573449.944   -55647883.330 7 -43015676.658 9
  15752123.819   -11771655.828 5  -8919098.106 5
  14059916.631   -29665530.687 6 -22874619.503 7
  12880498.217   -49162370.799 7 -38183276.068 9
  16673652.373    -3560571.850 4  -2259952.974 5
  14280669.897   -49229696.784 6 -38158017.117 7
  14432018.272   -26761170.926 6 -20738402.658 7
 95  2 12 21  2 29.9740000  0  8 28 18  2 31 19 16 29 27
  15606769.865   -25829399.853 5 -19910279.152 6
  12566884.428   -55682374.327 7 -43042552.780 9
  15723583.420   -11921655.614 5  -9035980.868 5
  14041762.858   -29760929.444 6 -22948956.170 8
  12865404.194   -49241681.833 7 -38245076.871 9
  16650678.194    -3681288.610 4  -2354017.976 2
  14282840.639   -49218289.105 6 -38149128.110 7
  14406860.842   -26893356.412 6 -20841404.258 7
 95  2 12 21  2 59.9740000  0  8 28 18  2 31 19 16 29 27
  15600765.490   -25860953.341 5 -19934866.312 6
  12560414.451   -55716372.128 7 -43069044.589 9
  15695082.740   -12071423.439 5  -9152682.873 5
  14023709.397   -29855796.779 6 -23022878.734 7
  12850344.311   -49320837.951 7 -38306756.956 9
  16627799.108    -3801529.345 3  -2447712.049 2
  14285073.811   -49206562.836 6 -38139990.846 7
  14381724.647   -27025438.792 6 -20944325.516 7
 95  2 12 21  3 29.9740000  0  8 28 18  2 31 19 16 29 27
  15594860.194   -25891994.035 5 -19959053.866 6
  12554039.365   -55749877.581 7 -43095152.754 9
  15666629.209   -12220952.506 5  -9269198.829 5
  14005760.451   -29950129.904 6 -23096385.034 7
  12835303.264   -49399864.777 7 -38368336.290 9
  16605004.311    -3921309.518 3  -2541047.281 2
  14287364.811   -49194508.037 6 -38130597.580 7
  14356607.647   -27157420.429 6 -21047168.301 7
 95  2 12 21  3 59.9730000  0  8 28 18  2 31 19 16 29 27
  15589052.251   -25922520.012 5 -19982840.361 5
  12547756.275   -55782896.456 7 -43120881.760 9
  15638221.025   -12370232.307 5  -9385520.584 6
  13987915.642   -30043900.962 6 -23169453.356 7
  12820291.306   -49478756.596 7 -38429810.432 9
  16582304.134    -4040630.472 3  -2634024.603 3
  14289726.556   -49182106.403 6 -38120934.061 7
  14331516.970   -27289291.793 6 -21149925.138 7
 95  2 12 21  4 29.9730000  0  8 28 18  2 31 19 16 29 27
  15583340.032   -25952534.901 5 -20006228.629 6
  12541561.923   -55815451.822 7 -43146249.605 9
  15609856.165   -12519284.034 5  -9501664.607 6
  13970176.111   -30137111.041 6 -23242084.558 7
  12805306.314   -49557500.486 7 -38491169.302 9
  16559677.540    -4159507.583 3  -2726656.120 4
  14292153.775   -49169354.540 6 -38110997.640 7
  14306437.353   -27421071.670 6 -21252610.690 7
 95  2 12 21  4 59.9730000  0  8 28 18  2 31 19 16 29 27
  15577733.134   -25982041.419 5 -20029220.732 6
  12535456.431   -55847532.720 7 -43171247.718 9
  15581534.900   -12668113.227 5  -9617635.235 6
  13952544.892   -30229753.394 6 -23314273.370 7
  12790356.736   -49636071.191 7 -38552393.224 9
  16537140.993    -4277934.082 3  -2818936.492 2
  14294643.501   -49156258.997 6 -38100793.413 7
  14281377.220   -27552767.376 6 -21355230.665 7
 95  2 12 21  5 29.9730000  0  8 28 18  2 31 19 16 29 27
  15572210.181   -26011036.268 5 -20051814.148 6
  12529444.845   -55879122.566 7 -43195863.201 9
  15553255.814   -12816734.748 5  -9733444.047 6
  13935029.587   -30321802.985 6 -23386000.285 7
  12775444.314   -49714438.951 7 -38613459.008 9
  16514692.392    -4395893.899 3  -2910853.208 1
  14297200.454   -49142829.347 6 -38090328.851 7
  14256331.431   -27684379.528 6 -21457785.528 7
 95  2 12 21  5 59.9730000  0  8 28 18  2 31 19 16 29 27
  15566784.454   -26039522.249 5 -20074011.045 6
  12523526.993   -55910223.282 7 -43220097.547 9
  15525005.040   -12965178.749 5  -9849114.528 6
  13917630.486   -30413252.924 6 -23457259.938 7
  12760568.431   -49792598.835 7 -38674362.801 9
  16492334.845    -4513374.930 3  -3002396.883 1
  14299814.392   -49129087.478 6 -38079620.996 6
  14231304.204   -27815911.952 6 -21560278.265 7
 95  2 12 21  6 29.9730000  0  8 28 18  2 31 19 16 29 27
  15561462.923   -26067498.500 5 -20095810.749 6
  12517701.275   -55940829.714 7 -43243946.735 9
  15496790.759   -13113438.802 5  -9964641.680 6
  13900336.298   -30504116.738 6 -23528062.872 7
  12745737.462   -49870545.826 7 -38735100.711 9
  16470074.150    -4630373.104 3  -3093564.348 2
  14302489.587   -49115031.008 6 -38068668.008 7
  14206294.196   -27947376.021 6 -21662717.741 7
 95  2 12 21  6 59.9730000  0  8 28 18  2 31 19 16 29 27
  15556237.345   -26094969.202 5 -20117216.516 6
  12511973.439   -55970930.492 7 -43267401.905 9
  15468612.587   -13261511.463 5 -10080022.803 6
  13883155.845   -30594394.160 6 -23598408.879 7
  12730942.939   -49948293.602 7 -38795683.384 9
  16447901.032    -4746899.560 3  -3184364.179 1
  14305225.017   -49100660.798 6 -38057470.537 7
  14181280.548   -28078786.838 6 -21765115.708 7
 95  2 12 21  7 29.9730000  0  8 28 18  2 31 19 16 29 27
  15551106.384   -26121937.343 5 -20138230.681 6
  12506341.111   -56000532.651 7 -43290468.548 9
  15440474.540   -13409398.720 5 -10195259.465 6
  13866090.228   -30684089.586 6 -23668301.387 7
  12716183.493   -50025854.618 7 -38856120.532 9
  16425814.470    -4862962.828 3  -3274803.082 1
  14308015.118   -49085988.297 6 -38046037.521 7
  14156284.743   -28210144.581 6 -21867472.328 7
 95  2 12 21  7 59.9730000  0  8 28 18  2 31 19 16 29 27
  15546070.025   -26148392.609 5 -20158845.208 6
  12500805.884   -56029629.776 7 -43313141.653 9
  15412372.321   -13557072.393 5 -10310329.691 6
  13849132.009   -30773217.670 6 -23737751.814 7
  12701459.056   -50103212.180 7 -38916399.151 9
  16403813.775    -4978559.771 3  -3364878.584 2
  14310870.564   -49070990.092 6 -38034350.708 7
  14131296.040   -28341439.151 6 -21969779.715 7
 95  2 12 21  8 29.9730000  0  8 28 18  2 31 19 16 29 27
  15541137.361   -26174343.920 5 -20179067.056 6
  12495358.501   -56058239.876 7 -43335435.266 9
  15384315.040   -13704519.664 5 -10425223.509 6
  13832271.157   -30861803.983 6 -23806780.071 7
  12686779.689   -50180368.095 7 -38976520.632 9
  16381906.118    -5093711.922 3  -3454607.571 3
  14313788.486   -49055668.837 6 -38022412.171 6
  14106322.071   -28472679.852 6 -22072045.135 7
 95  2 12 21  8 59.9730000  0  8 28 18  2 31 19 16 29 27
  15536292.571   -26199791.244 5 -20198896.188 6
  12490009.446   -56086362.717 7 -43357349.188 9
  15356295.446   -13851742.887 5 -10539942.762 6
  13815517.392   -30949846.963 6 -23875384.957 7
  12672137.243   -50257322.420 7 -39036485.025 9
  16360075.314    -5208421.551 4  -3543991.611 1
  14316759.798   -49040041.155 6 -38010234.862 6
  14081366.657   -28603840.147 6 -22174247.901 7
 95  2 12 21  9 29.9730000  0  8 28 18  2 31 19 16 29 27
  15531536.181   -26224735.589 5 -20218333.372 6
  12484747.579   -56114011.800 7 -43378893.958 9
  15328326.157   -13998738.457 5 -10654484.608 6
  13798863.868   -31037354.468 6 -23943572.589 7
  12657533.384   -50334063.583 7 -39096283.322 9
  16338334.603    -5322676.737 4  -3633021.623 3
  14319791.611   -49024106.570 6 -37997818.402 6
  14056429.361   -28734894.804 6 -22276368.353 7
 95  2 12 21  9 59.9730000  0  8 28 18  2 31 19 16 29 27
  15526891.236   -26249173.145 5 -20237375.666 5
  12479575.548   -56141188.401 7 -43400070.562 9
  15300400.150   -14145491.667 5 -10768837.606 6
  13782316.993   -31124317.045 6 -24011335.604 7
  12642965.665   -50410606.513 7 -39155927.156 9
  16316678.431    -5436460.737 4  -3721684.463 4
  14322888.642   -49007847.838 6 -37985149.371 6
  14031509.900   -28865835.125 6 -22378399.713 7
 95  2 12 21 10 29.9730000  0  8 28 18  2 31 19 16 29 27
  15522344.736   -26273107.667 5 -20256025.995 6
  12474491.970   -56167897.828 7 -43420883.135 9
  15272518.267   -14292009.520 5 -10883007.207 6
  13765876.282   -31210723.264 6 -24078665.095 7
  12628431.111   -50486987.739 7 -39215444.984 9
  16295120.306    -5549762.626 4  -3809971.628 4
  14326040.736   -48991270.593 6 -37972232.159 6
  14006612.415   -28996655.409 6 -22480337.539 7
 95  2 12 21 10 59.9730000  0  8 28 18  2 31 19 16 29 27
  15517880.532   -26296547.580 5 -20274290.905 5
  12469502.189   -56194129.416 7 -43441323.361 9
  15244675.861   -14438306.974 5 -10997005.070 6
  13749541.829   -31296557.435 6 -24145548.831 7
  12613924.157   -50563226.682 7 -39274851.943 9
  16273654.978    -5662564.047 5  -3897868.804 5
  14329253.720   -48974385.417 6 -37959074.991 6
  13981745.915   -29127356.023 6 -22582182.102 7
 95  2 12 21 11 29.9730000  0  8 28 18  2 31 19 16 29 27
  15513512.962   -26319493.241 5 -20292170.695 5
  12464600.251   -56219882.600 7 -43461390.811 9
  15216880.212   -14584388.216 5 -11110834.454 6
  13733319.470   -31381816.910 6 -24211984.753 7
  12599440.845   -50639332.654 7 -39334155.293 9
  16252286.642    -5774846.030 5  -3985361.204 4
  14332527.392   -48957189.640 6 -37945675.795 6
  13956890.923   -29257957.357 6 -22683949.319 7
 95  2 12 21 11 59.9730000  0  8 28 18  2 31 19 16 29 27
  15509239.915   -26341943.102 5 -20309664.152 5
  12459795.986   -56245136.630 7 -43481069.304 9
  15189122.478   -14730252.401 5 -11224494.718 6
  13717206.025   -31466487.420 6 -24277961.750 7
  12584984.790   -50715310.389 7 -39393358.717 9
  16231022.650    -5886604.967 5  -4072446.060 5
  14335858.634   -48939684.167 6 -37932035.286 6
  13932053.048   -29388471.746 6 -22785648.773 7
 95  2 12 21 12 29.9730000  0  8 28 18  2 31 19 16 29 27
  15505065.196   -26363898.254 5 -20326772.113 6
  12455086.993   -56269880.941 7 -43500350.615 9
  15161406.134   -14875903.602 5 -11337989.012 6
  13701208.275   -31550558.728 6 -24343471.843 7
  12570553.907   -50791133.078 7 -39452441.329 9
  16209858.329    -5997844.334 5  -4159126.053 5
  14339246.642   -48921881.373 6 -37918163.092 6
  13907234.798   -29518905.155 6 -22887285.135 7
 95  2 12 21 12 59.9730000  0  8 28 18  2 31 19 16 29 27
  15500978.829   -26385362.080 5 -20343497.233 6
  12450475.759   -56294114.158 7 -43519233.679 9
  15133730.212   -15021344.463 5 -11451319.411 6
  13685323.923   -31634029.726 6 -24408514.161 7
  12556160.868   -50866765.953 7 -39511376.036 9
  16188782.181    -6108571.858 4  -4245407.209 4
  14342688.282   -48903789.972 6 -37904066.020 6
  13882424.298   -29649272.561 6 -22988870.074 7
 95  2 12 21 13 29.9730000  0  8 28 18  2 31 19 16 29 27
  15496988.251   -26406336.529 5 -20359841.010 6
  12445957.665   -56317849.713 7 -43537728.938 9
  15106094.978   -15166567.433 5 -11564480.021 6
  13669553.009   -31716909.957 6 -24473096.146 7
  12541808.689   -50942194.071 7 -39570151.186 9
  16167807.892    -6218802.689 3  -4331301.348 5
  14346188.103   -48885403.441 6 -37889738.975 6
  13857628.634   -29779582.552 6 -23090410.270 7
 95  2 12 21 13 59.9730000  0  8 28 18  2 31 19 16 29 27
  15493088.470   -26426822.006 5 -20375803.777 6
  12441537.111   -56341081.857 7 -43555831.940 9
  15078503.782   -15311559.392 5 -11677460.629 6
  13653889.361   -31799187.910 6 -24537208.824 7
  12527499.204   -51017407.518 7 -39628759.062 9
  16146918.611    -6328556.265 4  -4416823.563 5
  14349741.540   -48866720.781 6 -37875181.167 6
  13832844.548   -29909822.867 6 -23191896.179 8
 95  2 12 21 14 29.9730000  0  8 28 18  2 31 19 16 29 27
  15489283.907   -26446816.728 5 -20391384.142 6
  12437210.173   -56363821.631 7 -43573551.276 9
  15050956.345   -15456320.994 5 -11790261.739 6
  13638350.431   -31880871.051 6 -24600858.009 8
  12513225.892   -51092400.284 7 -39687194.975 9
  16126124.790    -6437838.812 4  -4501978.787 4
  14353351.087   -48847751.967 6 -37860400.395 6
  13808076.923   -30039986.996 6 -23293322.713 8
 95  2 12 21 14 59.9730000  0  8 28 18  2 31 19 16 29 27
  15485573.900   -26466322.800 5 -20406583.721 5
  12432973.915   -56386079.852 7 -43590895.376 9
  15023449.728   -15600848.868 5 -11902880.714 6
  13622916.517   -31961979.752 6 -24664059.579 7
  12498993.900   -51167180.751 7 -39745465.453 9
  16105421.611    -6546654.285 4  -4586770.035 5
  14357017.345   -48828484.474 6 -37845386.890 6
  13783325.626   -30170057.873 6 -23394676.601 8
 95  2 12 21 15 29.9720000  0  8 28 18  2 31 19 16 29 27
  15481954.738   -26485340.058 5 -20421402.428 6
  12428829.770   -56407855.546 7 -43607863.480 9
  14995997.832   -15745124.578 5 -12015303.217 6
  13607595.184   -32042503.614 6 -24726805.436 7
  12484802.270   -51241763.640 7 -39803581.991 9
  16084800.113    -6655001.469 3  -4671196.395 5
  14360742.512   -48808911.522 6 -37830135.370 6
  13758594.145   -30300001.272 6 -23495931.137 8
 95  2 12 21 15 59.9720000  0  8 28 18  2 31 19 16 29 27
  15478422.418   -26503870.060 5 -20435841.456 6
  12424778.621   -56429150.819 7 -43624457.231 9
  14968589.449   -15889160.024 5 -12127538.492 6
  13592379.278   -32122439.149 6 -24789092.854 7
  12470647.817   -51316154.567 7 -39861548.936 9
  16064268.637    -6762894.564 3  -4755268.925 5
  14364524.129   -48789041.833 6 -37814652.607 6
  13733893.082   -30429815.173 6 -23597084.782 8
 95  2 12 21 16 29.9720000  0  8 28 18  2 31 19 16 29 27
  15474994.762   -26521911.217 5 -20449899.571 5
  12420817.653   -56449967.723 7 -43640678.226 9
  14941227.074   -16032947.040 5 -12239580.187 6
  13577283.903   -32201780.808 6 -24850917.508 8
  12456530.340   -51390337.137 7 -39919353.525 9
  16043829.973    -6870312.042 3  -4838970.816 5
  14368362.910   -48768859.163 6 -37798925.980 6
  13709220.371   -30559491.849 6 -23698131.498 8
 95  2 12 21 16 59.9720000  0  8 28 18  2 31 19 16 29 27
  15471648.871   -26539468.346 5 -20463580.523 6
  12416948.817   -56470301.667 7 -43656522.889 9
  14913917.473   -16176466.416 5 -12351413.338 6
  13562301.348   -32280517.813 6 -24912271.006 8
  12442452.715   -51464309.218 7 -39976994.098 9
  16023479.278    -6977249.253 3  -4922298.478 4
  14372266.567   -48748362.382 6 -37782954.586 6
  13684563.692   -30689036.037 6 -23799074.989 8
 95  2 12 21 17 29.9720000  0  8 28 18  2 31 19 16 29 27
  15468399.496   -26556546.292 5 -20476888.079 6
  12413170.207   -56490155.851 7 -43671993.711 9
  14886654.887   -16319722.928 5 -12463041.649 6
  13547435.137   -32358640.255 6 -24973145.627 7
  12428417.785   -51538072.740 7 -40034472.157 9
  16003217.832    -7083709.228 3  -5005254.259 4
  14376221.895   -48727573.894 6 -37766755.888 6
  13659933.746   -30818475.034 6 -23899936.500 8
 95  2 12 21 17 59.9720000  0  8 28 18  2 31 19 16 29 27
  15465244.153   -26573138.014 5 -20489816.756 6
  12409482.153   -56509532.185 7 -43687092.183 9
  14859445.074   -16462719.730 5 -12574467.599 6
  13532681.543   -32436152.206 6 -25033544.539 8
  12414421.910   -51611617.853 7 -40091780.025 9
  15983058.668    -7189673.790 4  -5087824.030 4
  14380233.067   -48706499.609 6 -37750334.496 6
  13635315.098   -30947832.381 6 -24000734.400 8
 95  2 12 21 18 29.9720000  0  8 28 18  2 31 19 16 29 27
  15462180.246   -26589247.523 5 -20502369.688 6
  12405885.168   -56528434.551 7 -43701821.328 9
  14832283.145   -16605448.501 5 -12685684.700 6
  13518045.465   -32513064.837 6 -25093476.440 8
  12400466.238   -51684957.415 7 -40148927.731 9
  15962990.121    -7295127.161 5  -5169995.440 4
  14384295.231   -48685143.262 6 -37733693.309 6
  13610714.504   -31077122.226 6 -24101479.698 8
 95  2 12 21 18 59.9720000  0  8 28 18  2 31 19 16 29 27
  15459205.606   -26604876.829 5 -20514548.429 6
  12402377.957   -56546866.887 7 -43716184.221 9
  14805171.934   -16747923.745 5 -12796704.234 6
  13503527.137   -32589377.311 6 -25152940.697 8
  12386546.098   -51758114.301 7 -40205933.086 9
  15943017.449    -7400076.573 4  -5251774.145 4
  14388410.442   -48663528.903 6 -37716851.062 6
  13586125.715   -31206346.622 6 -24202173.992 8
 95  2 12 21 19 29.9720000  0  8 28 18  2 31 19 16 29 27
  15456325.824   -26620023.674 5 -20526351.231 6
  12398958.778   -56564834.717 7 -43730185.159 9
  14778102.543   -16890171.463 6 -12907546.485 6
  13489115.051   -32665100.077 6 -25211945.442 8
  12372657.551   -51831093.908 7 -40262800.311 9
  15923143.153    -7504515.463 5  -5333155.055 3
  14392571.137   -48641654.442 6 -37699806.144 6
  13561545.598   -31335505.471 6 -24302817.208 8
 95  2 12 21 19 59.9720000  0  8 28 18  2 31 19 16 29 27
  15453531.918   -26634692.833 5 -20537781.816 6
  12395630.363   -56582330.122 7 -43743817.978 9
  14751075.020   -17032198.226 6 -13018216.557 6
  13474817.410   -32740237.980 6 -25270494.454 8
  12358800.043   -51903904.326 7 -40319535.698 9
  15903373.285    -7608439.971 5  -5414135.142 5
  14396784.059   -48619511.870 6 -37682552.317 6
  13536983.926   -31464583.584 6 -24403397.512 8
 95  2 12 21 20 29.9720000  0  8 28 18  2 31 19 16 29 27
  15450837.895   -26648882.026 5 -20548838.389 6
  12392391.738   -56599342.926 7 -43757074.740 9
  14724088.723   -17174006.634 5 -13128716.492 6
  13460631.738   -32814779.015 6 -25328578.376 8
  12344979.121   -51976538.164 7 -40376133.502 9
  15883690.387    -7711852.076 5  -5494715.917 4
  14401052.887   -48597083.406 6 -37665075.717 6
  13512443.317   -31593558.482 6 -24503897.399 8
 95  2 12 21 20 59.9720000  0  8 28 18  2 31 19 16 29 27
  15448221.621   -26662596.533 5 -20559525.078 6
  12389246.637   -56615873.718 7 -43769955.910 9
  14697141.238   -17315624.795 6 -13239068.173 6
  13446560.856   -32888728.243 6 -25386201.135 8
  12331192.129   -52048993.189 7 -40432591.951 9
  15864105.301    -7814760.943 5  -5574904.572 3
  14405377.785   -48574366.009 6 -37647373.971 6
  13487915.020   -31722427.806 6 -24604315.016 8
 95  2 12 21 21 29.9720000  0  8 28 18  2 31 19 16 29 27
  15445704.973   -26675835.053 5 -20569840.877 5
  12386192.582   -56631918.566 7 -43782458.425 9
  14670231.231   -17457034.204 6 -13349257.201 6
  13432602.160   -32962092.642 6 -25443368.178 8
  12317439.637   -52121249.767 7 -40488895.771 9
  15844625.262    -7917156.866 4  -5654693.556 4
  14409761.379   -48551341.178 6 -37629432.668 6
  13463412.442   -31851184.840 6 -24704645.129 8
 95  2 12 21 21 59.9720000  0  8 28 18  2 31 19 16 29 27
  15443274.871   -26688599.891 5 -20579787.565 6
  12383232.238   -56647479.169 7 -43794583.603 9
  14643365.895   -17598210.043 6 -13459264.230 6
  13418752.488   -33034856.151 6 -25500066.997 8
  12303731.012   -52193303.619 7 -40545041.627 9
  15825233.707    -8019040.181 5  -5734083.107 4
  14414201.973   -48528008.357 6 -37611251.383 6
  13438939.512   -31979815.989 6 -24804877.156 8
 95  2 12 21 22 29.9720000  0  8 28 18  2 31 19 16 29 27
  15440932.738   -26700888.173 5 -20589362.894 5
  12380362.926   -56662562.913 7 -43806337.207 9
  14616548.832   -17739133.241 6 -13569074.391 6
  13405021.379   -33107015.538 6
  12290061.434   -52265145.676 7
  15805941.809    -8120405.503 4  -5813069.073 4
  14418698.481   -48504367.762 5 -37592830.270 6
  13414482.957   -32108321.926 6 -24905011.612 8
 95  2 12 21 22 59.9720000  0  8 28 18  2 31 19 16 29 27
  15438684.582   -26712707.188 5 -20598572.546 5
  12377583.551   -56677171.239 7 -43817720.354 9
  14589782.629   -17879790.956 6 -13678677.703 6
  13391402.262   -33178580.165 6 -25612060.226 7
  12276429.340   -52336778.528 7 -40656840.248 9
  15786751.965    -8221248.213 4  -5891647.759 4
  14423253.707   -48480435.362 6 -37574181.776 6
  13390055.168   -32236698.846 6 -25005045.530 8
 95  2 12 21 23 29.9720000  0  8 28 18  2 31 19 16 29 27
  15436530.934   -26724053.926 5 -20607414.192 5
  12374892.613   -56691303.970 7 -43828732.913 9
  14563073.199   -18020150.997 6 -13788049.044 6
  13377901.051   -33249531.783 6 -25667347.151 8
  12262837.371   -52408200.096 7 -40712493.423 9
  15767663.715    -8321560.949 5  -5969813.483 5
  14427860.520   -48456227.699 6 -37555318.789 5
  13365652.074   -32364938.781 6 -25104972.701 8
 95  2 12 21 23 59.9720000  0  8 28 18  2 31 19 16 29 27
  15434458.887   -26734928.546 5 -20615887.963 5
  12372295.129   -56704950.489 7 -43839366.601 9
  14536420.410   -18160219.819 6 -13897193.460 6
  13364518.582   -33319863.167 6 -25722150.797 8
  12249287.496   -52479412.319 7 -40767983.467 9
  15748675.301    -8421344.985 4  -6047567.257 3
  14432515.645   -48431754.936 5 -37536249.237 6
  13341274.340   -32493033.925 6 -25204787.054 8
 95  2 12 21 24 29.9720000  0  8 28 18  2 31 19 16 29 27
  15432480.348   -26745328.952 5 -20623992.215 5
  12369793.504   -56718101.204 7 -43849613.948 9
  14509816.160   -18300011.308 6 -14006121.783 6
  13351253.551   -33389577.482 6 -25776473.618 8
  12235774.926   -52550407.583 7 -40823304.449 9
  15729786.645    -8520593.671 4  -6124903.893 4
  14437224.895   -48407018.013 5 -37516973.848 6
  13316924.621   -32620987.564 6 -25304491.152 8
 95  2 12 21 24 59.9720000  0  8 28 18  2 31 19 16 29 27
  15430586.895   -26755262.222 5 -20631732.465 5
  12367382.778   -56730765.998 7 -43859482.655 9
  14483264.348   -18439551.156 6 -14114854.032 6
  13338105.598   -33458668.622 6 -25830310.848 8
  12222306.707   -52621194.095 7 -40878462.773 9
  15710999.637    -8619319.250 4  -6201832.906 3
  14441977.387   -48382033.371 5 -37497505.429 6
  13292604.278   -32748806.173 6 -25404090.009 8
 95  2 12 21 25 29.9720000  0  8 28 18  2 31 19 16 29 27
  15428787.262   -26764729.325 5 -20639109.482 5
  12365065.199   -56742951.225 7 -43868977.676 9
  14456756.809   -18578847.773 6 -14223396.737 6
  13325076.824   -33527134.166 6 -25883660.612 8
  12208875.442   -52691775.542 7 -40933461.306 9
  15692314.613    -8717528.233 4  -6278359.377 3
  14446781.762   -48356796.315 5 -37477840.320 5
  13268304.199   -32876499.265 6 -25503591.073 8
 95  2 12 21 25 59.9720000  0  8 28 18  2 31 19 16 29 27
  15427075.153   -26773733.899 5 -20646126.077 5
  12362836.293   -56754667.010 7 -43878106.891 9
  14430292.731   -18717914.806 6 -14331760.556 6
  13312164.824   -33594990.383 6 -25936535.573 8
  12195483.395   -52762144.911 7 -40988294.579 9
  15673719.559    -8815222.596 3  -6354484.844 2
  14451635.988   -48331281.403 5 -37457958.717 5
  13244027.145   -33004074.922 6 -25603000.625 8
 95  2 12 21 26 29.9710000  0  8 28 18  2 31 19 16 29 27
  15425453.187   -26782274.943 5 -20652781.491 5
  12360691.288   -56765934.337 7 -43886886.674 9
  14403873.476   -18856752.323 6 -14439945.521 6
  13299369.109   -33662233.401 6 -25988932.710 8
  12182132.374   -52832302.573 7 -41042962.889 9
  15655236.124    -8912398.495 4  -6430206.298 3
  14456546.070   -48305479.378 5 -37437853.385 5
  13219771.038   -33131546.306 6 -25702328.937 8
 95  2 12 21 26 59.9710000  0  8 28 18  2 31 19 16 29 27
  15423905.765   -26790358.450 4 -20659080.359 5
  12358631.398   -56776757.420 7 -43895320.283 9
  14377499.273   -18995360.117 6 -14547951.499 6
  13286684.491   -33728880.525 6 -26040865.523 8
  12168821.405   -52902259.495 7 -41097474.779 9
  15636837.929    -9009075.410 4  -6505538.928 3
  14461507.538   -48279388.942 5 -37417523.301 6
  13195530.093   -33258928.073 6 -25801587.417 8
 95  2 12 21 27 29.9710000  0  8 28 18  2 31 19 16 29 27
  15422454.015   -26797985.125 4 -20665023.291 5
  12356660.976   -56787117.845 7 -43903393.379 9
  14351169.405   -19133712.376 6 -14655758.352 6
  13274112.835   -33794946.181 6 -26092345.242 8
  12155548.718   -52972002.987 7 -41151820.359 9
  15618537.609    -9105244.338 4  -6580475.738 3
  14466531.062   -48253004.374 5 -37396964.035 5
  13171308.609   -33386224.239 6 -25900779.181 8
 95  2 12 21 27 59.9710000  0  8 28 18  2 31 19 16 29 27
  15421096.820   -26805157.565 5 -20670612.257 5
  12354775.452   -56797020.187 7 -43911109.527 9
  14324892.101   -19271807.831 6 -14763365.087 6
  13261652.609   -33860428.053 6 -26143370.065 8
  12142320.577   -53041525.973 7 -41205994.109 9
  15600330.280    -9200906.033 4  -6655017.290 4
  14471605.343   -48226340.205 5 -37376186.900 6
  13147093.913   -33513443.765 6 -25999911.230 8
 95  2 12 21 28 29.9710000  0  8 28 18  2 31 19 16 29 27
  15419818.960   -26811876.865 5 -20675848.117 5
  12352981.171   -56806446.914 7 -43918455.061 9
  14298662.609   -19409638.051 6 -14870765.160 6
  13249306.366   -33925308.490 6 -26193926.240 8
  12129132.132   -53110827.257 7 -41259995.105 9
  15582223.366    -9296056.226 3  -6729160.279 4
  14476724.359   -48199426.792 5 -37355215.558 5
  13122905.351   -33640571.722 6 -26098971.931 8
 95  2 12 21 28 59.9710000  0  8 28 18  2 31 19 16 29 27
  15418623.929   -26818142.255 5 -20680730.281 5
  12351284.155   -56815368.225 7 -43925406.773 9
  14272491.999   -19547175.030 6 -14977936.731 6
  13237078.499   -33989576.125 6 -26244004.902 8
  12115990.288   -53179893.041 7 -41313812.601 9
  15564222.241    -9390683.161 4  -6802895.518 5
  14481894.687   -48172274.640 5 -37334058.175 5
  13098738.515   -33767581.569 7 -26197940.595 8
 95  2 12 21 29 29.9710000  0  8 28 18  2 31 19 16 29 27
  15417510.374   -26823963.412 5 -20685266.282 5
  12349680.070   -56823799.920 7 -43931976.965 9
  14246371.257   -19684430.289 6 -15084888.785 7
  13224964.741   -34053221.746 6 -26293598.881 8
  12102891.155   -53248725.633 7 -41367448.385 9
  15546313.382    -9484785.027 3  -6876221.622 4
  14487104.499   -48144899.856 5 -37312727.313 5
  13074593.351   -33894470.201 7 -26296814.806 8
 95  2 12 21 29 59.9710000  0  8 28 18  2 31 19 16 29 27
  15416498.523   -26829336.613 5 -20689453.247 5
  12348166.718   -56831752.583 7 -43938173.879 9
  14220304.945   -19821409.241 6 -15191625.540 7
  13212974.257   -34116228.211 6 -26342694.832 8
  12089835.445   -53317328.905 7 -41420905.471 9
  15528502.163    -9578357.535 3  -6949135.238 4
  14492356.273   -48117293.433 5 -37291215.951 5
  13050472.679   -34021200.423 6 -26395565.586 8
 95  2 12 21 30 29.9710000  0  8 28 18  2 31 19 16 29 27
  15415552.773   -26834263.000 5 -20693292.024 5
  12346746.023   -56839216.622 7 -43943990.056 9
  14194292.179   -19958112.038 6 -15298147.102 7
  13201108.734   -34178592.226 6 -26391290.168 8
  12076821.741   -53385715.651 7 -41474193.837 9
  15510796.952    -9671401.815 3  -7021637.255 5
  14497655.585   -48089449.952 5 -37269519.868 5
  13026394.351   -34147748.384 7 -26494174.345 9
 95  2 12 21 30 59.9710000  0  8 28 18  2 31 19 16 29 27
  15414701.874   -26838741.968 5 -20696782.164 5
  12345417.132   -56846210.240 7 -43949439.659 9
  14168324.445   -20094551.013 6 -15404463.086 7
  13189359.734   -34240324.964 6 -26439393.600 8
  12063850.116   -53453890.694 7 -41527317.244 9
  15493193.335    -9763919.568 4  -7093728.980 5
  14503003.507   -48061357.021 5 -37247629.401 5
  13002346.280   -34274121.743 7 -26592647.055 8
 95  2 12 21 31 29.9710000  0  8 28 18  2 31 19 16 29 27
  15413938.351   -26842775.887 5 -20699925.530 5
  12344167.085   -56852766.309 7 -43954548.331 9
  14142411.077   -20230751.946 6 -15510593.584 7
  13177734.687   -34301432.311 6 -26487009.709 8
  12050913.312   -53521861.711 7 -41580281.668 9
  15475685.257    -9855915.686 4  -7165414.243 5
  14508398.765   -48033012.843 5 -37225543.171 5
  12978326.085   -34400332.723 7 -26690993.228 9
 95  2 12 21 31 59.9710000  0  8 28 18  2 31 19 16 29 27
  15413247.585   -26846378.603 5 -20702732.896 5
  12343000.452   -56858905.659 7 -43959332.285 9
  14116533.734   -20366731.705 6 -15616551.748 7
  13166217.960   -34361925.886 6 -26534147.551 8
  12038015.632   -53589650.197 7 -41633103.857 9
  15458280.484    -9947399.835 5  -7236700.559 4
  14513834.632   -48004433.101 5 -37203273.385 5
  12954336.687   -34526402.850 7 -26789229.646 9
 95  2 12 21 32 29.9710000  0  8 28 18  2 31 19 16 29 27
  15412646.179   -26849549.387 5 -20705203.689 5
  12341909.210   -56864634.835 7 -43963796.613 9
  14090700.921   -20502481.141 6 -15722330.430 7
  13154823.616   -34421809.723 6 -26580810.274 8
  12025154.054   -53657240.068 7 -41685771.284 9
  15440969.835   -10038357.921 5  -7307576.993 5
  14519318.562   -47975624.297 5 -37180825.106 5
  12930368.538   -34652368.429 7 -26887384.600 8
 95  2 12 21 32 59.9710000  0  8 28 18  2 31 19 16 29 27
  15412127.710   -26852288.902 5 -20707338.428 5
  12340895.577   -56869966.224 7 -43967950.986 9
  14064912.655   -20637996.082 6 -15827926.401 7
  13143544.241   -34481098.287 6 -26627009.150 8
  12012331.148   -53724618.424 7 -41738273.888 9
  15423762.648   -10128787.923 5  -7378041.913 4
  14524845.437   -47946576.389 5 -37158190.508 5
  12906411.812   -34778255.894 6 -26985478.690 9
 95  2 12 21 33 29.9710000  0  8 28 18  2 31 19 16 29 27
  15411687.421   -26854597.060 5 -20709137.067 5
  12339959.874   -56874880.053 7 -43971779.984 9
  14039175.038   -20773253.617 6 -15933321.794 7
  13132375.030   -34539785.880 6 -26672739.728 8
  11999551.890   -53791777.430 7 -41790605.571 9
  15406652.530   -10218694.106 5  -7448098.668 3
  14530414.616   -47917286.956 5 -37135367.710 5
  12882467.437   -34904056.644 6 -27083505.213 8
 95  2 12 21 33 59.9710000  0  8 28 18  2 31 19 16 29 27
  15411331.968   -26856476.696 5 -20710601.771 5
  12339111.741   -56879345.310 7 -43975259.447 9
  14013487.937   -20908234.510 6 -16038501.617 7
  13121320.226   -34597886.809 6 -26718013.164 8
  11986813.124   -53858711.395 7 -41842761.892 9
  15389641.405   -10308086.223 4  -7517754.843 3
  14536039.812   -47887755.224 5 -37112356.117 5
  12858550.163   -35029765.529 6 -27181460.143 9
 95  2 12 21 34 29.9710000  0  8 28 18  2 31 19 16 29 27
  15411050.273   -26857930.884 5 -20711734.945 5
  12338351.648   -56883337.303 7 -43978370.130 9
  13987856.788   -21042937.879 6 -16143465.192 7
  13110373.945   -34655414.927 6 -26762840.251 8
  11974119.976   -53925415.016 7 -41894738.727 9
  15372725.788   -10396983.486 5  -7587025.439 5
  14541703.335   -47857978.164 5 -37089153.363 5
  12834649.124   -35155370.277 6 -27279333.928 9
 95  2 12 21 34 59.9710000  0  8 28 18  2 31 19 16 29 27
  15410855.249   -26858963.658 5 -20712539.730 5
  12337685.374   -56886836.792 7 -43981097.048 9
  13962273.820   -21177368.233 6 -16248216.025 7
  13099537.734   -34712349.920 6 -26807205.176 8
  11961469.163   -53991899.047 7 -41946544.452 9
  15355898.413   -10485401.440 5  -7655922.532 4
  14547419.773   -47827954.826 5 -37065758.689 5
  12810770.812   -35280838.836 7 -27377101.600 9
 95  2 12 21 35 29.9710000  0  8 28 18  2 31 19 16 29 27
  15410738.695   -26859581.090 5 -20713020.897 5
  12337113.077   -56889832.651 7 -43983431.520 9
  13936741.976   -21311537.248 6 -16352763.217 7
  13088818.148   -34768677.163 6 -26851096.515 8
  11948857.648   -54058170.570 7 -41998184.583 9
  15339164.718   -10573328.696 4  -7724437.251 4
  14553173.023   -47797703.732 5 -37042186.567 5
  12786928.445   -35406153.693 7 -27474749.498 9
 95  2 12 21 35 59.9710000  0  8 28 18  2 31 19 16 29 27
  15410694.062   -26859788.676 5
  12336633.960   -56892353.778 7 -43985396.077 9
  13911254.429   -21445465.394 6 -16457122.726 7
  13078215.155   -34824394.308 6 -26894512.457 8
  11936288.921   -54124233.807 7 -42049662.419 9
  15322536.460   -10660750.686 5  -7792558.247 4
  14558971.937   -47767228.598 5 -37018439.864 5
  12763106.312   -35531325.074 7 -27572285.594 9
 95  2 12 21 36 29.9710000  0  8 28 18  2 31 19 16 29 27
  15410740.593   -26859583.995 5
  12336238.991   -56894424.276 7 -43987009.492 9
  13885816.046   -21579156.594 6 -16561297.598 7
  13067733.421   -34879473.871 6 -26937431.590 8
  11923756.687   -54190089.111 7 -42100978.231 9
  15305999.718   -10747642.000 4  -7860265.734 4
  14564817.882   -47736530.932 5 -36994519.741 5
  12739313.382   -35656357.935 7 -27669713.749 9
 95  2 12 21 36 59.9710000  0  8 28 18  2 31 19 16 29 27
  15410852.812   -26858973.281 5 -20712547.379 5
  12335930.460   -56896063.969 7 -43988287.217 8
  13860418.702   -21712610.332 6 -16665287.430 7
  13057372.695   -34933920.282 6 -26979857.346 8
  11911262.163   -54255742.166 7 -42152136.446 9
  15289562.695   -10833985.816 4  -7927546.610 4
  14570696.734   -47705614.983 5 -36970429.541 5
  12715547.070   -35781267.923 7 -27767046.161 9
 95  2 12 21 37 29.9710000  0  8 28 18  2 31 19 16 29 27
  15411043.421   -26857957.493 5 -20711755.918 5
  12335693.109   -56897299.585 7 -43989250.075 9
  13835074.046   -21845815.391 6 -16769083.496 7
  13047126.851   -34987763.443 6 -27021813.047 8
  11898807.265   -54321188.451 7 -42203133.548 9
  15273241.109   -10919774.460 4  -7994394.871 4
  14576623.882   -47674488.513 5 -36946175.310 5
  12691795.804   -35906064.365 7 -27864290.102 9
 95  2 12 21 37 59.9700000  0  8 28 18  2 31 19 16 29 27
  15411313.401   -26856530.490 5 -20710644.013 5
  12335534.026   -56898138.232 7 -43989903.607 8
  13809778.299   -21978737.393 6 -16872658.986 7
  13036996.908   -35041000.424 6 -27063296.391 8
  11886393.908   -54386419.466 7 -42253962.902 9
  15257014.158   -11005014.916 4  -8060815.993 4
  14582585.072   -47643148.047 5 -36921754.316 5
  12668071.291   -36030739.102 7 -27961439.212 9
 95  2 12 21 38 29.9700000  0  8 28 18  2 31 19 16 29 27
  15411670.252   -26854694.094 5 -20709213.095 5
  12335455.338   -56898559.486 7
  13784536.213   -22111376.577 6 -16976014.100 7
  13026982.955   -35093641.285 6 -27104315.228 8
  11874019.526   -54451440.943 7 -42304628.983 9
  15240895.033   -11089725.953 4  -8126824.588 4
  14588589.393   -47611594.522 5 -36897167.320 5
  12644372.455   -36155283.078 7 -28058486.422 9
 95  2 12 21 38 59.9700000  0  8 28 18  2 31 19 16 29 27
  15412096.401   -26852454.797 5 -20707468.226 5
  12335452.987   -56898568.435 7
  13759351.893   -22243732.658 6 -17079148.614 7
  13017073.947   -35145701.387 6 -27144881.526 8
  11861688.416   -54516252.772 7 -42355131.705 9
  15224882.268   -11173920.931 4  -8192431.035 3
  14594632.197   -47579838.869 5 -36872422.799 5
  12620697.127   -36279687.038 7 -28155424.535 9
 95  2 12 21 39 29.9700000  0  8 28 18  2 31 19 16 29 27
  15412593.369   -26849814.150 4 -20705410.640 5
  12335529.697   -56898172.540 7
  13734219.916   -22375802.347 6 -17182059.969 7
  13007281.307   -35197169.479 6 -27184986.519 7
  11849394.518   -54580849.721 7 -42405466.985 9
  15208949.760   -11257618.426 4  -8257649.845 3
  14600710.190   -47547887.555 5 -36847525.830 5
  12597053.697   -36403939.011 7 -28252244.221 9
 95  2 12 21 39 59.9700000  0  8 28 18  2 31 19 16 29 27
  15413173.119   -26846772.787 5 -20703040.794 5
  12335682.713   -56897348.065 7 -43989288.077 9
  13709136.963   -22507611.079 6 -17284767.973 7
  12997599.760   -35248024.061 6 -27224613.466 8
  11837146.604   -54645230.644 7 -42455633.931 9
  15193117.682   -11340816.228 3  -8322479.275 4
  14606832.354   -47515728.081 5 -36822466.653 5
  12573439.018   -36528041.377 7 -28348947.326 9
 95  2 12 21 40 29.9700000  0  8 28 18  2 31 19 16 29 27
  15413831.315   -26843328.233 5 -20700356.770 5
  12335925.822   -56896086.511 7 -43988305.097 9
  13684097.729   -22639178.327 6 -17387287.817 7
  12988042.596   -35298260.455 6 -27263758.705 7
  11824936.487   -54709388.657 7 -42505627.188 9
  15177382.096   -11423510.195 4  -8386916.123 4
  14612996.666   -47483345.959 5 -36797233.997 5
  12549852.205   -36651992.106 7 -28445532.275 9
 95  2 12 21 40 59.9700000  0  8 28 18  2 31 19 16 29 27
  15414564.330   -26839486.882 5 -20697363.560 5
  12336245.377   -56894400.809 7 -43986991.610 9
  13659107.979   -22770506.434 6 -17489621.316 7
  12978602.987   -35347882.147 6 -27302424.954 7
  11812767.002   -54773334.652 7 -42555455.233 9
  15161744.697   -11505710.539 5  -8450968.307 2
  14619202.393   -47450749.038 5 -36771833.961 5
  12526290.565   -36775805.187 7 -28542009.956 9
 95  2 12 21 41 29.9700000  0  8 28 18  2 31 19 16 29 27
  15415362.127   -26835256.958 5 -20694067.567 5
  12336649.901   -56892285.653 7 -43985343.485 8
  13634161.151   -22901602.090 6 -17591773.682 7
  12969272.588   -35396884.643 6 -27340608.718 8
  11800638.065   -54837073.626 7 -42605121.964 9
  15146195.385   -11587417.666 4  -8514636.207 4
  14625440.674   -47417931.541 5 -36746262.066 5
  12502759.291   -36899483.617 7 -28638382.722 9
 95  2 12 21 41 59.9700000  0  8 28 18  2 31 19 16 29 27
  15416248.010   -26830634.638 5 -20690465.800 4
  12337136.104   -56889733.312 7 -43983354.689 8
  13609259.643   -23032460.525 6 -17693741.215 7
  12960067.158   -35445268.955 6 -27378310.780 8
  11788551.401   -54900599.246 7 -42654622.454 9
  15130740.877   -11668601.153 4  -8577896.032 4
  14631729.565   -47384898.111 5 -36720521.898 5
  12479243.526   -37023027.661 7 -28734650.764 9
 95  2 12 21 42 29.9700000  0  8 28 18  2 31 19 16 29 27
  15417201.479   -26825620.785 5 -20686558.929 4
  12337699.752   -56886757.445 7 -43981035.877 8
  13584409.994   -23163048.993 6 -17795498.377 7
  12950974.065   -35493042.476 6 -27415536.892 7
  11776505.096   -54963905.232 7 -42703951.791 9
  15115395.276   -11749264.405 5  -8640750.499 3
  14638050.987   -47351671.385 5 -36694631.114 5
  12455761.510   -37146430.718 7 -28830808.948 9
 95  2 12 21 42 59.9700000  0  8 28 18  2 31 19 16 29 27
  15418226.018   -26820216.172 4 -20682347.578 3
  12338347.408   -56883357.642 7 -43978386.727 8
  13559612.346   -23293356.777 6 -17897036.840 7
  12941998.916   -35540212.354 6 -27452292.645 7
  11764500.229   -55026975.961 7 -42753097.811 9
  15100147.635   -11829390.749 5  -8703186.602 4
  14644412.455   -47318264.083 5 -36668599.635 5
  12432307.479   -37269693.847 7 -28926858.096 9
 95  2 12 21 43 29.9700000  0  8 28 18  2 31 19 16 29 27
  15419327.838   -26814428.363 3 -20677837.647 4
  12339074.252   -56879538.968 7 -43975411.188 8
  13534868.315   -23423394.939 6 -17998365.191 7
  12933138.924   -35586782.010 6 -27488580.693 7
  11752545.322   -55089805.772 7 -42802056.096 9
  15085002.776   -11908975.484 5  -8765200.663 4
  14650801.697   -47284689.191 5 -36642437.557 5
  12408873.112   -37392823.851 7 -29022803.516 9
 95  2 12 21 43 59.9700000  0  8 28 18  2 31 19 16 29 27
  15420506.244   -26808250.668 3 -20673023.918 4
  12339884.994   -56875290.217 7 -43972100.519 8
  13510173.651   -23553154.405 6 -18099476.384 7
  12924390.213   -35632763.240 6 -27524410.213 7
  11740637.057   -55152380.223 7 -42850815.402 9
  15069958.596   -11988025.599 5  -8826798.167 4
  14657219.572   -47250947.058 5 -36616145.160 5
  12385471.401   -37515813.478 7 -29118639.548 9
 95  2 12 21 44 29.9700000  0  8 28 18  2 31 19 16 29 27
  15421756.237   -26801687.691 4 -20667909.950 4
  12340772.057   -56870611.522 7 -43968454.832 8
  13485532.815   -23682649.949 6 -18200381.930 7
  12915747.658   -35678169.801 6 -27559791.953 7
  11728775.768   -55214704.116 7 -42899379.468 9
  15055017.322   -12066566.101 5  -8887998.564 4
  14663676.916   -47217025.781 5 -36589713.160 5
  12362093.104   -37638658.289 7 -29214362.742 9
 95  2 12 21 44 59.9700000  0  8 28 18  2 31 19 16 29 27
  15423076.479   -26794741.952 4 -20662497.733 4
  12341744.916   -56865502.779 7 -43964474.042 8
  13460936.112   -23811903.519 6 -18301098.918 7
  12907215.385   -35723007.084 6 -27594730.091 7
  11716963.135   -55276789.627 7 -42947757.777 9
  15040165.541   -12144590.107 4  -8948796.486 5
  14670170.752   -47182914.825 5 -36563133.367 5
  12338746.940   -37761350.533 7 -29309967.054 9
 95  2 12 21 45 29.9700000  0  8 28 18  2 31 19 16 29 27
  15424470.330   -26787418.918 5 -20656791.518 4
  12342795.526   -56859978.237 7 -43960169.249 8
  13436385.463   -23940917.034 6 -18401628.854 7
  12898791.627   -35767274.002 6 -27629223.784 7
  11705191.112   -55338650.625 7 -42995961.142 9
  15025411.377   -12222111.658 4  -9009202.921 4
  14676699.869   -47148613.717 5 -36536405.410 4
  12315427.455   -37883886.556 7 -29405449.629 9
 95  2 12 21 45 59.9700000  0  8 28 18  2 31 19 16 29 27
  15425933.690   -26779719.632 5 -20650792.103 4
  12343925.018   -56854047.868 7 -43955548.232 8
  13411882.080   -24069681.404 6 -18501964.657 7
  12890473.674   -35810978.005 6 -27663278.841 7
  11693464.502   -55400270.276 7 -43043976.443 9
  15010757.572   -12299126.007 4  -9069214.091 4
  14683258.487   -47114117.198 5 -36509525.174 5
  12292139.752   -38006261.727 7 -29500806.861 9
 95  2 12 21 46 29.9700000  0  8 28 18  2 31 19 16 29 27
  15427475.158   -26771648.538 5 -20644502.969 2
  12345129.330   -56847724.625 7 -43950621.070 8
  13387427.877   -24198187.634 6 -18602099.310 7
  12882270.487   -35854096.651 6 -27696877.781 8
  11681784.947   -55461655.872 7 -43091809.356 9
  14996201.424   -12375621.561 4  -9128821.017 4
  14689860.432   -47079429.437 5 -36482495.919 4
  12268884.455   -38128481.803 7 -29596043.243 9
 95  2 12 21 46 59.9700000  0  8 28 18  2 31 19 16 29 27
  15429076.065   -26763209.398 5 -20637927.055 3
  12346405.666   -56841014.301 7 -43945392.283 8
  13363025.315   -24326416.437 6 -18702017.779 7
  12874181.815   -35896608.223 6 -27730003.681 8
  11670148.565   -55522806.017 7 -43139458.810 9
  14981744.776   -12451595.787 4  -9188021.685 4
  14696497.221   -47044557.504 5 -36455323.139 4
  12245654.213   -38250558.906 7 -29691168.218 9
 95  2 12 21 47 29.9700000  0  8 28 18  2 31 19 16 29 27
  15430755.596   -26754405.522 5 -20631066.917 3
  12347756.596   -56833910.254 7 -43939856.711 8
  13338681.487   -24454354.378 6 -18801709.611 7
  12866210.760   -35938496.807 6 -27762644.119 7
  11658557.729   -55583705.361 7 -43186912.829 9
  14967385.182   -12527047.753 4  -9246815.429 2
  14703170.557   -47009502.661 5 -36428007.841 4
  12222446.596   -38372498.896 7 -29786186.346 9
 95  2 12 21 47 59.9700000  0  8 28 18  2 31 19 16 29 27
  15432493.151   -26745237.845 4 -20623923.297 3
  12349187.854   -56826396.253 7 -43934001.694 8
  13314393.346   -24582001.949 6 -18901175.177 7
  12858359.346   -35979750.203 6 -27794789.610 8
  11647017.643   -55644360.093 7 -43234176.239 9
  14953131.924   -12601972.911 4  -9305198.657 4
  14709876.229   -46974258.572 5 -36400545.090 5
  12199272.057   -38494295.123 7 -29881092.458 9
 95  2 12 21 48 29.9700000  0  8 28 18  2 31 19 16 29 27
  15434307.963   -26735709.729 4 -20616498.839 3
  12350695.916   -56818466.611 7 -43927822.786 8
  13290154.518   -24709369.451 6 -19000422.512 7
  12850631.424   -36020354.613 6 -27826429.402 8
  11635513.627   -55704800.539 7 -43281272.686 9
  14938970.244   -12676382.402 4  -9363180.056 4
  14716618.729   -46938829.949 5 -36372938.552 4
  12176121.877   -38615946.191 7 -29975885.446 9
 95  2 12 21 48 59.9700000  0  8 28 18  2 31 19 16 29 27
  15436191.330   -26725827.020 4 -20608798.083 4
  12352282.666   -56810130.619 7 -43921327.254 8
  13265965.682   -24836473.169 6 -19099464.298 7
  12843025.322   -36060334.107 6 -27857582.248 8
  11624053.729   -55765030.022 7 -43328204.736 9
  14924903.205   -12750287.980 4  -9420768.787 4
  14723390.869   -46903224.402 5 -36345194.146 5
  12153002.744   -38737442.936 7 -30070558.186 9
 95  2 12 21 49 29.9690000  0  8 28 18  2 31 19 16 29 27
  15438139.060   -26715592.917 4 -20600823.487 3
  12353946.747   -56801390.966 7 -43914517.176 8
  13241828.864   -24963322.568 6 -19198307.915 7
  12835532.075   -36099711.712 6 -27888266.086 8
  11612631.239   -55825052.791 7 -43374975.717 9
  14910941.443   -12823689.567 5  -9477964.815 4
  14730199.646   -46867447.973 5 -36317316.600 4
  12129911.513   -38858770.328 7 -30165098.967 9
 95  2 12 21 49 59.9690000  0  8 28 18  2 31 19 16 29 27
  15440154.185   -26705010.928 3 -20592577.851 4
  12355682.122   -56792263.559 7 -43907404.958 8
  13217732.732   -25089942.796 6 -19296972.956 7
  12828147.364   -36138513.590 6 -27918501.303 8
  11601247.599   -55884885.210 7 -43421598.371 9
  14897060.036   -12896614.366 5  -9534789.340 4
  14737039.560   -46831503.645 5 -36289308.214 3
  12106858.943   -38979940.697 7 -30259517.391 9
 95  2 12 21 50 29.9690000  0  8 28 18  2 31 19 16 29 27
  15442232.708   -26694083.282 4 -20584062.822 4
  12357487.857   -56782769.802 6 -43900007.265 8
  13193684.068   -25216329.803 6 -19395456.262 7
  12820869.497   -36176762.515 6 -27948305.646 7
  11589898.919   -55944515.994 7 -43468063.910 9
  14883275.693   -12969060.296 4  -9591240.701 5
  14743907.325   -46795413.589 5 -36261186.271 2
  12083829.818   -39100952.729 7 -30353812.432 9
 95  2 12 21 50 59.9690000  0  8 28 18  2 31 19 16 29 27
  15444376.404   -26682806.604 3 -20575275.846 3
  12359364.544   -56772908.798 6 -43892323.420 8
  13169676.880   -25342474.707 6 -19493750.922 8
  12813693.388   -36214467.153 6 -27977685.873 7
  11578594.732   -56003924.571 7 -43514356.295 9
  14869584.146   -13041010.963 5  -9647306.135 5
  14750808.177   -46759170.041 5 -36232944.720 3
  12060831.989   -39221807.038 7 -30447984.577 9
 95  2 12 21 51 29.9690000  0  8 28 18  2 31 19 16 29 27
  15446588.544   -26671187.200 3 -20566221.799 3
  12361311.982   -56762679.453 7 -43884352.548 8
  13145721.068   -25468372.823 6 -19591853.273 7
  12806621.068   -36251617.663 6 -28006634.301 7
  11567329.607   -56063114.562 7 -43560478.349 9
  14855988.607   -13112454.497 4  -9702976.440 5
  14757731.802   -46722778.219 5 -36204587.653 3
  12037860.161   -39342523.715 7 -30542049.479 9
 95  2 12 21 51 59.9690000  0  8 28 18  2 31 19 16 29 27
  15448863.146   -26659227.921 3 -20556902.898 3
  12363326.833   -56752091.248 6 -43876102.048 8
  13121811.794   -25594014.163 6 -19689755.553 7
  12799662.966   -36288199.236 6 -28035139.406 7
  11556108.044   -56122083.730 7 -43606428.337 9
  14842488.083   -13183376.657 5  -9758240.457 4
  14764684.724   -46686247.375 5 -36176122.244 2
  12014913.357   -39463109.260 7 -30636012.187 9
 95  2 12 21 52 29.9690000  0  8 28 18  2 31 19 16 29 27
  15451207.747   -26646926.335 3 -20547317.249 4
  12365412.771   -56741133.589 6 -43867563.658 8
  13097956.208   -25719370.489 6 -19787435.738 7
  12792818.763   -36324186.169 6 -28063181.152 7
  11544929.372   -56180821.977 7 -43652198.385 9
  14829099.599   -13253747.993 5  -9813075.250 4
  14771662.435   -46649575.699 4 -36147547.105 2
  11991992.818   -39583556.897 7 -30729867.445 9
 95  2 12 21 52 59.9690000  0  8 28 18  2 31 19 16 29 27
  15453610.763   -26634290.691 3 -20537471.321 4
  12367568.536   -56729800.353 6 -43858732.619 8
  13074154.318   -25844444.761 6 -19884896.144 7
  12786086.872   -36359565.494 6 -28090749.434 7
  11533795.427   -56239337.752 7 -43697795.075 9
  14815814.216   -13323572.047 4  -9867483.605 4
  14778669.888   -46612756.518 5 -36118857.017 3
  11969097.216   -39703869.872 7 -30823617.777 9
 95  2 12 21 53 29.9690000  0  8 28 18  2 31 19 16 29 27
  15456077.677   -26621322.406 3 -20527366.206 3
  12369795.833   -56718095.874 6 -43849612.300 8
  13050408.857   -25969235.880 6 -19982135.906 7
  12779462.935   -36394337.442 6 -28117844.444 7
  11522705.388   -56297623.487 7 -43743212.513 9
  14802628.997   -13392859.934 4  -9921474.150 3
  14785697.513   -46575800.307 4 -36090060.142 2
  11946231.989   -39824031.389 7 -30917250.085 9
 95  2 12 21 53 59.9690000  0  8 28 18  2 31 19 16 29 27
  15458611.833   -26608019.113 3 -20517000.007 4
  12372095.638   -56706014.568 6 -43840198.352 8
  13026713.177   -26093744.221 6 -20079155.322 7
  12772959.755   -36428519.677 6 -28144479.933 7
  11511658.982   -56355664.413 7 -43788439.186 9
  14789543.263   -13461632.008 4  -9975062.796 5
  14792757.372   -46538699.557 4 -36061150.637 3
  11923401.911   -39944012.523 7 -31010741.835 9
 95  2 12 21 54 29.9690000  0  8 28 18  2 31 19 16 29 27
  15461206.380   -26594383.437 4 -20506374.823 4
  12374471.380   -56693532.282 6 -43830471.947 8
  13003073.200   -26217987.554 6 -20175968.236 7
  12766563.607   -36462121.195 6 -28170662.910 7
  11500663.419   -56413450.974 7 -43833467.655 9
  14776546.685   -13529907.814 4 -10028264.672 4
  14799851.583   -46501453.016 4 -36032127.534 3
  11900605.763   -40063802.594 7 -31104084.701 9
 95  2 12 21 54 59.9690000  0  8 28 18  2 31 19 16 29 27
  15463864.544   -26580413.617 3 -20495489.211 3
  12376921.208   -56680645.509 6 -43820430.362 8
  12979480.716   -26341975.800 6 -20272582.375 7
  12760278.388   -36495164.224 6 -28196410.711 7
  11489716.888   -56470979.664 7 -43878295.182 9
  14763648.388   -13597708.652 5 -10081096.471 4
  14806962.849   -46464055.519 3 -36002986.830 4
  11877846.638   -40183392.142 7 -31197271.323 9
 95  2 12 21 55 29.9690000  0  8 28 18  2 31 19 16 29 27
  15466586.318   -26566114.912 3 -20484347.350 2
  12379450.630   -56667361.863 6 -43810079.525 8
  12955932.958   -26465715.381 6 -20369002.754 7
  12754093.779   -36527664.794 6 -28221735.816 7
  11478818.536   -56528250.402 7 -43922921.712 9
  14750830.505   -13665055.690 4 -10133574.664 3
  14814111.888   -46426507.140 4 -35973728.554 5
  11855125.474   -40302794.235 7 -31290311.869 9
 95  2 12 21 55 59.9690000  0  8 28 18  2 31 19 16 29 27
  15469370.489   -26551491.418 3 -20472952.388 2
  12382053.599   -56653679.410 6 -43799417.940 8
  12932428.255   -26589213.490 6 -20465234.972 7
  12748013.646   -36559612.685 6 -28246630.265 7
  11467966.489   -56585266.799 7 -43967350.049 9
  14738102.810   -13731949.611 5 -10185699.767 3
  14821286.154   -46388802.702 4 -35944348.650 5
  11832437.575   -40422026.797 7 -31383220.317 9
 95  2 12 21 56 29.9690000  0  7 18  2 31 19 16 29 27
  12384733.318   -56639608.449 6 -43788453.602 7
  12908976.669   -26712463.506 6 -20561273.865 7
  12742043.841   -36590989.409 6 -28271079.653 7
  11457165.458   -56642034.812 7 -44011584.840 9
  14725463.497   -13798374.252 5 -10237459.229 3
  14828487.927   -46350940.076 4 -35914845.466 4
  11809776.599   -40541106.872 7 -31476009.940 9
 95  2 12 21 56 59.9690000  0  7 18  2 31 19 16 29 27
  12387476.224   -56625187.014 6 -43777216.184 8
  12885574.318   -26835452.787 6 -20657109.592 7
  12736180.779   -36621797.875 6 -28295086.238 7
  11446405.966   -56698570.828 7 -44055638.863 9
  14712912.810   -13864320.725 5 -10288846.075 3
  14835724.638   -46312920.435 4 -35885219.952 5
  11787141.341   -40660041.631 7 -31568686.331 9
 95  2 12 21 57 29.9690000  0  7 18  2 31 19 16 29 27
  12390288.021   -56610424.320 6 -43765712.848 7
  12862217.036   -26958188.412 6 -20752747.667 7
  12730429.872   -36652020.620 6 -28318636.423 7
  11435693.013   -56754872.825 7 -44099510.532 9
  14700458.802   -13929764.918 4 -10339841.534 3
  14842986.341   -46274758.209 4 -35855483.338 4
  11764538.482   -40778832.860 7 -31661250.875 9
 95  2 12 21 57 59.9690000  0  7 18  2 31 19 16 29 27
  12393160.646   -56595321.311 6 -43753944.331 7
  12838913.513   -27080656.675 6 -20848177.403 8
  12724790.763   -36681652.705 6 -28341726.345 7
  11425023.669   -56810937.400 7 -44143197.185 9
  14688105.583   -13994682.870 4 -10390426.959 2
  14850270.036   -46236478.434 5 -35825655.093 2
  11741965.239   -40897449.277 7 -31753679.207 9
 95  2 12 21 58 29.9690000  0  7 18  2 31 19 16 29 27
  12396100.450   -56579870.995 6 -43741905.177 7
  12815659.450   -27202836.576 6 -20943382.452 8
  12719265.544   -36710689.600 6 -28364352.492 7
  11414401.239   -56866760.740 7 -44186695.877 9
  14675855.654   -14059064.062 4 -10440594.119 3
  14857578.161   -46198075.062 5 -35795730.531 3
  11719433.864   -41015862.332 7 -31845949.077 9
 95  2 12 21 58 59.9690000  0  7 18  2 31 19 16 29 27
  12399104.575   -56564078.697 6 -43729599.548 7
  12792466.114   -27324741.611 6 -21038373.317 8
  12713853.263   -36739134.992 6 -28386517.729 7
  11403825.505   -56922330.864 7 -44229997.253 9
  14663698.771   -14122921.356 4 -10490353.060 4
  14864911.818   -46159565.346 5 -35765723.150 3
  11696938.388   -41134064.842 7 -31938054.884 9
 95  2 12 21 59 29.9690000  0  7 18  2 31 19 16 29 27
  12402181.005   -56547926.698 6 -43717013.634 7
  12769317.739   -27446367.413 6 -21133146.595 8
  12708555.474   -36766983.661 6 -28408217.985 7
  11393303.536   -56977628.740 7 -44273086.496 9
  14651651.935   -14186260.187 4 -10539707.992 3
  14872256.529   -46120950.874 5 -35735634.096 2
  11674487.466   -41252052.237 7 -32029993.072 9
 95  2 12 21 59 59.9690000  0  7 18  2 31 19 16 29 27
  12405321.068   -56531411.258 6 -43704144.516 7
  12746228.404   -27567702.964 6 -21227693.702 8
  12703367.599   -36794243.329 6 -28429459.283 7
  11382832.029   -57032654.402 7 -44315963.618 9
  14639695.286   -14249087.155 4 -10588664.091 4
  14879628.716   -46082220.238 5 -35705454.544 2
  11652079.482   -41369819.407 7 -32121759.652 9
 95  2 12 22  0 29.9680000  0  7 18  2 31 19 16 29 27
  12408534.008   -56514541.282 6 -43690999.132 7
  12723192.891   -27688763.378 6 -21322026.421 8
  12698291.016   -36820920.067 6 -28450246.352 7
  11372411.078   -57087415.439 7 -44358634.542 9
  14627832.000   -14311412.548 4 -10637229.341 4
  14887028.992   -46043355.669 4 -35675170.634 2
  11629701.742   -41487399.193 7 -32213380.227 9
 95  2 12 22  0 59.9680000  0  7 18  2 31 19 16 29 27
  12411809.438   -56497320.169 6 -43677580.149 7
  12700208.602   -27809554.442 6 -21416149.254 8
  12693319.938   -36847036.491 6 -28470596.812 7
  11362040.110   -57141924.603 7 -44401109.202 9
  14616067.633   -14373246.033 4 -10685411.267 4
  14894440.078   -46004361.269 3 -35644785.592 2
  11607357.844   -41604811.995 7 -32304870.674 9
 95  2 12 22  1 29.9680000  0  7 18  2 31 19 16 29 27
  12415155.821   -56479736.975 6 -43663879.000 7
  12677276.656   -27930061.600 6 -21510050.866 8
  12688455.117   -36872602.348 6 -28490518.263 7
  11351709.703   -57196201.294 7 -44443402.713 9
  14604401.250   -14434580.750 5 -10733204.559 5
  14901894.516   -45965226.369 3 -35614291.069 1
  11585048.703   -41722057.877 7 -32396231.071 9
 95  2 12 22  1 59.9680000  0  7 18  2 31 19 16 29 27
  12418570.719   -56461791.257 6 -43649895.381 7
  12654394.188   -28050305.308 6 -21603747.185 8
  12683693.977   -36897635.185 6 -28510024.369 7
  11341422.110   -57250260.131 7 -44485526.471 9
  14592819.703   -14495428.722 4 -10780618.555 5
  14909364.414   -45925958.685 3 -35583693.071 3
  11562765.719   -41839148.944 7 -32487470.819 9
 95  2 12 22  2 29.9680000  0  7 18  2 31 19 16 29 27
  12422050.867   -56443501.095 6 -43635643.361 7
  12631558.602   -28170301.466 6 -21697250.606 8
  12679025.164   -36922154.796 6 -28529130.560 7
  11331175.188   -57304109.621 7 -44527487.092 9
  14581322.391   -14555817.305 4 -10827674.622 4
  14916856.539   -45886573.101 3 -35553003.212 1
  11540510.110   -41956102.064 7 -32578603.091 9
 95  2 12 22  2 59.9680000  0  7 18  2 31 19 16 29 27
  12425598.063   -56424857.590 6 -43621116.003 7
  12608774.555   -28290043.567 6 -21790556.057 8
  12674457.555   -36946151.091 6 -28547828.966 7
  11320974.071   -57357729.471 7 -44569268.782 9
  14569914.094   -14615745.669 3 -10874372.051 5
  14924374.758   -45847078.354 4 -35522228.268 2
  11518287.383   -42072887.406 7 -32669604.619 9
 95  2 12 22  3 29.9680000  0  7 18  2 31 19 16 29 27
  12429214.563   -56405854.303 6 -43606308.303 7
  12586035.602   -28409542.889 6 -21883672.324 8
  12669996.078   -36969595.679 6 -28566097.464 7
  11310816.836   -57411096.084 7 -44610853.134 9
  14558602.414   -14675208.401 4 -10920706.664 5
  14931911.149   -45807475.178 4 -35491368.837 2
  11496096.008   -42189493.873 7 -32760466.761 9
 95  2 12 22  3 59.9680000  0  7 18  2 31 19 16 29 27
  12432895.735   -56386506.388 6 -43591232.059 7
  12563341.617   -28528800.545 6 -21976600.280 8
  12665642.977   -36992470.029 6 -28583921.614 7
  11300715.071   -57464191.809 7 -44652226.418 9
  14547377.711   -14734197.269 4 -10966672.027 5
  14939466.656   -45767767.169 3 -35460427.735 2
  11473945.235   -42305902.067 7 -32851174.405 9
 95  2 12 22  4 29.9680000  0  7 18  2 31 19 16 29 27
  12436639.899   -56366834.620 6 -43575903.457 7
  12540694.836   -28647791.508 6 -22069320.427 8
  12661404.922   -37014755.912 6 -28601287.221 7
  11290661.461   -57517011.206 7 -44693384.372 9
  14536250.172   -14792696.741 3 -11012256.058 5
  14947046.774   -45727953.120 3 -35429403.990 2
  11451837.000   -42422093.457 7 -32941713.105 9
 95  2 12 22  4 59.9680000  0  7 18  2 31 19 16 29 27
  12440449.250   -56346824.546 6 -43560311.240 7
  12518103.203   -28766499.568 6 -22161820.129 8
  12657278.219   -37036428.888 6 -28618175.233 7
  11280662.438   -57569559.098 7 -44734330.765 9
  14525214.711   -14850688.337 4 -11057444.327 5
  14954638.797   -45688035.014 3 -35398299.178 3
  11429771.500   -42538052.578 7 -33032070.818 9
 95  2 12 22  5 29.9680000  0  7 18  2 31 19 16 29 27
  12444318.406   -56326489.621 6 -43544465.897 7
  12495573.586   -28884910.151 6 -22254088.025 8
  12653267.977   -37057497.689 6 -28634592.467 7
  11270711.492   -57621849.560 7 -44775076.564 9
  14514280.727   -14908159.218 5 -11102226.837 4
  14962256.391   -45648008.157 3 -35367109.594 2
  11407746.289   -42653787.274 7 -33122253.649 9
 95  2 12 22  5 59.9680000  0  7 18  2 31 19 16 29 27
  12448246.227   -56305842.839 6 -43528377.551 7
  12473098.781   -29003013.821 6 -22346116.772 8
  12649369.914   -37077999.086 6 -28650567.566 7
  11260806.750   -57673895.803 7 -44815632.062 9
  14503439.883   -14965107.545 4 -11146602.205 5
  14969889.274   -45607869.711 3 -35335833.069 2
  11385763.344   -42769300.337 7 -33212263.776 9
 95  2 12 22  6 29.9680000  0  7 18  2 31 19 16 29 27
  12452239.750   -56284863.301 6 -43512029.911 7
  12450680.524   -29120809.734 6 -22437905.713 8
  12645573.149   -37097955.397 6 -28666117.916 7
  11250952.055   -57725697.068 7 -44855996.669 9
  14492701.156   -15021543.890 4 -11190578.570 5
  14977556.625   -45567615.925 3 -35304466.649 1
  11363825.000   -42884594.988 7 -33302103.716 9
 95  2 12 22  6 59.9680000  0  7 18  2 31 19 16 29 27
  12456294.500   -56263550.643 6 -43495422.701 7
  12428319.180   -29238334.708 6 -22529483.528 8
  12641868.586   -37117399.558 6 -28681269.195 7
  11241138.953   -57777259.964 7 -44896175.520 9
  14482056.524   -15077491.422 4 -11234174.078 5
  14985231.742   -45527255.732 3 -35273017.311 1
  11341920.000   -42999696.230 7 -33391792.942 9
 95  2 12 22  7 29.9680000  0  7 18  2 31 19 16 29 27
  12460413.375   -56241908.941 6 -43478559.086 7
  12406003.821   -29355599.612 6 -22620858.703 8
  12638261.110   -37136352.387 6 -28696037.613 7
  11231376.774   -57828561.960 7 -44936151.083 9
  14471500.594   -15132950.678 4 -11277389.106 4
  14992940.875   -45486777.588 3 -35241476.083 1
  11320055.946   -43114605.149 7 -33481332.296 9
 95  2 12 22  7 59.9680000  0  7 18  2 31 19 16 29 27
  12464595.266   -56219928.634 6 -43461431.623 7
  12383735.680   -29472621.803 6 -22712044.756 8
  12634750.555   -37154813.164 6 -28710422.611 7
  11221664.766   -57879594.334 7 -44975916.540 9
  14461032.696   -15187946.890 4 -11320243.310 3
  15000659.102   -45446195.948 3 -35209854.191 2
  11298225.008   -43229317.773 7 -33570718.699 9
 95  2 12 22  8 29.9680000  0  7 18  2 31 19 16 29 27
  12468844.860   -56197602.443 6 -43444034.644 7
  12361511.164   -29589402.955 6 -22803042.984 8
  12631339.274   -37172751.139 6 -28724400.234 7
  11212006.852   -57930346.100 7 -45015463.344 9
  14450657.727   -15242489.124 4 -11362743.758 5
  15008394.180   -45405525.548 3 -35178163.127 1
  11276436.211   -43343836.223 7 -33659953.795 9
 95  2 12 22  8 59.9680000  0  7 18  2 31 19 16 29 27
  12473154.938   -56174942.550 6 -43426377.636 7
  12339339.453   -29705934.411 6 -22893846.650 8
  12628023.977   -37190152.766 6 -28737959.935 7
  11202404.946   -57980811.154 7 -45054786.731 9
  14440370.430   -15296561.873 5 -11404878.391 5
  15016151.274   -45364770.159 3 -35146405.846 1
  11254677.805   -43458155.231 7 -33749033.486 9
 95  2 12 22  9 29.9680000  0  7 18  2 31 19 16 29 27
  12477527.578   -56151968.336 6 -43408475.699 7
  12317209.539   -29822207.617 6 -22984449.080 8
  12624820.297   -37207020.158 6 -28751103.341 7
  11192852.586   -58030999.667 7 -45093894.633 9
  14430164.211   -15350169.789 5 -11446650.790 5
  15023920.555   -45323955.724 3 -35114602.565 1
  11232963.781   -43572267.227 7 -33837951.850 9
 95  2 12 22  9 59.9680000  0  7 18  2 31 19 16 29 27
  12481958.774   -56128683.117 6 -43390331.430 7
  12295137.133   -29938213.254 6 -23074843.023 8
  12621710.680   -37223331.536 6 -28763813.493 7
  11183354.399   -58080915.494 7 -45132790.060 9
  14420051.610   -15403310.857 5 -11488059.422 5
  15031704.156   -45283092.068 3 -35082760.926 2
  11211290.305   -43686157.888 7 -33926697.779 9
 95  2 12 22 10 29.9680000  0  6 18  2 31 19 16 27
  12486445.656   -56105109.004 6 -43371962.043 7
  12273112.844   -30053957.893 6 -23165033.577 8
  12618713.914   -37239099.097 6 -28776099.901 7
  11173904.844   -58130574.202 7 -45171485.130 9
  14410025.938   -15455979.645 4 -11529100.055 3
  11189657.641   -43799834.621 7 -34015276.992 9
 95  2 12 22 10 59.9680000  0  6 18  2 31 19 16 27
  12490982.563   -56081267.289 6 -43353384.130 7
  12251130.758   -30169451.780 6 -23255028.752 8
  12615815.516   -37254337.546 6 -28787974.014 7
  11164501.071   -58179991.483 7 -45209992.080 9
  14400097.781   -15508171.374 4 -11569768.932 5
  11168068.946   -43913297.156 7 -34103689.300 9
 95  2 12 22 11 29.9680000  0  6 18  2 31 19 16 27
  12495570.531   -56057155.642 6 -43334595.889 7
  12229203.274   -30284691.178 6 -23344825.619 8
  12613013.196   -37269041.037 6 -28799431.278 7
  11155142.461   -58229174.339 7 -45248316.371 9
  14390255.867   -15559893.205 4 -11610071.670 4
  11146517.227   -44026549.539 7 -34191937.852 9
 95  2 12 22 11 59.9670000  0  6 18  2 31 19 16 27
  12500214.386   -56032756.260 6 -43315583.430 7
  12207324.636   -30399670.737 6 -23434420.012 8
  12610320.620   -37283193.355 6 -28810459.052 7
  11145826.284   -58278124.305 7 -45286459.184 9
  14380505.284   -15611135.296 4 -11650000.576 4
  11125005.159   -44139590.475 7 -34280021.640 9
 95  2 12 22 12 29.9670000  0  7  7 18  2 31 19 16 27
  14802530.214          -0.91613
  12504912.956   -56008060.691 6 -43296340.182 7
  12185489.902   -30514407.562 6 -23523825.266 8
  12607734.909   -37296806.731 6 -28821066.861 7
  11136555.917   -58326845.397 7 -45324423.658 9
  14370845.542   -15661895.312 5 -11689553.831 2
  11103530.863   -44252443.262 7 -34367958.825 9
 95  2 12 22 12 59.9670000  0  7  7 18  2 31 19 16 27
  14768643.128     -178066.325 3        -0.09311
  12509670.730   -55983052.706 6 -43276853.490 7
  12163701.425   -30628892.544 6 -23613034.270 8
  12605252.292   -37309871.207 6 -28831246.971 7
  11127328.300   -58375322.947 7 -45362198.366 9
  14361280.808   -15712179.697 4 -11728736.496 5
  11082095.105   -44365098.614 7 -34455742.158 9
 95  2 12 22 13 29.9670000  0  7  7 18  2 31 19 16 27
  14734759.363     -356111.036 3   -138735.852 2
  12514496.988   -55957707.206 6 -43257103.806 6
  12141963.988   -30743118.983 6 -23702041.809 8
  12602863.417   -37322381.171 6 -28840994.985 7
  11118155.527   -58423537.189 7 -45399767.892 9
  14351796.589   -15761999.938 5 -11767557.460 4
  11060697.894   -44477544.843 7 -34543362.537 9
 95  2 12 22 13 59.9670000  0  7  7 18  2 31 19 16 27
  14700882.956     -534131.572 3
  12519382.534   -55932019.690 6 -43237087.607 7
  12120279.738   -30857086.831 6 -23790847.850 8
  12600587.003   -37334339.158 6 -28850312.885 7
  11109035.066   -58471461.011 7 -45437111.122 9
  14342409.644   -15811354.486 4 -11806015.575 5
  11039340.558   -44589765.483 7 -34630807.130 9
 95  2 12 22 14 29.9670000  0  7  7 18  2 31 19 16 27
  14667008.527     -712133.076 3        -0.33812
  12524333.230   -55906008.778 6 -43216819.425 6
  12098643.003   -30970791.134 6 -23879448.529 8
  12598417.761   -37345759.929 6 -28859212.170 7
  11099972.495   -58519091.120 7 -45474225.475 9
  14333096.667   -15860259.425 4 -11844123.321 4
  11018027.292   -44701760.889 7 -34718076.219 9
 95  2 12 22 14 59.9670000  0  7  7 18  2 31 19 16 27
  14633144.097     -890106.521 3   -138680.570 2
  12529340.816   -55879683.648 6 -43196306.388 6
  12077064.050   -31084204.693 6 -23967822.654 8
  12596340.941   -37356640.761 6 -28867690.733 7
  11090965.066   -58566427.894 7 -45511111.253 9
  14323879.120   -15908721.871 5 -11881886.263 4
  10996762.519   -44813518.186 7 -34805159.768 9
 95  2 12 22 15 29.9670000  0  7  7 18  2 31 19 16 27
  14599280.956    -1068058.488 3   -277344.057 2
  12534408.925   -55853064.264 6 -43175564.074 6
  12055537.464   -31197318.816 6 -24055963.450 8
  12594369.464   -37367000.082 6 -28875762.918 7
  11082010.730   -58613481.533 7 -45547776.403 9
  14314739.488   -15956739.526 5 -11919302.605 3
  10975540.191   -44925033.392 7 -34892054.669 9
 95  2 12 22 15 59.9670000  0  7  7 18  2 31 19 16 27
  14565418.456    -1245993.576 3   -415994.436 1
  12539529.698   -55826160.682 6 -43154600.298 6
  12034070.230   -31310124.839 6 -24143864.168 8
  12592496.683   -37376840.072 6 -28883430.433 7
  11073108.730   -58660261.343 7 -45584228.179 9
  14305689.316   -16004298.953 5 -11956361.912 4
  10954367.613   -45036298.663 7 -34978754.820 9
 95  2 12 22 16 29.9670000  0  7  7 18  2 31 19 16 27
  14531560.566    -1423914.503 3   -554633.781 2
  12544698.417   -55798980.704 6 -43133421.160 6
  12012660.948   -31422632.461 6 -24231532.361 8
  12590724.613   -37386175.011 6 -28890704.404 7
  11064256.027   -58706784.196 7 -45620479.725 9
  14296729.214   -16051401.611 5 -11993065.263 3
  10933241.206   -45147317.964 7 -35065263.314 9
 95  2 12 22 16 59.9670000  0  7  7 18  2 31 19 16 27
  14497711.073    -1601814.357 3   -693256.709 2
  12549927.597   -55771517.472 6 -43112021.294 6
  11991307.527   -31534846.802 6 -24318972.038 8
  12589045.644   -37395013.834 6 -28897591.795 7
  11055455.573   -58753025.935 7 -45656512.220 9
  14287848.480   -16098041.599 5 -12029408.104 3
  10912166.089   -45258075.207 7 -35151567.610 9
 95  2 12 22 17 29.9670000  0  7  7 18  2 31 19 16 27
  14463858.886    -1779687.738 3   -831859.059 2
  12555204.245   -55743774.426 6 -43090403.398 6
  11970002.605   -31646791.993 6 -24406201.984 8
  12587455.683   -37403357.264 6 -28904093.163 7
  11046714.714   -58798969.261 7
  14279069.980   -16144215.280 5
  10891135.902   -45368576.635 7 -35237672.561 9
 95  2 12 22 17 59.9670000  0  7  7 18  2 31 19 16 27
  14430021.511    -1957512.375 3   -970423.412 2
  12560540.441   -55715749.267 6 -43068565.668 6
  11948751.527   -31758473.581 6 -24493226.523 9
  12585960.097   -37411195.942 6 -28910201.211 6
  11038031.730   -58844590.927 7
  14270372.105   -16189911.326 5
  10870158.425   -45478832.493 7 -35323586.164 9
 95  2 12 22 18 29.9670000  0  7  7 18  2 31 19 16 27
  14396191.089    -2135274.390 3  -1108938.993 3
  12565925.956   -55687440.560 6 -43046506.989 6
  11927547.488   -31869887.971 6 -24580042.855 9
  12584569.761   -37418530.917 6 -28915916.760 6
  11029414.363   -58889876.833 7
  14261764.667   -16235127.791 5
  10849221.214   -45588850.530 7 -35409314.452 9
 95  2 12 22 18 59.9670000  0  7  7 18  2 31 19 16 27
  14362382.652    -2312965.903 3  -1247399.643 3
  12571365.597   -55658859.078 6 -43024235.763 6
  11906397.144   -31981027.936 6 -24666645.355 9
  12583272.698   -37425348.998 6 -28921229.549 6
  11020859.152   -58934833.438 7 -45798180.280 9
  14253248.941   -16279867.641 5 -12092263.727 2
  10828330.605   -45698640.636 7 -35494865.137 9
 95  2 12 22 19 29.9670000  0  7  7 18  2 31 19 16 27
  14328580.214    -2490583.514 3  -1385802.690 3
  12576854.425   -55630008.672 6 -43001754.975 6
  11885301.558   -32091899.332 6 -24753038.577 9
  12582072.136   -37431641.375 6 -28926132.695 7
  11012359.808   -58979487.997 7 -45832976.005 9
  14244826.542   -16324131.636 5 -12126755.153 3
  10807480.808   -45808202.971 7 -35580238.337 9
 95  2 12 22 19 59.9670000  0  7  7 18  2 31 19 16 27
  14294792.597    -2668135.638 3  -1524154.700 4
  12582393.714   -55600886.310 6 -42979062.279 6
  11864255.253   -32202510.090 6 -24839228.706 9
  12580971.972   -37437421.467 6 -28930636.670 6
  11003915.105   -59023867.937 7 -45867557.737 9
  14236492.441   -16367933.530 5 -12160886.489 1
  10786675.363   -45917526.597 7 -35665425.536 9
 95  2 12 22 20 29.9670000  0  7  7 18  2 31 19 16 27
  14261015.589    -2845635.203 3  -1662465.751 2
  12587990.488   -55571490.579 6 -42956156.566 6
  11843252.917   -32312875.639 6 -24925227.758 9
  12579970.136   -37442696.616 6 -28934747.158 7
  10995517.308   -59068005.287 7 -45901950.453 9
  14228241.464   -16411289.803 5 -12194670.603 3
  10765918.566   -46026604.439 7 -35750421.205 9
 95  2 12 22 20 59.9670000  0  7  7 18  2 31 19 16 27
  14227244.003    -3023083.514 3  -1800736.863 3
  12593635.558   -55541822.369 6 -42933038.535 6
  11822295.402   -32423008.096 6 -25011045.183 9
  12579062.253   -37447467.839 6 -28938464.979 7
  10987162.081   -59111906.874 7 -45936159.450 9
  14220073.308   -16454209.406 5 -12228114.469 3
  10745211.089   -46135421.424 7 -35835213.605 9
 95  2 12 22 21 29.9670000  0  7  7 18  2 31 19 16 27
  14193489.956    -3200484.021 3  -1938970.722 4
  12599333.386   -55511880.970 6 -42909707.618 6
  11801380.323   -32532912.107 6 -25096684.597 9
  12578246.613   -37451743.723 6 -28941796.811 7
  10978853.870   -59155573.677 7 -45970185.505 9
  14211983.011   -16496700.862 4 -12261224.684 3
  10724555.839   -46243974.089 7 -35919800.042 9
 95  2 12 22 21 59.9670000  0  7  7 18  2 31 19 16 27
  14159741.120    -3377848.806 4  -2077176.740 3
  12605081.902   -55481673.888 6 -42886169.680 6
  11780510.198   -32642576.075 6 -25182136.960 9
  12577525.823   -37455526.636 6 -28944744.502 7
  10970588.995   -59199002.545 7 -46004026.151 9
  14203978.808   -16538777.055 4 -12294011.312 2
  10703945.433   -46352280.316 7 -36004194.451 9
 95  2 12 22 22 29.9670000  0  7  7 18  2 31 19 16 27
  14125993.542    -3555183.552 4  -2215359.346 4
  12610878.941   -55451210.757 6 -42862432.223 6
  11759691.027   -32751979.000 6 -25267385.907 9
  12576906.027   -37458817.734 6 -28947308.974 7
  10962371.839   -59242179.243 7 -46037670.301 9
  14196048.050   -16580444.780 4 -12326479.648 1
  10683383.613   -46460342.729 7 -36088398.876 9
 95  2 12 22 22 59.9670000  0  7  7 18  2 31 19 16 27
  14092251.683    -3732489.785 4  -2353519.753 2
  12616724.066   -55420490.167 6 -42838494.154 6
  11738926.706   -32861094.332 6 -25352410.756 9
  12576372.878   -37461611.757 6 -28949486.109 7
  10954210.105   -59285076.089 7 -46071096.386 9
  14188204.277   -16621703.655 4 -12358629.439 3
  10662868.808   -46568148.795 7 -36172403.546 9
 95  2 12 22 23 29.9660000  0  7  7 18  2 31 19 16 27
  14058519.069    -3909768.897 4  -2491659.012 4
  12622618.787   -55389520.596 6 -42814362.075 6
  11718221.475   -32969912.783 6 -25437204.261 9
  12575929.842   -37463923.958 6 -28951287.785 7
  10946100.467   -59327687.225 7 -46104299.835 9
  14180429.123   -16662554.203 4 -12390461.022 3
  10642398.092   -46675709.394 7 -36256216.941 9
 95  2 12 22 23 59.9660000  0  7  7 18  2 31 19 16 27
  14024788.108    -4087028.362 4  -2629782.955 4
  12628558.850   -55358301.475 6 -42790035.537 6
  11697569.131   -33078446.079 6 -25521775.576 9
  12575574.201   -37465771.214 6 -28952727.169 6
  10938048.842   -59370006.876 7 -46137276.155 9
  14172729.998   -16702990.419 4 -12421969.740 3
  10621974.272   -46783032.641 7 -36339845.389 9
 95  2 12 22 24 29.9660000  0  7  7 18  2 31 19 16 27
  13991067.834    -4264228.212 5  -2767860.460 5
  12634547.647   -55326824.465 6 -42765508.060 6
  11676967.186   -33186696.133 6 -25606126.176 9
  12575313.022   -37467165.954 6 -28953813.944 6
  10930053.350   -59412023.772 7 -46170016.561 9
  14165121.287   -16742989.458 3 -12453137.824 4
  10601601.123   -46890099.102 7 -36423273.743 9
 95  2 12 22 24 59.9660000  0  7  7 18  2 31 19 16 27
  13957363.225    -4441339.975 4  -2905869.326 4
  12640591.522   -55295080.811 6 -42740772.795 6
  11656418.764   -33294676.252 6 -25690266.435 9
  12575133.264   -37468109.725 6 -28954549.305 6
  10922115.272   -59453734.848 7 -46202518.661 9
  14157596.076   -16782534.483 4 -12483952.124 4
  10581275.701   -46996920.323 7 -36506510.997 9
 95  2 12 22 25 29.9660000  0  7  7 18  2 31 19 16 27
  13923681.936    -4618336.186 5  -3043788.153 2
  12646682.459   -55263067.986 6 -42715827.794 6
  11635921.358   -33402399.744 6 -25774206.727 9
  12575039.397   -37468601.322 6
  10914232.553   -59495151.669 7 -46234791.480 9
  14150163.756   -16821613.965 4 -12514403.660 4
  10560991.412   -47103502.704 7 -36589562.140 9
